[[{"header":{"parameterUnit":"m.s-1","parameterCategory":1,"la1":31.0,"la2":29.5877,"lo1":-88.7671,"lo2":-86.6584,"dy":0.0162,"dx":0.0185,"nx":115,"ny":88,"refTime":"2025-01-16T06:00:00:Z","depth":0,"parameterNumber":2,"parameterNumberName":"U-component_of_WINDS"},"data":[0.0,0.0,0.0,0.0,0.0,0.0,0.0,0.0,0.0,0.0,0.0,0.0,0.0,0.0,0.0,0.0,0.0,0.0,0.0,0.0,0.0,0.0,0.0,0.0,0.0,0.0,0.0,0.0,0.0,0.0,0.0,0.0,0.0,0.0,0.0,0.0,0.0,0.0,0.0,0.0,0.0,0.0,0.0,0.0,0.0,0.0,0.0,0.0,0.0,0.0,0.0,0.0,0.0,0.0,0.0,0.0,0.0,0.0,0.0,0.0,0.0,0.0,0.0,0.0,0.0,0.0,0.0,0.0,0.0,0.0,0.0,0.0,0.0,0.0,0.0,0.0,0.0,0.0,0.0,0.0,0.0,0.0,0.0,0.0,0.0,0.0,0.0,0.0,0.0,0.0,0.0,0.0,0.0,0.0,0.0,0.0,0.0,0.0,0.0,0.0,0.0,0.0,0.0,0.0,0.0,0.0,0.0,0.0,0.0,0.0,0.0,0.0,0.0,0.0,0.0,0.0,0.0,0.0,0.0,0.0,0.0,0.0,0.0,0.0,0.0,0.0,0.0,0.0,0.0,0.0,0.0,0.0,0.0,0.0,0.0,0.0,0.0,0.0,0.0,0.0,0.0,0.0,0.0,0.0,0.0,0.0,0.0,0.0,0.0,0.0,0.0,0.0,0.0,0.0,0.0,0.0,0.0,0.0,0.0,0.0,0.0,0.0,0.0,0.0,0.0,0.0,0.0,0.0,0.0,0.0,0.0,0.0,0.0,0.0,0.0,0.0,0.0,0.0,0.0,0.0,0.0,0.0,0.0,0.0,0.0,0.0,0.0,0.0,0.0,0.0,0.0,0.0,0.0,0.0,0.0,0.0,0.0,0.0,0.0,0.0,0.0,0.0,0.0,0.0,0.0,0.0,0.0,0.0,0.0,0.0,0.0,0.0,0.0,0.0,0.0,0.0,0.0,0.0,0.0,0.0,0.0,0.0,0.0,0.0,0.0,0.0,0.0,0.0,0.0,0.0,0.0,0.0,0.0,0.0,0.0,0.0,0.0,0.0,0.0,0.0,0.0,0.0,0.0,0.0,0.0,0.0,0.0,0.0,0.0,0.0,0.0,0.0,0.0,0.0,0.0,0.0,0.0,0.0,0.0,0.0,0.0,0.0,0.0,0.0,0.0,0.0,0.0,0.0,0.0,0.0,0.0,0.0,0.0,0.0,0.0,0.0,0.0,0.0,0.0,0.0,0.0,0.0,0.0,0.0,0.0,0.0,0.0,0.0,0.0,0.0,0.0,0.0,0.0,0.0,0.0,0.0,0.0,0.0,0.0,0.0,0.0,0.0,0.0,0.0,0.0,0.0,0.0,0.0,0.0,0.0,0.0,0.0,0.0,0.0,0.0,0.0,0.0,0.0,0.0,0.0,0.0,0.0,0.0,0.0,0.0,0.0,0.0,0.0,0.0,0.0,0.0,0.0,0.0,0.0,0.0,0.0,0.0,0.0,0.0,0.0,0.0,0.0,0.0,0.0,0.0,0.0,0.0,0.0,0.0,0.0,0.0,0.0,0.0,0.0,0.0,0.0,0.0,0.0,0.0,0.0,0.0,0.0,0.0,0.0,0.0,0.0,0.0,0.0,0.0,0.0,0.0,0.0,0.0,0.0,0.0,0.0,0.0,0.0,0.0,0.0,0.0,0.0,0.0,0.0,0.0,0.0,0.0,0.0,0.0,0.0,0.0,0.0,0.0,0.0,0.0,0.0,0.0,0.0,0.0,0.0,0.0,0.0,0.0,0.0,0.0,0.0,0.0,0.0,0.0,0.0,0.0,0.0,0.0,0.0,0.0,0.0,0.0,0.0,0.0,0.0,0.0,0.0,0.0,0.0,0.0,0.0,0.0,0.0,0.0,0.0,0.0,0.0,0.0,0.0,0.0,0.0,0.0,0.0,0.0,0.0,0.0,0.0,0.0,0.0,0.0,0.0,0.0,0.0,0.0,0.0,0.0,0.0,0.0,0.0,0.0,0.0,0.0,0.0,0.0,0.0,0.0,0.0,0.0,0.0,0.0,0.0,0.0,0.0,0.0,0.0,0.0,0.0,0.0,0.0,0.0,0.0,0.0,0.0,0.0,0.0,0.0,0.0,0.0,0.0,0.0,0.0,0.0,0.0,0.0,0.0,0.0,0.0,0.0,0.0,0.0,0.0,0.0,0.0,0.0,0.0,0.0,0.0,0.0,0.0,0.0,0.0,0.0,0.0,0.0,0.0,0.0,0.0,0.0,0.0,0.0,0.0,0.0,0.0,0.0,0.0,0.0,0.0,0.0,0.0,0.0,0.0,0.0,0.0,0.0,0.0,0.0,0.0,0.0,0.0,0.0,0.0,0.0,0.0,0.0,0.0,0.0,0.0,0.0,0.0,0.0,0.0,0.0,0.0,0.0,0.0,0.0,0.0,0.0,0.0,0.0,0.0,0.0,0.0,0.0,0.0,0.0,0.0,0.0,0.0,0.0,0.0,0.0,0.0,0.0,0.0,0.0,0.0,0.0,0.0,0.0,0.0,0.0,0.0,0.0,0.0,0.0,0.0,0.0,0.0,0.0,0.0,0.0,0.0,0.0,0.0,0.0,0.0,0.0,0.0,0.0,0.0,0.0,0.0,0.0,0.0,0.0,0.0,0.0,0.0,0.0,0.0,0.0,0.0,0.0,0.0,0.0,0.0,0.0,0.0,0.0,0.0,0.0,0.0,0.0,0.0,0.0,0.0,0.0,0.0,0.0,0.0,0.0,0.0,0.0,0.0,0.0,0.0,0.0,0.0,0.0,0.0,0.0,0.0,0.0,0.0,0.0,0.0,0.0,0.0,0.0,0.0,0.0,0.0,0.0,0.0,0.0,0.0,0.0,0.0,0.0,0.0,0.0,0.0,0.0,0.0,0.0,0.0,0.0,0.0,0.0,0.0,0.0,0.0,0.0,0.0,0.0,0.0,0.0,0.0,0.0,0.0,0.0,0.0,0.0,0.0,0.0,0.0,0.0,0.0,0.0,0.0,0.0,0.0,0.0,0.0,0.0,0.0,0.0,0.0,0.0,0.0,0.0,0.0,0.0,0.0,0.0,0.0,0.0,0.0,0.0,0.0,0.0,0.0,0.0,0.0,0.0,0.0,0.0,0.0,0.0,0.0,0.0,0.0,0.0,0.0,0.0,0.0,0.0,0.0,0.0,0.0,0.0,0.0,0.0,0.0,0.0,0.0,0.0,0.0,0.0,0.0,0.0,0.0,0.0,0.0,0.0,0.0,0.0,0.0,0.0,0.0,0.0,0.0,0.0,0.0,0.0,0.0,0.0,0.0,0.0,0.0,0.0,0.0,0.0,0.0,0.0,0.0,0.0,0.0,0.0,0.0,0.0,0.0,0.0,0.0,0.0,0.0,0.0,0.0,0.0,0.0,0.0,0.0,0.0,0.0,0.0,0.0,0.0,0.0,0.0,0.0,0.0,0.0,0.0,0.0,0.0,0.0,0.0,0.0,0.0,0.0,0.0,0.0,0.0,0.0,0.0,0.0,0.0,0.0,0.0,0.0,0.0,0.0,0.0,0.0,0.0,0.0,0.0,0.0,0.0,0.0,0.0,0.0,0.0,0.0,0.0,0.0,0.0,0.0,0.0,0.0,0.0,0.0,0.0,0.0,0.0,0.0,0.0,0.0,0.0,0.0,0.0,0.0,0.0,0.0,0.0,0.0,0.0,0.0,0.0,0.0,0.0,0.0,0.0,0.0,0.0,0.0,0.0,0.0,0.0,0.0,0.0,0.0,0.0,0.0,0.0,0.0,0.0,0.0,0.0,0.0,0.0,0.0,0.0,0.0,0.0,0.0,0.0,0.0,0.0,0.0,0.0,0.0,0.0,0.0,0.0,0.0,0.0,0.0,0.0,0.0,0.0,0.0,0.0,0.0,0.0,0.0,0.0,0.0,0.0,0.0,0.0,0.0,0.0,0.0,0.0,0.0,0.0,0.0,0.0,0.0,0.0,0.0,0.0,0.0,0.0,0.0,0.0,0.0,0.0,0.0,0.0,0.0,0.0,0.0,0.0,0.0,0.0,0.0,0.0,0.0,0.0,0.0,0.0,0.0,0.0,0.0,0.0,0.0,0.0,0.0,0.0,0.0,0.0,0.0,0.0,0.0,0.0,0.0,0.0,0.0,0.0,0.0,0.0,0.0,0.0,0.0,0.0,0.0,0.0,0.0,0.0,0.0,0.0,0.0,0.0,0.0,0.0,0.0,0.0,0.0,-1.982,0.0,0.0,0.0,0.0,0.0,0.0,0.0,0.0,0.0,0.0,0.0,0.0,0.0,0.0,0.0,0.0,0.0,0.0,0.0,0.0,0.0,0.0,0.0,0.0,0.0,0.0,0.0,0.0,0.0,0.0,0.0,0.0,0.0,0.0,0.0,0.0,0.0,0.0,0.0,0.0,0.0,0.0,0.0,0.0,0.0,0.0,0.0,0.0,0.0,0.0,0.0,0.0,0.0,0.0,0.0,0.0,0.0,0.0,0.0,0.0,0.0,0.0,0.0,0.0,0.0,0.0,0.0,0.0,0.0,0.0,0.0,0.0,0.0,0.0,0.0,0.0,0.0,0.0,0.0,0.0,0.0,0.0,0.0,0.0,0.0,0.0,0.0,0.0,0.0,0.0,0.0,0.0,0.0,0.0,0.0,0.0,0.0,0.0,0.0,0.0,0.0,0.0,0.0,0.0,0.0,0.0,0.0,0.0,0.0,0.0,-2.2077,-2.1837,-2.1024,-2.0494,-2.0225,0.0,0.0,0.0,0.0,0.0,0.0,0.0,0.0,0.0,0.0,0.0,0.0,0.0,0.0,0.0,0.0,0.0,0.0,0.0,0.0,0.0,0.0,0.0,0.0,0.0,0.0,0.0,0.0,0.0,0.0,0.0,0.0,0.0,0.0,0.0,0.0,0.0,0.0,0.0,0.0,0.0,0.0,0.0,0.0,0.0,0.0,0.0,0.0,0.0,0.0,0.0,0.0,0.0,0.0,0.0,0.0,0.0,0.0,0.0,0.0,0.0,0.0,0.0,0.0,0.0,0.0,0.0,0.0,0.0,0.0,0.0,0.0,0.0,0.0,0.0,0.0,0.0,0.0,0.0,0.0,0.0,0.0,0.0,0.0,0.0,0.0,0.0,0.0,0.0,0.0,0.0,0.0,0.0,0.0,0.0,0.0,0.0,0.0,0.0,0.0,0.0,0.0,0.0,0.0,0.0,0.0,0.0,0.0,0.0,0.0,0.0,0.0,-2.1458,-2.0856,-2.0586,0.0,0.0,0.0,0.0,0.0,0.0,0.0,0.0,0.0,0.0,0.0,0.0,0.0,0.0,0.0,0.0,0.0,0.0,0.0,0.0,0.0,0.0,0.0,0.0,0.0,0.0,0.0,0.0,0.0,0.0,0.0,0.0,0.0,0.0,0.0,0.0,0.0,0.0,0.0,0.0,0.0,0.0,0.0,0.0,0.0,0.0,0.0,0.0,0.0,0.0,0.0,0.0,0.0,0.0,0.0,0.0,0.0,0.0,0.0,0.0,0.0,0.0,0.0,0.0,0.0,0.0,0.0,0.0,0.0,0.0,0.0,0.0,0.0,0.0,0.0,0.0,0.0,0.0,0.0,0.0,0.0,0.0,0.0,0.0,0.0,0.0,0.0,0.0,0.0,0.0,0.0,0.0,0.0,0.0,0.0,0.0,0.0,0.0,0.0,0.0,0.0,0.0,0.0,0.0,0.0,0.0,0.0,0.0,0.0,0.0,-2.2414,-2.2895,-2.2342,0.0,-2.0687,0.0,0.0,0.0,0.0,0.0,0.0,0.0,0.0,0.0,0.0,0.0,0.0,0.0,0.0,0.0,0.0,0.0,0.0,0.0,0.0,0.0,0.0,0.0,0.0,0.0,0.0,0.0,0.0,0.0,0.0,0.0,0.0,0.0,0.0,0.0,0.0,0.0,0.0,0.0,0.0,0.0,0.0,0.0,0.0,0.0,0.0,0.0,0.0,0.0,0.0,0.0,0.0,0.0,0.0,0.0,0.0,0.0,0.0,0.0,0.0,0.0,0.0,0.0,0.0,0.0,0.0,0.0,0.0,0.0,0.0,0.0,0.0,0.0,0.0,0.0,0.0,0.0,0.0,0.0,0.0,0.0,0.0,0.0,0.0,0.0,0.0,0.0,0.0,0.0,0.0,0.0,0.0,0.0,0.0,0.0,0.0,0.0,0.0,0.0,0.0,0.0,0.0,0.0,0.0,0.0,0.0,0.0,0.0,0.0,0.0,-2.2751,-2.2999,-2.2173,-2.1211,0.0,0.0,0.0,0.0,0.0,0.0,0.0,0.0,0.0,0.0,0.0,0.0,0.0,0.0,0.0,0.0,0.0,0.0,0.0,0.0,0.0,0.0,0.0,0.0,0.0,0.0,0.0,0.0,0.0,0.0,0.0,0.0,0.0,0.0,0.0,0.0,0.0,0.0,0.0,0.0,0.0,0.0,0.0,0.0,0.0,0.0,0.0,0.0,0.0,0.0,0.0,0.0,0.0,0.0,0.0,0.0,0.0,0.0,0.0,0.0,0.0,0.0,0.0,0.0,0.0,0.0,0.0,0.0,0.0,0.0,0.0,0.0,0.0,0.0,0.0,0.0,0.0,0.0,0.0,0.0,0.0,0.0,0.0,0.0,0.0,0.0,0.0,0.0,0.0,0.0,0.0,0.0,0.0,0.0,0.0,0.0,0.0,0.0,0.0,0.0,0.0,0.0,0.0,0.0,0.0,0.0,0.0,0.0,0.0,0.0,-2.2806,-2.3023,-2.2975,-2.2246,-2.1187,-1.9868,0.0,0.0,0.0,0.0,0.0,0.0,0.0,0.0,0.0,0.0,0.0,0.0,0.0,0.0,0.0,0.0,0.0,0.0,0.0,0.0,0.0,0.0,0.0,0.0,0.0,0.0,0.0,0.0,0.0,0.0,0.0,0.0,0.0,0.0,0.0,0.0,0.0,0.0,0.0,0.0,0.0,0.0,0.0,0.0,0.0,0.0,0.0,0.0,0.0,0.0,0.0,0.0,0.0,0.0,0.0,0.0,0.0,0.0,0.0,0.0,0.0,0.0,0.0,0.0,0.0,0.0,0.0,0.0,0.0,0.0,0.0,0.0,0.0,0.0,0.0,0.0,0.0,0.0,0.0,0.0,0.0,0.0,0.0,0.0,0.0,0.0,0.0,0.0,0.0,0.0,0.0,0.0,0.0,0.0,0.0,0.0,0.0,0.0,0.0,0.0,0.0,0.0,0.0,0.0,0.0,0.0,0.0,0.0,0.0,-2.2975,-2.3023,-2.3047,-2.2951,-2.1964,0.0,0.0,0.0,0.0,0.0,0.0,0.0,0.0,0.0,0.0,0.0,0.0,0.0,0.0,0.0,0.0,0.0,0.0,0.0,0.0,0.0,0.0,0.0,0.0,0.0,0.0,0.0,0.0,0.0,0.0,0.0,0.0,0.0,0.0,0.0,0.0,0.0,0.0,0.0,0.0,0.0,0.0,0.0,0.0,0.0,0.0,0.0,0.0,0.0,0.0,0.0,0.0,0.0,0.0,0.0,0.0,0.0,0.0,0.0,0.0,0.0,0.0,0.0,0.0,0.0,0.0,0.0,0.0,0.0,0.0,0.0,0.0,0.0,0.0,0.0,0.0,0.0,0.0,0.0,0.0,0.0,0.0,0.0,0.0,0.0,0.0,0.0,0.0,0.0,0.0,0.0,0.0,0.0,0.0,0.0,0.0,0.0,0.0,0.0,0.0,0.0,0.0,0.0,0.0,0.0,0.0,0.0,0.0,0.0,-2.1476,-2.2125,-2.2967,-2.3881,-2.2342,-2.1091,0.0,0.0,0.0,0.0,0.0,0.0,0.0,0.0,0.0,0.0,0.0,0.0,0.0,0.0,0.0,0.0,0.0,0.0,0.0,0.0,0.0,0.0,0.0,0.0,0.0,0.0,0.0,0.0,0.0,0.0,0.0,0.0,0.0,0.0,0.0,0.0,0.0,0.0,0.0,0.0,0.0,0.0,0.0,0.0,0.0,0.0,0.0,0.0,0.0,0.0,0.0,0.0,0.0,0.0,0.0,0.0,0.0,0.0,0.0,0.0,0.0,0.0,0.0,0.0,0.0,0.0,0.0,0.0,0.0,0.0,0.0,0.0,0.0,0.0,0.0,0.0,0.0,0.0,0.0,0.0,0.0,0.0,0.0,0.0,0.0,0.0,0.0,0.0,0.0,0.0,0.0,0.0,0.0,0.0,0.0,0.0,0.0,0.0,0.0,0.0,0.0,0.0,0.0,0.0,0.0,0.0,0.0,0.0,0.0,-2.111,0.0,-2.3063,0.0,-2.2053,-2.0634,0.0,0.0,0.0,0.0,0.0,0.0,0.0,0.0,0.0,0.0,0.0,0.0,0.0,0.0,0.0,0.0,0.0,0.0,0.0,0.0,0.0,0.0,0.0,0.0,0.0,0.0,0.0,0.0,0.0,0.0,0.0,0.0,0.0,0.0,0.0,0.0,0.0,0.0,0.0,0.0,0.0,0.0,0.0,0.0,0.0,0.0,0.0,0.0,0.0,0.0,0.0,0.0,0.0,0.0,0.0,0.0,0.0,0.0,0.0,0.0,0.0,0.0,0.0,0.0,0.0,0.0,0.0,0.0,0.0,0.0,0.0,0.0,0.0,0.0,0.0,0.0,0.0,0.0,0.0,0.0,0.0,0.0,0.0,0.0,0.0,0.0,0.0,0.0,0.0,0.0,0.0,0.0,0.0,0.0,0.0,0.0,0.0,0.0,0.0,0.0,0.0,0.0,0.0,0.0,0.0,0.0,0.0,0.0,-1.9882,-2.1985,-2.3138,-2.3288,-2.2294,-2.2173,-2.0682,0.0,0.0,0.0,0.0,0.0,0.0,0.0,0.0,0.0,0.0,0.0,0.0,0.0,0.0,0.0,0.0,0.0,0.0,0.0,0.0,0.0,0.0,0.0,0.0,0.0,0.0,0.0,0.0,0.0,0.0,0.0,0.0,0.0,0.0,0.0,0.0,0.0,0.0,0.0,0.0,0.0,0.0,0.0,0.0,0.0,0.0,0.0,0.0,0.0,0.0,0.0,0.0,0.0,0.0,0.0,0.0,0.0,0.0,0.0,0.0,0.0,0.0,0.0,0.0,0.0,0.0,0.0,0.0,0.0,0.0,0.0,0.0,0.0,0.0,0.0,0.0,0.0,0.0,0.0,0.0,0.0,0.0,0.0,0.0,0.0,0.0,0.0,0.0,0.0,0.0,0.0,0.0,0.0,0.0,0.0,0.0,0.0,0.0,0.0,0.0,0.0,0.0,0.0,0.0,0.0,0.0,0.0,0.0,0.0,-2.1609,-2.232,-2.3207,-2.4194,-2.1861,-2.0586,0.0,0.0,0.0,0.0,0.0,0.0,0.0,0.0,0.0,0.0,0.0,0.0,0.0,0.0,0.0,0.0,0.0,0.0,0.0,0.0,0.0,0.0,0.0,0.0,0.0,0.0,0.0,0.0,0.0,0.0,0.0,0.0,0.0,0.0,0.0,0.0,0.0,0.0,0.0,0.0,0.0,0.0,0.0,0.0,0.0,0.0,0.0,0.0,0.0,0.0,0.0,0.0,0.0,0.0,0.0,0.0,0.0,0.0,0.0,0.0,0.0,0.0,0.0,0.0,0.0,0.0,0.0,0.0,0.0,0.0,0.0,0.0,0.0,0.0,0.0,0.0,0.0,0.0,0.0,0.0,0.0,0.0,0.0,0.0,0.0,0.0,0.0,0.0,0.0,0.0,0.0,0.0,0.0,0.0,0.0,0.0,0.0,0.0,0.0,0.0,0.0,0.0,0.0,0.0,0.0,0.0,0.0,0.0,0.0,-2.2713,-2.3499,-2.429,-2.4987,-2.2614,-2.1193,-2.0947,0.0,0.0,0.0,0.0,0.0,0.0,0.0,0.0,0.0,0.0,0.0,0.0,0.0,0.0,0.0,0.0,0.0,0.0,0.0,0.0,0.0,0.0,0.0,0.0,0.0,0.0,0.0,0.0,0.0,0.0,0.0,0.0,0.0,0.0,0.0,0.0,0.0,0.0,0.0,0.0,0.0,0.0,0.0,0.0,0.0,0.0,0.0,0.0,0.0,0.0,0.0,0.0,0.0,0.0,0.0,0.0,0.0,0.0,0.0,0.0,0.0,0.0,0.0,0.0,0.0,0.0,0.0,0.0,0.0,0.0,0.0,0.0,0.0,0.0,0.0,0.0,0.0,0.0,0.0,0.0,0.0,0.0,0.0,0.0,0.0,0.0,0.0,0.0,0.0,0.0,0.0,0.0,0.0,0.0,0.0,0.0,0.0,0.0,0.0,0.0,0.0,0.0,0.0,0.0,0.0,0.0,0.0,0.0,-2.4972,-2.6354,-2.6369,-2.4904,-2.4203,-2.2421,0.0,0.0,0.0,0.0,0.0,0.0,0.0,0.0,0.0,0.0,0.0,0.0,0.0,0.0,0.0,0.0,0.0,0.0,0.0,0.0,0.0,0.0,0.0,0.0,0.0,0.0,0.0,0.0,0.0,0.0,0.0,0.0,0.0,0.0,0.0,0.0,0.0,0.0,0.0,0.0,0.0,0.0,0.0,0.0,0.0,0.0,0.0,0.0,0.0,0.0,0.0,0.0,0.0,0.0,0.0,0.0,0.0,0.0,0.0,0.0,0.0,0.0,0.0,0.0,0.0,0.0,0.0,0.0,0.0,0.0,0.0,0.0,0.0,0.0,0.0,0.0,0.0,0.0,0.0,0.0,0.0,0.0,0.0,0.0,0.0,0.0,0.0,0.0,0.0,0.0,0.0,0.0,0.0,0.0,0.0,0.0,0.0,0.0,0.0,0.0,0.0,0.0,0.0,0.0,0.0,0.0,0.0,0.0,0.0,-2.6085,-2.817,-2.9051,-2.857,-2.5997,-2.4153,0.0,0.0,0.0,0.0,0.0,0.0,0.0,0.0,0.0,0.0,0.0,0.0,0.0,0.0,0.0,0.0,0.0,0.0,0.0,0.0,0.0,0.0,0.0,0.0,0.0,0.0,0.0,0.0,0.0,0.0,0.0,0.0,0.0,0.0,0.0,0.0,0.0,0.0,0.0,0.0,0.0,0.0,0.0,0.0,0.0,0.0,0.0,0.0,0.0,0.0,0.0,0.0,0.0,0.0,0.0,0.0,0.0,0.0,0.0,0.0,0.0,0.0,0.0,0.0,0.0,0.0,0.0,0.0,0.0,0.0,0.0,0.0,0.0,0.0,0.0,0.0,0.0,0.0,0.0,0.0,0.0,0.0,0.0,0.0,0.0,0.0,0.0,0.0,0.0,0.0,0.0,0.0,0.0,0.0,0.0,0.0,0.0,0.0,0.0,0.0,0.0,0.0,0.0,0.0,0.0,0.0,0.0,0.0,-2.5399,-2.781,-2.9991,-3.1216,-3.1432,-2.7941,-2.5524,0.0,0.0,0.0,0.0,0.0,0.0,0.0,0.0,0.0,0.0,0.0,0.0,0.0,0.0,0.0,0.0,0.0,0.0,0.0,0.0,0.0,0.0,0.0,0.0,0.0,0.0,0.0,0.0,0.0,0.0,0.0,0.0,0.0,0.0,0.0,0.0,0.0,0.0,0.0,0.0,0.0,0.0,0.0,0.0,0.0,0.0,0.0,0.0,0.0,0.0,0.0,0.0,0.0,0.0,0.0,0.0,0.0,0.0,0.0,0.0,0.0,0.0,0.0,0.0,0.0,0.0,0.0,0.0,0.0,0.0,0.0,0.0,0.0,0.0,0.0,0.0,0.0,0.0,0.0,0.0,0.0,0.0,0.0,0.0,0.0,0.0,0.0,0.0,0.0,0.0,0.0,0.0,0.0,0.0,0.0,0.0,0.0,0.0,0.0,0.0,0.0,0.0,0.0,0.0,0.0,0.0,0.0,0.0,-2.6701,-2.97,-3.1603,-3.2731,-3.3092,-2.9701,-2.6673,0.0,0.0,0.0,0.0,0.0,0.0,0.0,0.0,0.0,0.0,0.0,0.0,0.0,0.0,0.0,0.0,0.0,0.0,0.0,0.0,0.0,0.0,0.0,0.0,0.0,0.0,0.0,0.0,0.0,0.0,0.0,0.0,0.0,0.0,0.0,0.0,0.0,0.0,0.0,0.0,0.0,0.0,0.0,0.0,0.0,0.0,0.0,0.0,0.0,0.0,0.0,0.0,0.0,0.0,0.0,0.0,0.0,0.0,0.0,0.0,0.0,0.0,0.0,0.0,0.0,0.0,0.0,0.0,0.0,0.0,0.0,0.0,0.0,0.0,0.0,0.0,0.0,0.0,0.0,0.0,0.0,0.0,0.0,0.0,0.0,0.0,0.0,0.0,0.0,0.0,0.0,0.0,0.0,0.0,0.0,0.0,0.0,0.0,0.0,0.0,0.0,0.0,0.0,0.0,0.0,0.0,0.0,0.0,-2.7425,-3.0277,-3.177,-3.2563,-3.2659,-2.9928,-2.7718,0.0,0.0,0.0,0.0,0.0,0.0,0.0,0.0,0.0,0.0,0.0,0.0,0.0,0.0,0.0,0.0,0.0,0.0,0.0,0.0,0.0,0.0,0.0,0.0,0.0,0.0,0.0,0.0,0.0,0.0,0.0,0.0,0.0,0.0,0.0,0.0,0.0,0.0,0.0,0.0,0.0,0.0,0.0,0.0,0.0,0.0,0.0,0.0,-2.6306,0.0,0.0,0.0,0.0,0.0,0.0,0.0,0.0,0.0,0.0,0.0,0.0,0.0,0.0,0.0,0.0,0.0,0.0,0.0,0.0,0.0,0.0,0.0,0.0,0.0,0.0,0.0,0.0,0.0,0.0,0.0,0.0,0.0,0.0,0.0,0.0,0.0,0.0,0.0,0.0,0.0,0.0,0.0,0.0,0.0,0.0,0.0,0.0,0.0,0.0,0.0,0.0,0.0,0.0,0.0,0.0,0.0,0.0,0.0,-2.8264,-3.1709,-3.2352,-3.2913,-3.33,-3.0852,-2.8694,0.0,0.0,0.0,0.0,0.0,0.0,0.0,0.0,0.0,0.0,0.0,0.0,0.0,0.0,0.0,0.0,0.0,0.0,0.0,0.0,0.0,0.0,0.0,0.0,0.0,0.0,0.0,0.0,0.0,0.0,0.0,0.0,0.0,0.0,0.0,0.0,0.0,0.0,0.0,0.0,0.0,0.0,0.0,0.0,0.0,0.0,0.0,0.0,0.0,0.0,0.0,0.0,0.0,0.0,0.0,0.0,0.0,0.0,0.0,0.0,0.0,0.0,0.0,0.0,0.0,0.0,0.0,0.0,0.0,0.0,0.0,0.0,0.0,0.0,0.0,0.0,0.0,0.0,0.0,0.0,0.0,0.0,0.0,0.0,0.0,0.0,0.0,0.0,0.0,0.0,0.0,0.0,0.0,0.0,0.0,0.0,0.0,0.0,0.0,0.0,0.0,0.0,0.0,0.0,0.0,0.0,0.0,-2.6418,-2.9185,-3.331,-3.3179,-3.3417,-3.4265,-3.1933,-2.9659,-2.758,0.0,0.0,0.0,0.0,0.0,0.0,0.0,0.0,0.0,0.0,0.0,0.0,0.0,0.0,0.0,0.0,0.0,0.0,0.0,0.0,0.0,0.0,0.0,0.0,0.0,0.0,0.0,0.0,0.0,0.0,0.0,0.0,0.0,0.0,0.0,0.0,0.0,0.0,-2.0909,-2.2886,0.0,0.0,0.0,0.0,0.0,0.0,0.0,0.0,-2.4259,0.0,0.0,0.0,0.0,0.0,0.0,0.0,0.0,0.0,0.0,0.0,0.0,0.0,0.0,0.0,0.0,0.0,0.0,0.0,0.0,0.0,0.0,0.0,0.0,0.0,0.0,0.0,0.0,0.0,0.0,0.0,0.0,0.0,0.0,0.0,0.0,0.0,0.0,0.0,0.0,0.0,0.0,0.0,0.0,0.0,0.0,0.0,0.0,0.0,0.0,0.0,0.0,0.0,0.0,0.0,0.0,-2.7911,-2.7962,-3.0059,-3.4414,-3.4054,-3.3861,-3.4029,-3.2367,-3.0416,-2.8166,0.0,0.0,0.0,0.0,0.0,0.0,0.0,0.0,0.0,0.0,0.0,0.0,0.0,0.0,0.0,0.0,0.0,0.0,0.0,0.0,0.0,0.0,0.0,0.0,0.0,0.0,0.0,0.0,0.0,0.0,0.0,0.0,0.0,0.0,0.0,0.0,0.0,0.0,0.0,-2.3401,-2.3854,0.0,0.0,0.0,0.0,0.0,0.0,0.0,0.0,-2.3837,0.0,0.0,0.0,0.0,0.0,0.0,0.0,0.0,0.0,0.0,0.0,0.0,0.0,0.0,0.0,0.0,0.0,0.0,0.0,0.0,0.0,0.0,0.0,0.0,0.0,0.0,0.0,0.0,0.0,0.0,0.0,0.0,0.0,0.0,0.0,0.0,0.0,0.0,0.0,0.0,0.0,0.0,0.0,0.0,0.0,0.0,0.0,0.0,0.0,0.0,0.0,0.0,0.0,0.0,0.0,-2.7451,-2.9242,-3.1621,-3.4655,-3.4414,-3.4364,-3.4582,-3.2285,-3.0365,0.0,0.0,0.0,0.0,0.0,0.0,0.0,0.0,0.0,0.0,0.0,0.0,0.0,0.0,0.0,0.0,0.0,0.0,0.0,0.0,0.0,0.0,0.0,0.0,0.0,0.0,0.0,0.0,0.0,0.0,0.0,0.0,0.0,0.0,0.0,0.0,0.0,0.0,0.0,0.0,-2.4167,-2.467,-2.6116,0.0,0.0,0.0,0.0,0.0,0.0,-2.4867,-2.4187,0.0,0.0,0.0,0.0,0.0,0.0,0.0,0.0,0.0,0.0,0.0,0.0,0.0,0.0,0.0,0.0,0.0,0.0,0.0,0.0,0.0,0.0,0.0,0.0,0.0,0.0,0.0,0.0,0.0,0.0,0.0,0.0,0.0,0.0,0.0,0.0,0.0,0.0,0.0,0.0,0.0,0.0,0.0,0.0,0.0,0.0,0.0,0.0,0.0,0.0,0.0,0.0,0.0,0.0,0.0,-2.6491,-2.9801,-3.2485,-3.4387,-3.451,-3.4582,-3.4751,-3.1937,-2.9939,0.0,0.0,0.0,0.0,0.0,0.0,0.0,0.0,0.0,0.0,0.0,0.0,0.0,0.0,0.0,0.0,0.0,0.0,0.0,0.0,0.0,0.0,0.0,0.0,0.0,0.0,0.0,0.0,0.0,0.0,0.0,0.0,0.0,0.0,0.0,0.0,0.0,0.0,0.0,0.0,0.0,-2.5742,-2.6836,-2.5977,0.0,0.0,0.0,0.0,-2.6095,-2.5784,0.0,0.0,0.0,0.0,0.0,0.0,0.0,0.0,0.0,0.0,0.0,0.0,0.0,0.0,0.0,0.0,0.0,0.0,0.0,0.0,0.0,0.0,0.0,0.0,0.0,0.0,0.0,0.0,0.0,0.0,0.0,0.0,0.0,0.0,0.0,0.0,0.0,0.0,0.0,0.0,0.0,0.0,0.0,0.0,0.0,0.0,0.0,0.0,0.0,0.0,0.0,0.0,0.0,0.0,0.0,0.0,-2.5854,-2.8721,-3.1272,-3.3284,-3.4264,-3.4313,-3.3426,-3.1391,-2.9506,0.0,0.0,0.0,0.0,0.0,0.0,0.0,0.0,0.0,0.0,0.0,0.0,0.0,0.0,0.0,0.0,0.0,0.0,0.0,0.0,0.0,0.0,0.0,0.0,0.0,0.0,0.0,0.0,0.0,0.0,0.0,0.0,0.0,0.0,0.0,0.0,0.0,0.0,0.0,0.0,0.0,-2.6426,-2.6953,-2.623,-2.5713,0.0,0.0,-2.6867,-2.8829,-2.9055,0.0,0.0,0.0,0.0,0.0,0.0,0.0,0.0,0.0,0.0,0.0,0.0,0.0,0.0,0.0,0.0,0.0,0.0,0.0,0.0,0.0,0.0,0.0,0.0,0.0,0.0,0.0,0.0,0.0,0.0,0.0,0.0,0.0,0.0,0.0,0.0,0.0,0.0,0.0,0.0,0.0,0.0,0.0,0.0,0.0,0.0,0.0,0.0,0.0,0.0,0.0,0.0,0.0,0.0,0.0,-2.4067,-2.6196,-3.0512,-3.3195,-3.4068,-3.458,-3.458,-3.4115,-3.0809,-2.8514,0.0,0.0,0.0,0.0,0.0,0.0,0.0,0.0,0.0,0.0,0.0,0.0,0.0,0.0,0.0,0.0,0.0,0.0,0.0,0.0,0.0,0.0,0.0,0.0,0.0,0.0,0.0,0.0,0.0,0.0,0.0,0.0,0.0,0.0,0.0,0.0,0.0,0.0,0.0,0.0,0.0,0.0,-2.8047,-2.7773,0.0,0.0,0.0,-2.7891,-2.8086,0.0,0.0,0.0,0.0,0.0,0.0,0.0,0.0,0.0,0.0,0.0,0.0,0.0,0.0,0.0,0.0,0.0,0.0,0.0,0.0,0.0,0.0,0.0,0.0,0.0,0.0,0.0,0.0,0.0,0.0,0.0,0.0,0.0,0.0,0.0,0.0,0.0,0.0,0.0,0.0,0.0,0.0,0.0,0.0,0.0,0.0,0.0,0.0,0.0,0.0,0.0,0.0,0.0,0.0,0.0,0.0,0.0,-2.5675,-3.0853,-3.3598,-3.3598,-3.3869,-3.3869,-3.3479,-2.9966,0.0,0.0,0.0,0.0,0.0,0.0,0.0,0.0,0.0,0.0,0.0,0.0,0.0,0.0,0.0,0.0,0.0,0.0,0.0,0.0,0.0,0.0,0.0,0.0,0.0,0.0,0.0,-1.5566,0.0,0.0,0.0,0.0,0.0,0.0,0.0,0.0,0.0,0.0,0.0,0.0,0.0,0.0,-2.8594,-2.9023,-2.918,-2.9394,0.0,0.0,-2.9062,-2.8555,-3.0078,-3.0156,0.0,0.0,0.0,0.0,0.0,0.0,0.0,0.0,0.0,0.0,0.0,0.0,0.0,0.0,0.0,0.0,0.0,0.0,0.0,0.0,0.0,0.0,0.0,0.0,0.0,0.0,0.0,0.0,0.0,0.0,0.0,0.0,0.0,0.0,0.0,0.0,0.0,0.0,0.0,0.0,0.0,0.0,0.0,0.0,0.0,0.0,0.0,0.0,0.0,0.0,0.0,0.0,0.0,0.0,0.0,-2.3529,-2.7943,-3.0276,-3.0276,-3.1257,-3.1308,-3.0255,-2.8781,-2.6752,0.0,0.0,0.0,0.0,0.0,0.0,0.0,0.0,0.0,0.0,0.0,0.0,0.0,0.0,0.0,0.0,0.0,0.0,0.0,0.0,0.0,0.0,0.0,0.0,0.0,0.0,0.0,0.0,0.0,0.0,0.0,0.0,0.0,0.0,0.0,0.0,0.0,0.0,0.0,0.0,0.0,-2.9043,-2.9473,-2.9883,-3.0665,0.0,0.0,-3.0644,-3.2148,-3.3476,-3.2832,-2.8281,0.0,0.0,0.0,0.0,0.0,0.0,0.0,0.0,0.0,0.0,0.0,0.0,0.0,0.0,0.0,0.0,0.0,0.0,0.0,0.0,0.0,0.0,0.0,0.0,0.0,0.0,0.0,0.0,0.0,0.0,0.0,0.0,0.0,0.0,0.0,0.0,0.0,0.0,0.0,0.0,0.0,0.0,0.0,0.0,0.0,0.0,0.0,0.0,0.0,0.0,0.0,0.0,0.0,-2.3309,-2.4229,-2.8655,-3.0949,-3.0949,-3.1381,-3.1359,-3.097,-2.8782,-2.6539,0.0,0.0,0.0,0.0,0.0,0.0,0.0,0.0,0.0,0.0,0.0,0.0,0.0,0.0,0.0,0.0,0.0,0.0,0.0,0.0,0.0,0.0,0.0,0.0,0.0,0.0,0.0,0.0,-1.8809,-1.9297,-1.9377,0.0,0.0,0.0,0.0,0.0,0.0,0.0,0.0,0.0,0.0,-2.9766,-3.0996,-3.1543,0.0,0.0,-3.2617,-3.2129,-3.2031,-3.2422,-3.1504,-2.7851,-2.6582,0.0,0.0,0.0,0.0,0.0,0.0,0.0,0.0,0.0,0.0,0.0,0.0,0.0,0.0,0.0,0.0,0.0,0.0,0.0,0.0,0.0,0.0,0.0,0.0,0.0,0.0,0.0,0.0,0.0,0.0,0.0,0.0,0.0,0.0,0.0,0.0,0.0,0.0,0.0,0.0,0.0,0.0,0.0,0.0,0.0,0.0,0.0,0.0,0.0,0.0,0.0,0.0,-2.3577,-2.4684,-2.8607,-3.0672,-3.0799,-3.0672,-3.0608,-3.0566,-2.8421,-2.6387,0.0,0.0,0.0,0.0,0.0,0.0,0.0,0.0,0.0,0.0,0.0,0.0,0.0,0.0,0.0,0.0,0.0,0.0,0.0,0.0,0.0,0.0,0.0,0.0,0.0,0.0,0.0,0.0,-2.0274,-2.045,-1.9592,0.0,0.0,0.0,0.0,0.0,0.0,0.0,0.0,0.0,0.0,-3.0742,-3.1836,-3.2344,-3.2754,-3.3184,-3.2793,-3.2226,-3.1601,-3.1523,-3.0625,-2.8008,0.0,0.0,0.0,0.0,0.0,0.0,0.0,0.0,0.0,0.0,0.0,0.0,0.0,0.0,0.0,0.0,0.0,0.0,0.0,0.0,0.0,0.0,0.0,0.0,0.0,0.0,0.0,0.0,0.0,0.0,-1.541,0.0,0.0,0.0,0.0,0.0,0.0,0.0,0.0,0.0,0.0,0.0,0.0,0.0,0.0,0.0,0.0,0.0,0.0,0.0,0.0,0.0,0.0,-2.2738,-2.4421,-2.7106,-2.8584,-2.8976,-2.8604,-2.8388,-2.8368,-2.7493,-2.6202,-2.4421,0.0,0.0,0.0,0.0,0.0,0.0,0.0,0.0,0.0,0.0,0.0,0.0,0.0,0.0,0.0,0.0,0.0,0.0,0.0,0.0,0.0,0.0,0.0,0.0,0.0,0.0,-1.8695,-1.9434,-1.9572,0.0,0.0,0.0,0.0,0.0,0.0,0.0,0.0,0.0,0.0,-2.9744,-3.1953,-3.1582,-3.1914,-3.2383,-3.2793,-3.1426,-3.0605,-3.1406,-3.1484,-3.0918,0.0,0.0,0.0,0.0,0.0,0.0,0.0,0.0,0.0,0.0,0.0,0.0,0.0,0.0,0.0,0.0,0.0,0.0,0.0,0.0,0.0,0.0,0.0,0.0,0.0,0.0,0.0,-1.7929,-1.7264,0.0,0.0,0.0,0.0,0.0,0.0,0.0,0.0,0.0,0.0,0.0,-2.1035,-2.1602,0.0,0.0,0.0,0.0,0.0,0.0,0.0,0.0,0.0,0.0,0.0,0.0,-2.2715,-2.4434,-2.6973,-2.8496,-2.8852,-2.8516,-2.8301,-2.8281,-2.7754,-2.628,-2.3742,0.0,0.0,0.0,0.0,0.0,0.0,0.0,0.0,0.0,0.0,0.0,0.0,0.0,0.0,0.0,0.0,0.0,0.0,0.0,0.0,0.0,0.0,0.0,0.0,0.0,-1.9455,0.0,0.0,0.0,0.0,0.0,0.0,0.0,0.0,0.0,0.0,0.0,-2.6094,-2.8223,-2.9629,-3.0703,-3.1406,-3.2129,-3.2832,0.0,0.0,0.0,0.0,0.0,0.0,0.0,0.0,0.0,0.0,0.0,0.0,0.0,0.0,-2.9986,-2.7104,-2.6797,-2.7207,-2.7982,0.0,0.0,0.0,0.0,0.0,0.0,0.0,0.0,0.0,0.0,0.0,0.0,0.0,0.0,-1.9043,0.0,-1.8242,0.0,0.0,0.0,0.0,0.0,0.0,0.0,0.0,-2.209,-2.3086,-2.3262,-2.3744,-2.3705,0.0,-2.2773,-2.1328,0.0,0.0,0.0,0.0,0.0,0.0,0.0,0.0,-2.3008,-2.4836,-2.7129,-2.8496,-2.8887,-2.8516,-2.8301,-2.8281,-2.7943,-2.6573,-2.4212,-2.2529,-2.0742,0.0,0.0,0.0,0.0,0.0,0.0,0.0,0.0,0.0,0.0,0.0,0.0,0.0,0.0,0.0,0.0,0.0,0.0,0.0,0.0,0.0,0.0,0.0,-2.043,0.0,0.0,0.0,0.0,0.0,0.0,0.0,0.0,0.0,-2.5273,-2.6348,-2.7851,-2.9961,-3.0625,-3.0957,-3.1035,0.0,0.0,0.0,0.0,0.0,0.0,0.0,-2.9288,-2.9466,-2.9275,-2.9467,-3.0547,-3.1692,-3.2365,-3.2213,0.0,0.0,-2.9872,-2.9506,-2.9911,-3.0585,-3.107,-3.1519,-3.1947,-3.2552,-3.2801,0.0,0.0,0.0,0.0,0.0,0.0,0.0,0.0,-2.0254,-2.0527,0.0,-1.998,0.0,0.0,0.0,0.0,0.0,-2.0879,0.0,0.0,-2.5137,-2.6172,-2.5732,-2.5752,-2.5752,-2.5713,-2.5332,-2.4519,-2.3227,-2.1152,0.0,0.0,0.0,0.0,0.0,0.0,-2.3613,-2.5693,-2.7441,-2.8496,-2.8887,-2.8516,-2.8301,-2.8281,-2.7943,-2.707,-2.5791,-2.4922,-2.3432,-2.1346,-1.965,0.0,0.0,0.0,0.0,0.0,0.0,0.0,0.0,0.0,0.0,0.0,0.0,0.0,0.0,0.0,0.0,0.0,0.0,0.0,0.0,-2.0703,0.0,0.0,0.0,0.0,0.0,0.0,0.0,0.0,0.0,0.0,-2.7097,-2.8516,-3.0019,-3.1269,0.0,0.0,0.0,0.0,-3.2146,-3.0567,-3.0,-2.9964,-3.0527,-3.0775,-3.1073,-3.1621,0.0,0.0,-3.3162,-3.3067,-3.2964,-3.2531,-3.4169,-3.5035,-3.3811,-3.2954,-3.2615,-3.2992,-3.3451,-3.3762,-3.423,-3.523,-3.6025,-2.4488,0.0,0.0,0.0,0.0,-2.1963,-2.2187,-2.2871,-2.3066,-2.2711,-2.2148,-2.209,0.0,0.0,0.0,0.0,0.0,0.0,-2.3047,-2.4421,-2.5762,-2.6641,-2.7109,-2.7422,-2.7402,-2.7109,-2.7024,-2.6562,-2.5898,-2.498,-2.2695,-1.916,0.0,0.0,0.0,0.0,-2.4492,-2.6562,-2.7734,-2.8496,-2.8926,-2.8516,-2.8301,-2.8301,-2.7943,-2.7552,-2.7129,-2.6289,-2.4961,-2.3125,-2.1992,0.0,0.0,0.0,0.0,0.0,0.0,0.0,0.0,0.0,0.0,0.0,0.0,0.0,0.0,0.0,0.0,0.0,0.0,0.0,-2.0703,-2.1367,-2.1621,0.0,0.0,0.0,0.0,0.0,0.0,0.0,0.0,0.0,-2.9374,-2.9271,-2.9417,0.0,0.0,-2.9602,-2.8762,-3.0329,-3.1646,-3.1741,-3.1851,0.0,-3.2979,-3.2137,-3.1772,-3.2803,-3.4456,-3.5571,-3.5628,-3.5905,-3.6139,-3.6288,-3.6608,-3.6663,-3.6405,-3.6045,-3.5991,-3.6421,-3.666,-3.6812,-3.7229,-3.7881,-3.8236,-2.6202,-2.5077,-2.4179,-2.3974,-2.4331,-2.3969,-2.4277,-2.5059,-2.4933,-2.4785,-2.4512,-2.4147,-2.3384,-2.2366,-2.1681,0.0,0.0,0.0,-2.4453,-2.6163,-2.666,-2.7246,-2.791,-2.8164,-2.8164,-2.7982,-2.7963,-2.7851,-2.7701,-2.6992,-2.5117,-2.2168,0.0,0.0,-2.2129,-2.373,-2.5323,-2.6973,-2.7851,-2.8418,-2.8652,-2.8418,-2.8301,-2.8281,-2.81,-2.7963,-2.791,-2.7266,-2.6328,-2.5117,-2.3926,-2.2012,0.0,0.0,0.0,0.0,0.0,0.0,0.0,0.0,0.0,0.0,0.0,-1.8379,-1.6602,0.0,0.0,0.0,-2.0332,-2.1543,-2.2656,-2.2722,0.0,0.0,0.0,0.0,0.0,0.0,0.0,-2.7245,-2.886,-3.0194,-3.0888,-3.0252,-3.0122,-3.1191,-3.0711,-3.0155,-2.9731,0.0,-3.2471,-3.2792,-3.2992,-3.3378,-3.4101,-3.3508,-3.3311,-3.4389,-3.5526,-3.6438,-3.6718,-3.7072,-3.7553,-3.7847,-3.7822,-3.7704,-3.7869,-3.781,-3.7782,-3.7764,-3.8027,-3.8424,-3.8761,-3.9277,-3.9816,-2.7806,-2.7728,-2.6104,-2.5566,-2.583,-2.5869,-2.6317,-2.6992,-2.622,-2.6562,-2.7532,-2.6026,-2.5302,-2.5117,-2.3574,0.0,-2.5321,-2.5321,-2.6152,-2.7767,-2.7715,-2.791,-2.8281,-2.8301,-2.8301,-2.8301,-2.832,-2.8516,-2.8789,-2.7715,-2.6934,-2.6465,-2.5273,-2.4609,-2.4512,-2.5304,-2.6161,-2.7051,-2.7832,-2.8262,-2.8281,-2.8301,-2.8281,-2.8242,-2.8281,-2.8262,-2.8184,-2.7891,-2.75,-2.6992,-2.5449,-2.3809,-2.209,0.0,0.0,0.0,0.0,0.0,0.0,0.0,0.0,0.0,0.0,0.0,0.0,0.0,0.0,0.0,-2.3144,0.0,-2.5243,-2.4619,0.0,0.0,0.0,-2.4994,-2.6607,-2.7933,-2.9107,-3.0176,0.0,0.0,-3.1684,-3.152,-3.1917,-3.352,-3.3237,-3.2792,-3.2369,-3.3284,-3.4037,-3.3613,-3.365,-3.3921,-3.4487,-3.4715,-3.5182,-3.5944,-3.6586,-3.6787,-3.6916,-3.7191,-3.7594,-3.7998,-3.8071,-3.8163,-3.8566,-3.8585,-3.8456,-3.7723,-3.8198,-3.8881,-3.9272,-3.9945,-4.0664,-2.8535,-2.9043,-2.832,-2.7695,-2.7297,-2.7559,-2.7617,-2.7519,-2.7637,-2.75,-2.7168,-2.709,-2.6855,-2.6523,-2.6113,-2.6348,-2.7102,-2.7102,-2.7493,-2.8125,-2.8144,-2.8203,-2.8301,-2.8301,-2.8301,-2.832,-2.8613,-2.8652,-2.8457,-2.8457,-2.8086,-2.7383,-2.7051,-2.623,-2.5047,-2.5781,-2.666,-2.75,-2.7767,-2.7969,-2.8281,-2.8301,-2.8144,-2.7885,-2.8125,-2.7988,-2.7363,-2.7851,-2.7793,-2.7051,-2.6309,-2.5137,-2.3418,-2.0566,0.0,0.0,0.0,0.0,0.0,0.0,0.0,0.0,0.0,-2.0644,-1.7754,0.0,-2.2405,0.0,-2.3945,-2.5762,-2.6914,-2.6357,0.0,0.0,-2.7119,-2.7283,-2.9421,-2.9841,-3.0055,-3.018,-3.1388,-3.2227,-3.2374,-3.2813,-3.3446,-3.45,-3.3155,-3.205,-3.2097,-3.336,-3.4301,-3.4264,-3.491,-3.563,-3.5686,-3.5852,-3.6054,-3.6586,-3.6787,-3.7026,-3.7631,-3.7814,-3.7998,-3.8401,-3.8493,-3.8451,-3.856,-3.8878,-3.8945,-3.8841,-3.8958,-3.924,-3.9708,-4.0198,-4.0615,-2.8965,-2.9607,-2.9316,-2.8828,-2.8242,-2.8476,-2.8437,-2.8223,-2.8119,-2.7851,-2.7598,-2.7832,-2.7812,-2.7578,-2.7383,-2.7539,-2.791,-2.7806,-2.7943,-2.8281,-2.8301,-2.8301,-2.8301,-2.8301,-2.8301,-2.8301,-2.8535,-2.8613,-2.8574,-2.8613,-2.8496,-2.8223,-2.8027,-2.7415,-2.6339,-2.6523,-2.6914,-2.7363,-2.763,-2.7871,-2.8262,-2.8105,-2.7812,-2.7402,-2.7422,-2.7129,-2.6415,-2.6914,-2.6934,-2.6465,-2.6035,-2.5273,-2.4102,-2.1777,-2.0059,0.0,0.0,0.0,0.0,0.0,0.0,0.0,0.0,0.0,0.0,0.0,-2.3919,-2.3706,-2.5536,-2.7199,-2.8257,-2.8005,-2.8389,-2.9844,-2.9456,-2.98,-3.1593,-3.1736,-3.181,-3.206,-3.2818,-3.3342,-3.3376,-3.39,-3.4541,-3.5174,-3.4268,-3.3495,-3.3615,-3.4422,-3.499,-3.521,-3.5779,-3.6201,-3.6201,-3.6366,-3.6567,-3.6806,-3.7136,-3.7521,-3.7943,-3.8181,-3.8365,-3.8505,-3.864,-3.8634,-3.8798,-3.8338,-3.8085,-3.8341,-3.7835,-3.8088,-3.9723,-4.0372,-4.0637,-2.9121,-2.9607,-2.9512,-2.9297,-2.9004,-2.8945,-2.8867,-2.8711,-2.793,-2.7812,-2.8223,-2.8262,-2.8301,-2.8262,-2.791,-2.7949,-2.8262,-2.7963,-2.7949,-2.8281,-2.8301,-2.8301,-2.8301,-2.8301,-2.8301,-2.8301,-2.834,-2.8535,-2.8828,-2.8516,-2.8496,-2.873,-2.8398,-2.8008,-2.7578,-2.7207,-2.7012,-2.7031,-2.7441,-2.7832,-2.8184,-2.7793,-2.7344,-2.6875,-2.6543,-2.6133,-2.5557,-2.5635,-2.5674,-2.5596,-2.5293,-2.4961,-2.4648,-2.3008,-2.1799,0.0,-1.9901,0.0,0.0,0.0,0.0,0.0,0.0,0.0,0.0,-2.4972,-2.5829,-2.627,-2.7514,-2.8616,-2.9485,-2.968,-3.0246,-3.128,-3.157,-3.204,-3.3129,-3.3323,-3.3642,-3.4338,-3.4449,-3.4495,-3.455,-3.488,-3.5247,-3.5614,-3.5595,-3.5467,-3.5632,-3.5632,-3.5779,-3.6164,-3.6201,-3.6237,-3.6402,-3.6641,-3.6861,-3.7026,-3.7521,-3.8016,-3.8089,-3.8383,-3.864,-3.856,-3.8377,-3.8362,-3.8769,-3.766,-3.697,-3.7619,-3.6929,-3.6996,-3.8989,-3.9862,-4.0472,-2.8867,-2.9587,-2.918,-2.9199,-2.9414,-2.9062,-2.8535,-2.7871,-2.7344,-2.7383,-2.7865,-2.8144,-2.8301,-2.8281,-2.8203,-2.8223,-2.8281,-2.8203,-2.8223,-2.8301,-2.8301,-2.8301,-2.8301,-2.8301,-2.8301,-2.832,-2.8633,-2.8672,-2.8418,-2.8672,-2.8496,-2.791,-2.7865,-2.7559,-2.7148,0.0,0.0,0.0,-2.7441,-2.7767,-2.7826,-2.7363,-2.6777,-2.5966,-2.625,0.0,-2.4766,-2.5304,-2.5566,-2.5215,-2.5117,0.0,0.0,0.0,0.0,0.0,0.0,0.0,0.0,0.0,0.0,0.0,-2.6671,-2.623,-2.546,-2.7162,-2.8397,-2.8558,-2.9447,-3.0294,-3.1186,-3.1626,-3.2106,-3.2664,-3.2825,-3.3065,-3.361,-3.3996,-3.422,-3.4364,-3.466,-3.5027,-3.532,-3.5467,-3.565,-3.5999,-3.6091,-3.6109,-3.6072,-3.6072,-3.6109,-3.6201,-3.6219,-3.6476,-3.7099,-3.6989,-3.7118,-3.7613,-3.7869,-3.8066,-3.828,-3.8408,-3.856,-3.842,-3.7694,-3.6916,-3.7037,-3.7239,-3.7333,-3.7672,-3.8726,-3.9208,-3.7039,-3.7656,-3.8885,-2.8984,0.0,-2.9101,-2.8926,0.0,-2.8691,-2.8125,-2.7363,-2.7559,-2.7773,-2.7988,-2.8203,-2.8301,-2.8281,-2.8066,-2.7988,-2.7969,-2.7754,-2.7891,-2.8281,-2.8301,-2.8516,-2.8926,-2.8926,-2.898,-2.8926,-2.9141,-2.9141,-2.8945,-2.9141,-2.9023,-2.8648,-2.8398,-2.8184,-2.7969,-2.7754,-2.7539,-2.7344,-2.7611,-2.7773,-2.7949,-2.7559,-2.7031,-2.6356,-2.6367,0.0,0.0,0.0,0.0,0.0,0.0,0.0,0.0,0.0,0.0,-2.5644,-2.5293,-2.5352,-2.5977,-2.6797,-2.7826,-2.8848,-2.9733,-2.956,-2.782,-2.9163,-3.0227,-3.0489,-3.0922,-3.1548,-3.2367,-3.2699,-3.3021,-3.336,-3.3463,-3.367,-3.4037,-3.4275,-3.4477,-3.4715,-3.5082,-3.5412,-3.5595,-3.5815,-3.5962,-3.6164,-3.6201,-3.6201,-3.6201,-3.6201,-3.6201,-3.6219,-3.6604,-3.6861,-3.7099,-3.7374,-3.7503,-3.7865,-3.7438,-3.7161,-3.7277,-3.6592,-3.6063,-3.617,-3.5622,-3.551,-3.6758,-3.6694,-3.6385,-3.6481,-3.6748,-3.6518,-3.4607,-3.7052,-3.9756,-2.9023,-2.9316,-2.8965,-2.8652,-2.8398,-2.8398,-2.8047,-2.75,0.0,0.0,0.0,-2.8262,-2.834,-2.8379,-2.8047,-2.7982,-2.8022,-2.7637,-2.7851,-2.8516,-2.8516,-2.8887,-2.9607,-2.957,-2.957,-2.957,-2.957,-2.957,-2.957,-2.957,-2.957,-2.9531,-2.9219,-2.9023,-2.9004,-2.8691,-2.8359,-2.8061,-2.7826,-2.7832,-2.8164,-2.7773,-2.7344,-2.6914,-2.6641,-2.6289,-2.5879,-2.581,-2.5791,-2.581,-2.5859,-2.6094,-2.6582,-2.6758,-2.7051,-2.7559,-2.8066,-2.8496,-2.8848,-2.9668,-3.0351,-3.0781,-3.2088,-3.2133,-3.0195,-3.1001,-3.1671,-3.2032,-3.2114,-3.2496,-3.3156,-3.3285,-3.3486,-3.3872,-3.3908,-3.4073,-3.4458,-3.4587,-3.4788,-3.51,-3.5485,-3.5724,-3.5742,-3.5999,-3.6201,-3.6201,-3.6201,-3.6256,-3.6292,-3.6274,-3.6311,-3.6622,-3.6971,-3.7209,-3.7319,-3.7576,-3.7938,-3.7559,-3.6702,-3.5977,-3.543,-3.4376,-3.3606,-3.4074,-3.3604,-3.4355,-3.6001,-3.5446,-3.4643,-3.4996,-3.4345,-3.3659,-3.4082,-3.7569,-4.0705,-2.8418,-2.8457,-2.8398,-2.8555,-2.8828,-2.8828,-2.8984,-2.9121,-2.8184,-2.7754,-2.7773,-2.8125,-2.8496,-2.8828,-2.8769,-2.8945,-2.9352,-2.9238,-2.9277,-2.9394,-2.945,-2.9509,-2.957,-2.957,-2.957,-2.957,-2.957,-2.957,-2.957,-2.9646,-2.957,-2.957,-2.9512,-2.9528,-2.9473,-2.947,-2.9411,-2.9333,-2.8276,-2.7748,-2.7787,-2.7324,-2.6914,-2.6523,-2.6797,-2.6719,-2.6328,-2.6328,-2.6289,-2.6309,-2.6289,-2.666,-2.7493,-2.8184,-2.8906,-2.9707,-3.0508,-3.0996,-3.1074,-3.1855,-3.2552,-3.2975,-3.3039,-3.2603,-3.172,-3.2702,-3.3166,-3.2629,-3.279,-3.3083,-3.323,-3.3523,-3.389,-3.4238,-3.433,-3.4495,-3.4899,-3.521,-3.543,-3.5522,-3.5889,-3.6109,-3.6091,-3.6164,-3.6201,-3.6201,-3.6256,-3.6347,-3.6641,-3.6421,-3.6677,-3.7393,-3.7264,-3.7393,-3.7979,-3.8108,-3.771,-3.6452,-3.6184,-3.5349,-3.4213,-3.3413,-3.316,-3.3609,-3.2662,-3.2398,-3.303,-3.3054,-3.3115,-3.338,-3.4869,-3.6707,-3.6794,-3.9228,-4.062,-2.8984,-2.8984,-2.8984,-2.9082,-2.9277,-2.9277,-2.9375,-2.9512,-2.9019,-2.8691,-2.8765,-2.8906,-2.9101,-2.9238,-2.9023,-2.9023,-2.9199,-2.8984,-2.9176,-2.9607,-2.957,-2.9824,-3.0254,-3.0293,-3.0293,-3.0293,-3.0293,-3.0293,-3.0273,-3.0293,-3.0293,-3.0273,-3.0039,-2.9785,-2.959,-2.957,-2.957,-2.9551,-2.9004,-2.8746,-2.8765,-2.8496,-2.832,-2.8178,-2.832,-2.832,-2.8125,-2.8178,-2.8105,-2.8125,-2.8105,-2.8516,-2.9375,-2.9785,-3.0371,-3.1211,-3.1855,-3.2207,-3.2207,-3.282,-3.3303,-3.3574,-3.3445,-3.3188,-3.267,-3.3304,-3.3477,-3.2973,-3.3303,-3.3541,-3.356,-3.3908,-3.422,-3.4385,-3.4605,-3.4899,-3.5284,-3.5485,-3.5705,-3.5907,-3.6091,-3.6201,-3.6201,-3.6201,-3.6201,-3.6219,-3.6384,-3.6769,-3.7356,-3.7136,-3.7044,-3.7576,-3.7741,-3.7924,-3.8273,-3.8365,-3.8025,-3.7454,-3.577,-3.4457,-3.3331,-3.2205,-3.1084,-3.1121,-3.0765,-3.1076,-3.2062,-3.2573,-3.2676,-3.2867,-3.3834,-3.5391,-3.6621,-3.8972,-4.062,-2.957,-2.957,-2.957,-2.9629,-2.9726,-2.9824,-2.9863,-2.992,-2.9863,-2.9863,-2.9844,-2.9668,-2.9629,-2.9668,-2.9355,-2.9277,-2.9316,-2.9023,-2.9238,-2.9824,-2.9863,-3.0234,-3.084,-3.0898,-3.0898,-3.0898,-3.0898,-3.0898,-3.0898,-3.0898,-3.0898,-3.0859,-3.0527,-3.0176,-2.9939,-2.9863,-2.9863,-2.9863,-2.9863,-2.9822,-2.9646,-2.957,-2.957,-2.957,-2.9648,-2.9707,-2.9763,-2.9707,-2.9763,-2.9726,-2.9805,-3.0176,-3.084,-3.1172,-3.1621,-3.2266,-3.2793,-3.3062,-3.3136,-3.3315,-3.3481,-3.37,-3.3636,-3.3521,-3.3408,-3.3545,-3.3632,-3.3395,-3.3615,-3.3835,-3.3945,-3.4202,-3.4458,-3.466,-3.4954,-3.532,-3.5687,-3.5742,-3.5852,-3.6146,-3.6201,-3.6201,-3.6201,-3.6201,-3.6256,-3.6402,-3.6714,-3.7246,-3.7814,-3.7796,-3.7723,-3.7796,-3.8181,-3.8365,-3.8181,-3.842,-3.8188,-3.7729,-3.5268,-3.3608,-3.2618,-3.0465,-2.9412,-2.98,-2.9737,-3.0497,-3.2162,-3.269,-3.2955,-3.3307,-3.4257,-3.5059,-3.7052,-3.9143,-4.0976,-2.9646,-2.957,-2.9665,-2.9785,-3.0176,-3.0566,-3.0742,-3.0742,-3.0762,-3.0762,-3.0644,-2.9922,-2.9805,-3.0098,-3.0098,-3.0293,-3.0644,-3.0664,-3.0664,-3.0723,-3.0762,-3.082,-3.0898,-3.0898,-3.0898,-3.0898,-3.0898,-3.0898,-3.0898,-3.0898,-3.0898,-3.0898,-3.084,-3.0781,-3.0762,-3.0742,-3.0762,-3.0762,-3.0781,-3.0391,-2.9685,-2.957,-2.957,-2.957,-2.9961,-3.0137,-3.0195,-3.0137,-3.0156,-3.0176,-3.0566,-3.0801,-3.1016,-3.1973,-3.2656,-3.2773,-3.3496,-3.3992,-3.4054,-3.3492,-3.33,-3.3643,-3.3465,-3.3395,-3.3707,-3.3762,-3.3762,-3.3762,-3.3798,-3.3982,-3.4293,-3.4403,-3.4733,-3.5339,-3.5504,-3.5724,-3.6036,-3.6146,-3.6164,-3.6182,-3.6201,-3.6201,-3.6201,-3.6237,-3.6402,-3.6806,-3.7136,-3.7539,-3.7998,-3.8273,-3.8322,-3.8401,-3.8346,-3.8273,-3.8456,-3.8603,-3.749,-3.4944,-3.3822,-3.3046,-3.2016,-3.0609,-2.9267,-3.1382,-3.0839,-3.1007,-3.2147,-3.2778,-3.338,-3.471,-3.6102,-3.8118,-3.9925,-4.0807,-4.106,-3.0351,-3.0351,-3.0351,-3.0449,-3.0625,-3.082,-3.0898,-3.0898,-3.0898,-3.0898,-3.0859,-3.0508,-3.0449,-3.0625,-3.0859,-3.0957,-3.0918,-3.1152,-3.1113,-3.0918,-3.0898,-3.0898,-3.0898,-3.0898,-3.0898,-3.0898,-3.0898,-3.0898,-3.0898,-3.0898,-3.0898,-3.0898,-3.0898,-3.0898,-3.0898,-3.0898,-3.0898,-3.0898,-3.0898,-3.082,-3.0723,-3.0469,-3.0469,-3.0703,-3.0898,-3.1113,-3.1328,-3.1367,-3.1367,-3.1367,-3.1543,-3.1758,-3.2012,-3.2519,-3.3027,-3.3516,-3.4101,-3.4517,-3.4547,-3.4098,-3.3883,-3.4091,-3.3785,-3.3651,-3.3798,-3.4018,-3.4165,-3.4165,-3.4165,-3.4238,-3.4422,-3.4825,-3.5265,-3.5595,-3.5815,-3.6036,-3.6182,-3.6201,-3.6201,-3.6201,-3.6201,-3.6201,-3.6237,-3.6421,-3.6842,-3.7374,-3.7686,-3.7906,-3.831,-3.853,-3.8621,-3.8621,-3.8475,-3.8456,-3.8524,-3.864,-3.741,-3.5561,-3.4146,-3.3297,-3.2837,-3.1807,-3.1527,-3.3492,-3.2964,-3.2865,-3.4226,-3.4345,-3.4694,-3.6015,-3.6983,-3.8546,-3.9313,-4.0367,-4.0976,-3.0898,-3.0898,-3.0898,-3.0898,-3.0898,-3.0898,-3.0898,-3.0898,-3.0898,-3.0898,-3.0898,-3.0898,-3.0898,-3.0937,-3.1211,-3.1172,-3.0957,-3.1211,-3.1191,-3.0918,-3.0898,-3.0898,-3.0898,-3.0898,-3.0898,-3.0898,-3.0898,-3.0898,-3.0898,-3.0898,-3.0898,-3.0898,-3.0898,-3.0898,-3.0898,-3.0898,-3.0898,-3.0898,-3.0996,-3.1211,-3.1445,-3.1348,-3.1387,-3.166,-3.1699,-3.1836,-3.2148,-3.2229,-3.2229,-3.2229,-3.2266,-3.248,-3.2773,-3.3008,-3.3535,-3.4336,-3.4641,-3.4746,-3.4854,-3.4554,-3.4327,-3.4195,-3.4029,-3.3982,-3.4037,-3.433,-3.455,-3.4587,-3.466,-3.4752,-3.4807,-3.5265,-3.5632,-3.5779,-3.6054,-3.6201,-3.6201,-3.6201,-3.6201,-3.6201,-3.6201,-3.6256,-3.6402,-3.6675,-3.7246,-3.7814,-3.7998,-3.8163,-3.853,-3.856,-3.864,-3.864,-3.856,-3.8383,-3.8066,-3.7729,-3.701,-3.5209,-3.3431,-3.3035,-3.3274,-3.239,-3.2208,-3.2907,-3.415,-3.5114,-3.5217,-3.5478,-3.6448,-3.7155,-3.8152,-3.9145,-3.9604,-4.0439,-4.1001,-3.0898,-3.0898,-3.0898,-3.0898,-3.0898,-3.0898,-3.0898,-3.0898,-3.0898,-3.0898,-3.0898,-3.0898,-3.0898,-3.0898,-3.0976,-3.0937,-3.0898,-3.0957,-3.0957,-3.0898,-3.0898,-3.0898,-3.0898,-3.0898,-3.0918,-3.0996,-3.1016,-3.0976,-3.0957,-3.0937,-3.0898,-3.0918,-3.0976,-3.0937,-3.0957,-3.0976,-3.0918,-3.1016,-3.1328,-3.1523,-3.1601,-3.1914,-3.209,-3.2229,-3.2148,-3.2168,-3.2207,-3.2187,-3.2187,-3.2187,-3.2559,-3.2793,-3.2871,-3.3574,-3.4414,-3.5109,-3.4998,-3.4854,-3.4789,-3.4609,-3.4301,-3.3959,-3.4183,-3.4367,-3.4403,-3.477,-3.499,-3.4937,-3.532,-3.5522,-3.5522,-3.5614,-3.5797,-3.6091,-3.6164,-3.6201,-3.6201,-3.6201,-3.6201,-3.6201,-3.6237,-3.6457,-3.6712,-3.7154,-3.7558,-3.7924,-3.8034,-3.8181,-3.853,-3.864,-3.864,-3.856,-3.8402,-3.7986,-3.6494,-3.6581,-3.5079,-3.3182,-3.238,-3.173,-3.1469,-3.1305,-3.1725,-3.228,-3.3247,-3.4345,-3.5478,-3.6794,-3.8289,-3.9298,-4.009,-4.0826,-4.0462,-4.1123,-4.1519,-3.1133,-3.0898,-3.0898,-3.0898,-3.0898,-3.0898,-3.0898,-3.0898,-3.0898,-3.0898,-3.0898,-3.0898,-3.0898,-3.0918,-3.1172,-3.1133,-3.0937,-3.1152,-3.1152,-3.0918,-3.0898,-3.1035,-3.1269,-3.1289,-3.1465,-3.168,-3.1719,-3.1719,-3.1759,-3.1699,-3.1759,-3.1699,-3.1699,-3.1699,-3.1699,-3.1719,-3.1699,-3.1719,-3.1875,-3.2051,-3.2305,-3.248,-3.2695,-3.2949,-3.2695,-3.2695,-3.2969,-3.2969,-3.2969,-3.2969,-3.3125,-3.332,-3.3652,-3.4434,-3.4906,-3.5017,-3.5172,-3.5043,-3.4646,-3.4682,-3.4622,-3.429,-3.4568,-3.4807,-3.4862,-3.5174,-3.5412,-3.5467,-3.576,-3.5981,-3.5999,-3.5999,-3.6054,-3.6164,-3.6201,-3.6201,-3.6201,-3.6201,-3.6201,-3.6237,-3.6439,-3.6861,-3.7393,-3.7704,-3.7961,-3.8328,-3.8341,-3.8396,-3.8505,-3.856,-3.8481,-3.8304,-3.7649,-3.642,-3.4867,-3.5719,-3.541,-3.293,-3.1534,-3.1827,-3.1772,-3.1725,-3.2162,-3.3057,-3.3644,-3.417,-3.5565,-3.6983,-3.8716,-3.9195,-4.0175,-4.1482,-4.1445,-4.1647,-4.1776,-3.1152,-3.0918,-3.0898,-3.0898,-3.0898,-3.0898,-3.0898,-3.0898,-3.0898,-3.0898,-3.0918,-3.1035,-3.1094,-3.1172,-3.1543,-3.1582,-3.1348,-3.1601,-3.1582,-3.1328,-3.1309,-3.1445,-3.168,-3.1719,-3.1875,-3.2129,-3.2229,-3.2229,-3.2229,-3.2229,-3.2229,-3.2148,-3.2229,-3.2229,-3.2229,-3.2229,-3.2229,-3.2187,-3.2285,-3.2519,-3.2793,-3.293,-3.3125,-3.334,-3.3144,-3.3125,-3.3398,-3.3418,-3.3418,-3.3418,-3.3418,-3.3672,-3.4258,-3.4848,-3.5181,-3.5066,-3.518,-3.5135,-3.4714,-3.4836,-3.4882,-3.4676,-3.4972,-3.521,-3.5247,-3.5577,-3.5779,-3.587,-3.6017,-3.6201,-3.6201,-3.6201,-3.6201,-3.6201,-3.6201,-3.6201,-3.6201,-3.6201,-3.6274,-3.6476,-3.6916,-3.7448,-3.7906,-3.8108,-3.7995,-3.787,-3.8145,-3.8304,-3.725,-3.749,-3.749,-3.693,-3.597,-3.4637,-3.3489,-3.3829,-3.3782,-3.1597,-3.0807,-3.1279,-3.1682,-3.1883,-3.2337,-3.3483,-3.4272,-3.4797,-3.5842,-3.7155,-3.7963,-3.8323,-3.9901,-4.1537,-4.1629,-4.1794,-4.1977,-3.0898,-3.0898,-3.0898,-3.0898,-3.0898,-3.0898,-3.0898,-3.0937,-3.0937,-3.0976,-3.1094,-3.1367,-3.1523,-3.1601,-3.1973,-3.2168,-3.2129,-3.2187,-3.2148,-3.2051,-3.2131,-3.209,-3.2168,-3.2168,-3.2207,-3.2305,-3.2226,-3.2287,-3.2285,-3.2305,-3.2285,-3.2226,-3.2285,-3.2324,-3.2226,-3.2305,-3.2246,-3.2344,-3.2637,-3.2812,-3.2851,-3.3184,-3.3379,-3.3418,-3.3379,-3.3379,-3.3418,-3.3418,-3.3437,-3.3457,-3.3457,-3.3848,-3.4563,-3.4843,-3.5047,-3.5305,-3.5127,-3.4922,-3.4962,-3.5023,-3.5071,-3.508,-3.5412,-3.5614,-3.5669,-3.5944,-3.6146,-3.6146,-3.6164,-3.6201,-3.6201,-3.6201,-3.6201,-3.6201,-3.6201,-3.6201,-3.6201,-3.6219,-3.6309,-3.6709,-3.7312,-3.7865,-3.7951,-3.7934,-3.7596,-3.6637,-3.6992,-3.701,-3.488,-3.5318,-3.514,-3.4311,-3.3864,-3.3302,-3.2369,-3.1597,-3.0904,-3.0164,-2.9988,-3.0111,-3.0424,-3.0691,-3.0781,-3.1671,-3.2393,-3.3102,-3.4896,-3.6312,-3.7855,-3.8683,-4.0322,-4.1653,-4.1977,-4.2179,-4.2307,-3.0898,-3.0898,-3.0898,-3.0898,-3.0898,-3.0898,-3.1035,-3.1309,-3.1309,-3.1484,-3.1758,-3.1914,-3.1973,-3.2051,-3.2402,-3.2598,-3.2617,-3.2871,-3.2734,-3.2266,-3.2187,-3.2344,-3.2559,-3.2598,-3.2754,-3.2988,-3.3027,-3.3027,-3.3008,-3.3008,-3.3027,-3.3027,-3.3008,-3.3027,-3.2988,-3.3027,-3.3027,-3.3047,-3.3144,-3.3223,-3.3242,-3.334,-3.3418,-3.3418,-3.3418,-3.3418,-3.3418,-3.3418,-3.3574,-3.3828,-3.3867,-3.4277,-3.4992,-3.5249,-3.5199,-3.5078,-3.4997,-3.4818,-3.4652,-3.506,-3.541,-3.5485,-3.5797,-3.5999,-3.6017,-3.6127,-3.6201,-3.6201,-3.6201,-3.6201,-3.6201,-3.6201,-3.6219,-3.6201,-3.6201,-3.6163,-3.6162,-3.6419,-3.6309,-3.6093,-3.7072,-3.707,-3.5755,-3.5897,-3.6333,-3.4782,-3.4961,-3.4571,-3.3838,-3.3784,-3.439,-3.3778,-3.3144,-3.2234,-3.1684,-3.102,-3.0354,-3.0001,-2.9864,-2.97,-2.9833,-2.9913,-2.9913,-3.0608,-3.1242,-3.2387,-3.4109,-3.5851,-3.7704,-3.9148,-4.0731,-4.1659,-4.2349,-4.2564,-4.2619,-3.0898,-3.0898,-3.1055,-3.1133,-3.1152,-3.1289,-3.1504,-3.1738,-3.1758,-3.1914,-3.2148,-3.2344,-3.2402,-3.248,-3.2832,-3.3027,-3.3066,-3.332,-3.3144,-3.2695,-3.2637,-3.2793,-3.3008,-3.3027,-3.3144,-3.3359,-3.3418,-3.3418,-3.3418,-3.3418,-3.3418,-3.3418,-3.3418,-3.3398,-3.3418,-3.3418,-3.3418,-3.3418,-3.3398,-3.3418,-3.3418,-3.3418,-3.3496,-3.3633,-3.3672,-3.373,-3.3867,-3.3887,-3.3945,-3.4121,-3.4355,-3.4778,-3.517,-3.5239,-3.5184,-3.496,-3.4836,-3.4726,-3.4844,-3.532,-3.5705,-3.5852,-3.6072,-3.6201,-3.6201,-3.6201,-3.6201,-3.6201,-3.6201,-3.6201,-3.6201,-3.6201,-3.6274,-3.6439,-3.5746,-3.5575,-3.5718,-3.5999,-3.6064,-3.5896,-3.7088,-3.6649,-3.5524,-3.577,-3.585,-3.4148,-3.4082,-3.3176,-3.2757,-3.2404,-3.2693,-3.2508,-3.1396,-3.0935,-3.0958,-3.0525,-2.9878,-2.9882,-2.986,-2.9847,-2.99,-2.9913,-3.0016,-3.178,-3.2713,-3.4023,-3.5686,-3.6982,-3.8615,-3.9912,-4.1193,-4.1894,-4.2564,-4.2729,-4.2839,-3.0976,-3.1016,-3.1387,-3.1543,-3.1601,-3.1934,-3.2109,-3.2207,-3.2187,-3.2246,-3.2363,-3.2676,-3.2832,-3.291,-3.3203,-3.334,-3.3418,-3.3398,-3.3398,-3.332,-3.3301,-3.332,-3.334,-3.334,-3.3379,-3.3418,-3.3418,-3.3418,-3.3418,-3.3496,-3.3457,-3.3516,-3.3574,-3.3496,-3.3555,-3.3476,-3.3555,-3.3535,-3.3535,-3.3574,-3.3574,-3.3555,-3.3711,-3.4082,-3.4101,-3.4258,-3.4512,-3.4629,-3.4531,-3.4336,-3.4914,-3.5123,-3.4902,-3.4869,-3.496,-3.4981,-3.4652,-3.4952,-3.5412,-3.565,-3.5834,-3.6109,-3.6164,-3.6201,-3.6201,-3.6201,-3.6201,-3.6201,-3.6201,-3.6219,-3.6256,-3.6292,-3.6401,-3.6446,-3.5645,-3.5121,-3.5037,-3.56,-3.579,-3.5929,-3.7099,-3.7649,-3.5689,-3.6707,-3.6258,-3.4507,-3.4653,-3.3672,-3.195,-3.1704,-3.1138,-3.1051,-3.1367,-3.1189,-3.1813,-3.1342,-3.0773,-3.0052,-3.0402,-3.0953,-3.1042,-3.1131,-3.0994,-3.2684,-3.4619,-3.5843,-3.6998,-3.8352,-3.9553,-4.0719,-4.1654,-4.2338,-4.2729,-4.2949,-4.3041,-3.1836,-3.1855,-3.1953,-3.1992,-3.2012,-3.2129,-3.2363,-3.2617,-3.2637,-3.2793,-3.3047,-3.3203,-3.3223,-3.3281,-3.3359,-3.3418,-3.3418,-3.3418,-3.3418,-3.3418,-3.3418,-3.3418,-3.3418,-3.3418,-3.3437,-3.3437,-3.3496,-3.3418,-3.3457,-3.3769,-3.3887,-3.3926,-3.416,-3.416,-3.3984,-3.418,-3.418,-3.4004,-3.4219,-3.4336,-3.4316,-3.4316,-3.4394,-3.4512,-3.4531,-3.4609,-3.4746,-3.5039,-3.5043,-3.4699,-3.5143,-3.5316,-3.4926,-3.4922,-3.5014,-3.5008,-3.5187,-3.5357,-3.5595,-3.5889,-3.6091,-3.6182,-3.6201,-3.6201,-3.6201,-3.6201,-3.6201,-3.6201,-3.6201,-3.6347,-3.6586,-3.6602,-3.6439,-3.5937,-3.6177,-3.6564,-3.6827,-3.7222,-3.6991,-3.6286,-3.7516,-3.6368,-3.449,-3.4883,-3.5688,-3.3343,-3.3479,-3.4486,-3.2364,-3.2229,-3.2192,-3.3477,-3.3787,-3.3083,-3.2602,-3.2293,-3.1642,-3.0554,-3.1173,-3.2583,-3.3117,-3.3649,-3.3383,-3.3799,-3.6284,-3.7777,-3.8724,-3.9856,-4.0803,-4.1799,-4.2367,-4.3004,-4.3151,-4.3334,-4.3279,-3.2229,-3.2187,-3.2363,-3.2422,-3.2461,-3.2617,-3.2832,-3.3027,-3.3066,-3.3184,-3.3398,-3.3418,-3.3418,-3.3418,-3.3418,-3.3418,-3.3418,-3.3418,-3.3516,-3.373,-3.3906,-3.3769,-3.3574,-3.3574,-3.3691,-3.373,-3.3867,-3.3965,-3.4023,-3.4238,-3.4316,-3.4355,-3.457,-3.457,-3.4375,-3.4531,-3.459,-3.4414,-3.459,-3.4687,-3.4687,-3.4687,-3.4824,-3.4922,-3.5,-3.5039,-3.5254,-3.5393,-3.5327,-3.523,-3.5354,-3.5341,-3.4979,-3.4976,-3.5045,-3.5219,-3.5448,-3.5669,-3.587,-3.6091,-3.6182,-3.6201,-3.6201,-3.6201,-3.6201,-3.6201,-3.6201,-3.6201,-3.6366,-3.6586,-3.6824,-3.7118,-3.704,-3.6838,-3.7319,-3.7704,-3.7274,-3.7054,-3.6914,-3.6696,-3.6835,-3.6598,-3.273,-3.4516,-3.3929,-3.2608,-3.2679,-3.2729,-3.2146,-3.2932,-3.3372,-3.3925,-3.3884,-3.2793,-3.2248,-3.2026,-3.297,-3.2051,-3.3353,-3.4714,-3.5431,-3.6243,-3.6402,-3.6699,-3.834,-3.975,-4.0656,-4.1441,-4.2103,-4.2853,-4.3264,-4.3279,-4.3298,-4.3408,-4.3389,-3.2366,-3.2344,-3.2695,-3.2851,-3.291,-3.3242,-3.334,-3.3398,-3.3379,-3.3398,-3.3418,-3.3418,-3.3418,-3.3418,-3.3418,-3.3457,-3.3516,-3.3555,-3.3809,-3.4101,-3.4355,-3.4277,-3.3789,-3.4004,-3.4121,-3.418,-3.4531,-3.459,-3.459,-3.4687,-3.4766,-3.4824,-3.4844,-3.4824,-3.4824,-3.4863,-3.4824,-3.4805,-3.4922,-3.5,-3.5,-3.5,-3.5156,-3.5391,-3.5382,-3.5451,-3.5636,-3.5626,-3.5459,-3.541,-3.5478,-3.5256,-3.5,-3.4934,-3.5219,-3.5594,-3.5724,-3.5981,-3.6146,-3.6237,-3.6256,-3.6237,-3.6201,-3.6256,-3.6292,-3.6347,-3.6384,-3.6476,-3.6696,-3.6916,-3.7136,-3.7649,-3.7975,-3.7958,-3.8432,-3.7845,-3.6839,-3.6402,-3.6442,-3.6903,-3.6972,-3.6156,-3.5257,-3.4646,-3.4409,-3.3592,-3.3582,-3.3939,-3.3425,-3.3141,-3.3012,-3.2544,-3.2322,-3.176,-3.1535,-3.1578,-3.3058,-3.4003,-3.6107,-3.7512,-3.8103,-3.8767,-3.9396,-4.008,-4.0483,-4.1318,-4.2425,-4.3177,-4.3392,-4.3355,-4.3389,-4.3169,-4.3023,-4.3224,-4.3298,-3.3144,-3.3164,-3.3242,-3.3281,-3.3301,-3.3379,-3.3418,-3.3418,-3.3418,-3.3418,-3.3418,-3.3418,-3.3418,-3.3437,-3.3476,-3.3594,-3.3906,-3.3965,-3.416,-3.4531,-3.4629,-3.4629,-3.4434,-3.457,-3.457,-3.4609,-3.4648,-3.4726,-3.4785,-3.5098,-3.5234,-3.5273,-3.5469,-3.5566,-3.5312,-3.5488,-3.5547,-3.5371,-3.5527,-3.5664,-3.5644,-3.5644,-3.5723,-3.5792,-3.5607,-3.551,-3.5596,-3.5501,-3.5395,-3.5204,-3.5153,-3.5037,-3.4852,-3.5171,-3.5485,-3.5705,-3.6237,-3.6457,-3.6311,-3.6439,-3.6549,-3.6274,-3.6274,-3.6347,-3.6677,-3.6696,-3.6861,-3.7062,-3.7246,-3.7411,-3.7723,-3.8181,-3.8566,-3.8823,-3.9006,-3.9065,-3.8942,-3.8617,-3.8554,-3.8906,-3.8868,-3.8494,-3.6909,-3.7735,-3.6964,-3.5147,-3.4979,-3.5681,-3.4965,-3.3789,-3.3498,-3.3205,-3.3764,-3.3751,-3.3769,-3.4065,-3.5249,-3.6219,-3.8107,-3.9757,-4.0368,-4.0597,-4.0931,-4.1373,-4.1889,-4.28,-4.3444,-4.3481,-4.3392,-4.3444,-4.3408,-4.3316,-4.3243,-4.3279,-4.3353,-3.3418,-3.3418,-3.3418,-3.3418,-3.3418,-3.3418,-3.3418,-3.3418,-3.3418,-3.3418,-3.3418,-3.3418,-3.3535,-3.373,-3.375,-3.3965,-3.4355,-3.4609,-3.4805,-3.5059,-3.5195,-3.5332,-3.5312,-3.5293,-3.5234,-3.5098,-3.5254,-3.5293,-3.541,-3.5527,-3.5684,-3.5684,-3.5918,-3.5859,-3.5723,-3.5898,-3.5879,-3.5762,-3.5898,-3.6035,-3.6035,-3.6035,-3.5879,-3.5821,-3.5574,-3.5482,-3.552,-3.5552,-3.5459,-3.5321,-3.5309,-3.5187,-3.5117,-3.554,-3.5852,-3.6017,-3.6439,-3.6604,-3.6402,-3.6402,-3.6531,-3.6512,-3.6494,-3.6732,-3.6989,-3.7118,-3.7191,-3.7411,-3.7613,-3.7869,-3.8273,-3.8658,-3.9025,-3.919,-3.941,-3.9685,-3.996,-3.9777,-3.9667,-3.9832,-3.9181,-3.8557,-3.8362,-3.9126,-3.7912,-3.5365,-3.5122,-3.5777,-3.562,-3.4797,-3.5097,-3.5263,-3.6098,-3.649,-3.6515,-3.6982,-3.8075,-3.8814,-3.9618,-4.0996,-4.1864,-4.1952,-4.2054,-4.2417,-4.2691,-4.2924,-4.3371,-4.3426,-4.3481,-4.3481,-4.3481,-4.3481,-4.3554,-4.3628,-4.3719,-3.3418,-3.3418,-3.3418,-3.3418,-3.3418,-3.3418,-3.3418,-3.3418,-3.3418,-3.3418,-3.3437,-3.3476,-3.375,-3.4004,-3.4141,-3.4414,-3.4824,-3.5234,-3.5449,-3.5508,-3.5742,-3.5859,-3.5879,-3.5859,-3.5762,-3.5566,-3.5742,-3.5918,-3.5937,-3.6016,-3.5937,-3.5996,-3.6016,-3.5996,-3.6016,-3.6016,-3.5996,-3.5976,-3.5996,-3.6035,-3.5967,-3.5967,-3.5743,-3.5459,-3.542,-3.5382,-3.5444,-3.5519,-3.5569,-3.5587,-3.5649,-3.5669,-3.5797,-3.5981,-3.6201,-3.6219,-3.6604,-3.6586,-3.6366,-3.6402,-3.6622,-3.6861,-3.6916,-3.7118,-3.7411,-3.7539,-3.7613,-3.7741,-3.7961,-3.8291,-3.8695,-3.897,-3.9245,-3.9483,-3.9777,-4.0189,-4.0382,-4.0318,-4.029,-4.0354,-3.9945,-3.9263,-3.8711,-3.8765,-3.7191,-3.6015,-3.5928,-3.5858,-3.5803,-3.5796,-3.6043,-3.6587,-3.7299,-3.8902,-3.9192,-3.9188,-4.0315,-4.042,-4.1009,-4.1554,-4.2527,-4.2239,-4.2115,-4.2824,-4.3154,-4.3298,-4.3334,-4.3389,-4.3444,-4.3499,-4.3646,-4.3756,-4.3866,-4.3976,-4.4105,-3.3418,-3.3418,-3.3418,-3.3418,-3.3418,-3.3418,-3.3418,-3.3418,-3.3418,-3.3418,-3.3476,-3.3809,-3.3984,-3.418,-3.4473,-3.4844,-3.5293,-3.5664,-3.5859,-3.5859,-3.5996,-3.6016,-3.6035,-3.6016,-3.5957,-3.5957,-3.6016,-3.6016,-3.6035,-3.6035,-3.6035,-3.6035,-3.6035,-3.6035,-3.6035,-3.6035,-3.6035,-3.6016,-3.5947,-3.5947,-3.5879,-3.5675,-3.544,-3.5085,-3.5116,-3.5182,-3.5209,-3.5406,-3.5595,-3.5632,-3.5907,-3.6054,-3.6091,-3.6164,-3.6201,-3.6292,-3.6604,-3.6641,-3.6347,-3.6806,-3.6971,-3.6932,-3.706,-3.7503,-3.7796,-3.7924,-3.8034,-3.8291,-3.8456,-3.8695,-3.908,-3.9281,-3.9612,-4.0015,-4.0308,-4.051,-4.0887,-4.0924,-4.0767,-4.0775,-4.0475,-4.0241,-3.9787,-3.9416,-3.8802,-3.81,-3.7843,-3.7478,-3.7194,-3.696,-3.6843,-3.7408,-3.8136,-4.0069,-4.1778,-4.1814,-4.2148,-4.1539,-4.1687,-4.1541,-4.2069,-4.1886,-4.2069,-4.2674,-4.3114,-4.3279,-4.3316,-4.3426,-4.3664,-4.3903,-4.3995,-4.4105,-4.4325,-4.4545,-4.46,-3.3418,-3.3418,-3.3418,-3.3418,-3.3418,-3.3418,-3.3418,-3.3418,-3.3418,-3.3555,-3.3769,-3.4004,-3.4355,-3.4707,-3.4941,-3.5293,-3.5684,-3.5898,-3.6016,-3.6035,-3.6035,-3.6035,-3.6035,-3.6035,-3.6035,-3.6016,-3.6016,-3.6035,-3.6035,-3.6035,-3.6035,-3.6035,-3.6035,-3.6035,-3.6035,-3.6035,-3.6016,-3.5947,-3.5811,-3.5762,-3.5694,-3.5284,-3.4947,-3.5022,-3.5008,-3.5092,-3.5353,-3.5705,-3.5907,-3.5962,-3.6109,-3.6182,-3.6201,-3.6201,-3.6201,-3.6274,-3.6586,-3.6641,-3.6366,-3.6806,-3.7044,-3.7209,-3.7503,-3.7906,-3.8218,-3.8365,-3.8438,-3.8621,-3.8896,-3.9025,-3.9208,-3.9593,-4.0052,-4.0382,-4.0639,-4.084,-4.1005,-4.106,-4.106,-4.106,-4.0855,-4.0753,-4.0855,-4.062,-4.0451,-4.0198,-3.9756,-3.9217,-3.8646,-3.8591,-3.8447,-3.9416,-4.0277,-4.1125,-4.2648,-4.277,-4.2766,-4.2381,-4.2069,-4.1922,-4.1904,-4.1886,-4.2032,-4.2417,-4.2784,-4.3316,-4.3609,-4.3811,-4.4068,-4.4306,-4.4526,-4.4728,-4.4948,-4.5113,-4.5132,-3.3418,-3.3418,-3.3418,-3.3418,-3.3418,-3.3418,-3.3418,-3.3437,-3.3535,-3.375,-3.4062,-3.4297,-3.4766,-3.5254,-3.5488,-3.5703,-3.6016,-3.6016,-3.6016,-3.6035,-3.6035,-3.6035,-3.6035,-3.6035,-3.6035,-3.6035,-3.6035,-3.6035,-3.6035,-3.6035,-3.6035,-3.6035,-3.6035,-3.6035,-3.6035,-3.5899,-3.5947,-3.5811,-3.5538,-3.5421,-3.5242,-3.4941,-3.4673,-3.4956,-3.506,-3.5284,-3.5522,-3.5925,-3.6127,-3.6164,-3.6182,-3.6201,-3.6201,-3.6201,-3.6201,-3.6256,-3.6549,-3.6494,-3.6567,-3.6769,-3.7209,-3.7503,-3.7906,-3.8273,-3.8451,-3.8579,-3.8786,-3.8743,-3.9116,-3.9428,-3.9648,-4.007,-4.0418,-4.0639,-4.0877,-4.106,-4.106,-4.106,-4.106,-4.106,-4.106,-4.106,-4.106,-4.106,-4.0807,-4.0807,-4.0385,-4.0849,-4.0431,-4.0815,-4.1065,-4.2062,-4.2653,-4.2671,-4.3114,-4.2824,-4.2729,-4.2362,-4.2087,-4.1904,-4.1977,-4.2051,-4.2307,-4.2656,-4.3059,-4.3573,-4.3884,-4.4196,-4.4435,-4.471,-4.5077,-4.5297,-4.5407,-4.5517,-4.5572,-3.3418,-3.3418,-3.3418,-3.3418,-3.3418,-3.3418,-3.3418,-3.3457,-3.3809,-3.4023,-3.418,-3.4844,-3.5234,-3.5469,-3.5781,-3.5957,-3.6016,-3.6035,-3.6035,-3.6035,-3.6035,-3.6035,-3.6035,-3.6035,-3.6035,-3.5967,-3.5947,-3.6035,-3.5967,-3.5967,-3.6035,-3.6035,-3.6035,-3.6035,-3.5879,-3.5762,-3.5557,-3.547,-3.5215,-3.5042,-3.5121,-3.5317,-3.5219,-3.5207,-3.5375,-3.565,-3.5797,-3.6109,-3.6256,-3.6201,-3.6201,-3.6201,-3.6201,-3.6201,-3.6201,-3.6201,-3.6292,-3.6421,-3.6714,-3.7118,-3.7484,-3.7851,-3.8273,-3.8451,-3.8652,-3.8871,-3.9116,-3.9171,-3.952,-3.9868,-4.0107,-4.0382,-4.0657,-4.0822,-4.1005,-4.106,-4.106,-4.106,-4.106,-4.106,-4.106,-4.106,-4.106,-4.106,-4.106,-4.106,-4.1152,-4.1537,-4.1959,-4.2161,-4.2289,-4.2876,-4.3114,-4.3133,-4.3041,-4.2876,-4.2784,-4.2399,-4.2234,-4.2051,-4.2271,-4.2509,-4.2858,-4.3206,-4.3573,-4.3848,-4.4105,-4.4416,-4.4746,-4.5058,-4.537,-4.559,-4.5773,-4.5865,-4.5883,-3.3418,-3.3418,-3.3418,-3.3418,-3.3418,-3.3418,-3.3418,-3.3516,-3.3887,-3.4219,-3.4512,-3.5078,-3.5508,-3.5742,-3.5976,-3.6016,-3.6035,-3.6035,-3.6035,-3.6035,-3.6035,-3.6035,-3.6035,-3.6035,-3.6035,-3.5947,-3.5811,-3.5694,-3.5762,-3.5899,-3.6035,-3.5967,-3.5967,-3.5879,-3.584,-3.5577,-3.5333,-3.5184,-3.501,-3.5,-3.5126,-3.5371,-3.5631,-3.5705,-3.6091,-3.6237,-3.6311,-3.6439,-3.6421,-3.6292,-3.6201,-3.6201,-3.6274,-3.6402,-3.6567,-3.6586,-3.6806,-3.6897,-3.6916,-3.7429,-3.7778,-3.8034,-3.8401,-3.8634,-3.8853,-3.9153,-3.9392,-3.9575,-3.996,-4.0272,-4.0492,-4.0759,-4.0859,-4.1005,-4.106,-4.106,-4.106,-4.106,-4.106,-4.106,-4.106,-4.106,-4.106,-4.106,-4.106,-4.106,-4.117,-4.1464,-4.2106,-4.2729,-4.2803,-4.2931,-4.3004,-4.2968,-4.2821,-4.2692,-4.2876,-4.2674,-4.2692,-4.2601,-4.2766,-4.3041,-4.3389,-4.3738,-4.4086,-4.4288,-4.4416,-4.4728,-4.5132,-4.5407,-4.5645,-4.5755,-4.5865,-4.5959,-4.6259,-3.3418,-3.3418,-3.3418,-3.3418,-3.3418,-3.3418,-3.3418,-3.3476,-3.4004,-3.4414,-3.4785,-3.5293,-3.5742,-3.5957,-3.6016,-3.6035,-3.6035,-3.6035,-3.6035,-3.6035,-3.6035,-3.6035,-3.6035,-3.6035,-3.5947,-3.5899,-3.5849,-3.5681,-3.5632,-3.5827,-3.5973,-3.5849,-3.6012,-3.5924,-3.5678,-3.5527,-3.5357,-3.5027,-3.5153,-3.524,-3.543,-3.576,-3.6127,-3.6439,-3.6714,-3.6842,-3.6824,-3.6659,-3.6439,-3.6292,-3.6201,-3.6201,-3.6256,-3.6549,-3.6751,-3.6879,-3.7191,-3.7411,-3.7411,-3.7686,-3.8016,-3.8255,-3.853,-3.8933,-3.9171,-3.9355,-3.963,-4.0079,-4.0446,-4.0565,-4.0675,-4.0979,-4.1071,-4.1042,-4.106,-4.106,-4.106,-4.106,-4.106,-4.106,-4.106,-4.106,-4.106,-4.106,-4.106,-4.106,-4.1207,-4.1445,-4.2069,-4.2839,-4.2968,-4.2913,-4.2931,-4.2949,-4.3004,-4.2894,-4.2968,-4.3023,-4.3041,-4.3169,-4.3371,-4.3591,-4.3903,-4.4251,-4.4618,-4.4893,-4.5095,-4.5315,-4.5517,-4.5663,-4.5773,-4.5828,-4.5883,-4.6166,-4.699,-3.3418,-3.3418,-3.3418,-3.3418,-3.3418,-3.3418,-3.3418,-3.3555,-3.4297,-3.4687,-3.4941,-3.5527,-3.5937,-3.6016,-3.6035,-3.6035,-3.6035,-3.6035,-3.6035,-3.6035,-3.6035,-3.6035,-3.6035,-3.5986,-3.5889,-3.5742,-3.5735,-3.5699,-3.5654,-3.5849,-3.5825,-3.5654,-3.5914,-3.6053,-3.5859,-3.5586,-3.5377,-3.5166,-3.5336,-3.5687,-3.6054,-3.6476,-3.6861,-3.7099,-3.7007,-3.6842,-3.6806,-3.6549,-3.6329,-3.6219,-3.6201,-3.6274,-3.6384,-3.6714,-3.6934,-3.7154,-3.7631,-3.7869,-3.7961,-3.7998,-3.8218,-3.8585,-3.8915,-3.919,-3.9447,-4.0033,-4.0327,-4.0418,-4.0814,-4.0998,-4.0969,-4.1042,-4.106,-4.106,-4.106,-4.106,-4.106,-4.106,-4.106,-4.106,-4.106,-4.106,-4.106,-4.106,-4.106,-4.106,-4.1262,-4.15,-4.1849,-4.2472,-4.2692,-4.2784,-4.2858,-4.3023,-4.3334,-4.3334,-4.3243,-4.3444,-4.3609,-4.3793,-4.4013,-4.4251,-4.4471,-4.4838,-4.5205,-4.548,-4.5682,-4.5682,-4.5718,-4.5828,-4.5883,-4.6072,-4.6897,-4.7736,-4.8643,-3.3418,-3.3418,-3.3418,-3.3418,-3.3418,-3.3418,-3.3574,-3.3887,-3.4434,-3.5039,-3.5508,-3.5859,-3.6035,-3.6035,-3.6035,-3.6035,-3.6035,-3.6035,-3.6035,-3.6035,-3.6035,-3.6035,-3.6006,-3.5995,-3.6012,-3.5881,-3.5857,-3.5713,-3.5627,-3.5787,-3.5717,-3.5715,-3.5927,-3.5867,-3.5743,-3.5569,-3.5355,-3.5466,-3.5595,-3.5907,-3.6586,-3.6971,-3.7283,-3.7374,-3.7649,-3.7246,-3.6916,-3.6714,-3.6457,-3.6292,-3.6237,-3.6366,-3.6622,-3.6989,-3.7264,-3.7503,-3.8053,-3.831,-3.8383,-3.8322,-3.8585,-3.8915,-3.9171,-3.9428,-3.9832,-4.0327,-4.0602,-4.0785,-4.095,-4.1145,-4.106,-4.106,-4.106,-4.106,-4.106,-4.106,-4.106,-4.106,-4.106,-4.106,-4.106,-4.106,-4.106,-4.106,-4.106,-4.1079,-4.1317,-4.1574,-4.1941,-4.2234,-4.2527,-4.2803,-4.2913,-4.3151,-4.3463,-4.3499,-4.3499,-4.3848,-4.4178,-4.4398,-4.4636,-4.482,-4.5077,-4.5443,-4.5627,-4.5718,-4.581,-4.5865,-4.5883,-4.5883,-4.6072,-4.6353,-4.755,-4.9105,-5.0297,-3.3418,-3.3418,-3.3418,-3.3418,-3.3437,-3.3555,-3.3789,-3.4141,-3.4668,-3.5312,-3.6016,-3.6035,-3.6035,-3.6035,-3.6035,-3.6035,-3.6035,-3.6035,-3.6035,-3.6074,-3.6152,-3.6123,-3.6161,-3.6166,-3.6157,-3.6042,-3.592,-3.5787,-3.5589,-3.5687,-3.5797,-3.5907,-3.5977,-3.5975,-3.5793,-3.5539,-3.5522,-3.5724,-3.5852,-3.6109,-3.673,-3.6986,-3.7338,-3.7356,-3.7503,-3.7319,-3.6879,-3.6659,-3.6549,-3.6457,-3.6476,-3.6641,-3.6989,-3.7374,-3.7704,-3.8034,-3.8365,-3.864,-3.8676,-3.8805,-3.8933,-3.9153,-3.9557,-3.9923,-4.0308,-4.0565,-4.0822,-4.1053,-4.1145,-4.106,-4.106,-4.106,-4.106,-4.106,-4.106,-4.106,-4.106,-4.106,-4.106,-4.106,-4.106,-4.1079,-4.117,-4.1225,-4.1372,-4.1372,-4.1445,-4.1739,-4.2069,-4.2362,-4.2564,-4.2821,-4.3023,-4.3298,-4.3591,-4.3848,-4.4123,-4.4471,-4.4801,-4.5021,-4.5223,-4.5388,-4.548,-4.5663,-4.5792,-4.5865,-4.5883,-4.5883,-4.5883,-4.5883,-4.6541,-4.7364,-4.9289,-5.0934,-5.193,-3.3418,-3.3418,-3.3437,-3.3437,-3.3516,-3.3887,-3.4082,-3.4316,-3.5019,-3.5605,-3.5996,-3.6035,-3.6035,-3.6035,-3.6035,-3.5947,-3.5947,-3.5947,-3.5918,-3.5967,-3.618,-3.6305,-3.6309,-3.631,-3.6223,-3.5837,-3.5901,-3.5906,-3.5687,-3.5925,-3.6109,-3.6127,-3.6146,-3.6146,-3.6146,-3.6164,-3.6164,-3.6182,-3.6146,-3.6421,-3.6675,-3.684,-3.7023,-3.7209,-3.7154,-3.6895,-3.6842,-3.6604,-3.6586,-3.6787,-3.6806,-3.7026,-3.7393,-3.7723,-3.7961,-3.8108,-3.8475,-3.8676,-3.8713,-3.9043,-3.93,-3.9465,-3.9923,-4.0345,-4.0529,-4.0767,-4.0969,-4.106,-4.106,-4.106,-4.106,-4.106,-4.106,-4.106,-4.106,-4.106,-4.106,-4.106,-4.106,-4.1115,-4.1097,-4.1097,-4.1244,-4.1409,-4.1647,-4.1721,-4.1684,-4.1904,-4.2289,-4.2509,-4.2729,-4.3133,-4.3389,-4.3774,-4.4123,-4.4435,-4.4746,-4.5095,-4.5333,-4.548,-4.559,-4.5682,-4.5792,-4.5883,-4.5883,-4.5883,-4.5883,-4.5996,-4.6541,-4.7177,-4.7995,-4.9105,-5.1116,-5.2581,-5.3298,-3.3418,-3.3437,-3.373,-3.3848,-3.3887,-3.4004,-3.4394,-3.498,-3.5527,-3.5879,-3.5996,-3.6035,-3.6035,-3.6035,-3.5967,-3.5899,-3.5694,-3.5694,-3.5684,-3.5685,-3.5965,-3.5998,-3.6123,-3.6251,-3.6209,-3.6104,-3.6164,-3.6128,-3.6017,-3.6164,-3.6182,-3.6201,-3.6201,-3.6201,-3.6182,-3.6201,-3.6201,-3.6201,-3.6237,-3.6402,-3.6787,-3.6767,-3.684,-3.7062,-3.6916,-3.6879,-3.6879,-3.6677,-3.6842,-3.7173,-3.7228,-3.7429,-3.7741,-3.8034,-3.8163,-3.842,-3.8823,-3.9171,-3.9428,-3.9795,-4.0033,-4.0162,-4.0272,-4.062,-4.0924,-4.1034,-4.1126,-4.106,-4.106,-4.106,-4.106,-4.106,-4.106,-4.106,-4.106,-4.106,-4.106,-4.106,-4.1079,-4.1189,-4.1207,-4.1592,-4.1812,-4.1904,-4.2087,-4.2252,-4.2271,-4.2344,-4.2656,-4.2784,-4.2986,-4.3536,-4.3921,-4.4306,-4.4673,-4.4911,-4.5168,-4.5462,-4.5645,-4.5737,-4.5847,-4.5828,-4.5828,-4.581,-4.5847,-4.5883,-4.6353,-4.6897,-4.7903,-4.8736,-4.9899,-5.0611,-5.2021,-5.3298,-5.4121,-3.3355,-3.3267,-3.3694,-3.3902,-3.4037,-3.4388,-3.4961,-3.5586,-3.5898,-3.6035,-3.6035,-3.6035,-3.6035,-3.5967,-3.5899,-3.5898,-3.5662,-3.5563,-3.5654,-3.5736,-3.5944,-3.61,-3.6168,-3.627,-3.631,-3.6275,-3.6165,-3.6182,-3.6164,-3.6182,-3.6201,-3.6201,-3.6201,-3.6201,-3.6201,-3.6201,-3.6201,-3.6201,-3.6237,-3.6311,-3.6567,-3.6714,-3.6842,-3.684,-3.6877,-3.7062,-3.7044,-3.7099,-3.7228,-3.7503,-3.7686,-3.7814,-3.8089,-3.8273,-3.8438,-3.8823,-3.9226,-3.9612,-4.0015,-4.0217,-4.0418,-4.0639,-4.0657,-4.0785,-4.1089,-4.1126,-4.1145,-4.106,-4.1079,-4.1097,-4.1115,-4.1115,-4.1207,-4.1225,-4.1354,-4.1372,-4.1189,-4.1189,-4.1409,-4.1482,-4.1629,-4.2032,-4.2381,-4.2491,-4.2582,-4.2729,-4.2876,-4.2968,-4.3041,-4.3188,-4.3371,-4.3866,-4.438,-4.4746,-4.5077,-4.5333,-4.559,-4.5847,-4.5828,-4.5755,-4.5682,-4.5572,-4.5645,-4.5737,-4.5904,-4.6241,-4.7177,-4.8015,-4.9643,-5.1026,-5.2333,-5.2882,-5.3251,-5.3897,-5.4783,-3.3184,-3.2988,-3.3309,-3.3639,-3.3908,-3.4843,-3.549,-3.5928,-3.5947,-3.5967,-3.5947,-3.5899,-3.5811,-3.5831,-3.5645,-3.5651,-3.5819,-3.5578,-3.576,-3.5958,-3.6149,-3.623,-3.6363,-3.6496,-3.6368,-3.6294,-3.6201,-3.6201,-3.6201,-3.6201,-3.6201,-3.6201,-3.6201,-3.6201,-3.6201,-3.6292,-3.6311,-3.6347,-3.6366,-3.6457,-3.6659,-3.6787,-3.6934,-3.695,-3.7173,-3.7338,-3.7411,-3.7466,-3.7686,-3.7888,-3.8053,-3.8273,-3.8396,-3.856,-3.8817,-3.9263,-3.9703,-4.0052,-4.0483,-4.0565,-4.0694,-4.0895,-4.0987,-4.1042,-4.106,-4.1163,-4.12,-4.1134,-4.1152,-4.117,-4.1189,-4.1354,-4.15,-4.1666,-4.1886,-4.1739,-4.1464,-4.1537,-4.1812,-4.1977,-4.2124,-4.2436,-4.2784,-4.2949,-4.2968,-4.3151,-4.3279,-4.3426,-4.3518,-4.3683,-4.3903,-4.4251,-4.4728,-4.515,-4.5425,-4.5572,-4.5553,-4.5663,-4.5535,-4.5462,-4.5388,-4.5443,-4.5608,-4.583,-4.5979,-4.6672,-4.8069,-4.9939,-5.1928,-5.3231,-5.3804,-5.441,-5.4482,-5.4532,-5.5089,-3.3168,-3.3328,-3.3554,-3.3795,-3.4231,-3.4765,-3.51,-3.5196,-3.5196,-3.5196,-3.5264,-3.5196,-3.5264,-3.5215,-3.5432,-3.5395,-3.5482,-3.5515,-3.5585,-3.5829,-3.6051,-3.6109,-3.6202,-3.6368,-3.6293,-3.6275,-3.6201,-3.6201,-3.6201,-3.6201,-3.6201,-3.6201,-3.6201,-3.6201,-3.6329,-3.6494,-3.6604,-3.6677,-3.6677,-3.6769,-3.6934,-3.7173,-3.7246,-3.7319,-3.7429,-3.7631,-3.7796,-3.7851,-3.8071,-3.8268,-3.8438,-3.8566,-3.8603,-3.8835,-3.93,-4.0033,-4.029,-4.0455,-4.0804,-4.0895,-4.095,-4.106,-4.1097,-4.106,-4.106,-4.1236,-4.1328,-4.128,-4.1335,-4.139,-4.1574,-4.1776,-4.1867,-4.1977,-4.2179,-4.2179,-4.1941,-4.2032,-4.2289,-4.2399,-4.2564,-4.2803,-4.3133,-4.3243,-4.3279,-4.3499,-4.3683,-4.3829,-4.4013,-4.4178,-4.4361,-4.471,-4.5021,-4.5425,-4.5498,-4.5608,-4.5498,-4.5425,-4.5352,-4.5315,-4.5352,-4.5462,-4.5627,-4.6205,-4.712,-4.8162,-4.9453,-5.1371,-5.3385,-5.3729,-5.4374,-5.5116,-5.5723,-5.5592,-5.5504,-3.2746,-3.2922,-3.3275,-3.3726,-3.4134,-3.4396,-3.4439,-3.4508,-3.4784,-3.4921,-3.4921,-3.4921,-3.4997,-3.5205,-3.5293,-3.5346,-3.5597,-3.5606,-3.5685,-3.5907,-3.5834,-3.5999,-3.6146,-3.6201,-3.6201,-3.6201,-3.6201,-3.6201,-3.6201,-3.6201,-3.6201,-3.6201,-3.6201,-3.6329,-3.6494,-3.6714,-3.7026,-3.7136,-3.7209,-3.7264,-3.7393,-3.7594,-3.7649,-3.7686,-3.7759,-3.8016,-3.8199,-3.8236,-3.842,-3.8524,-3.864,-3.8652,-3.8933,-3.9392,-3.9795,-4.0418,-4.0639,-4.0767,-4.0987,-4.1042,-4.1152,-4.1262,-4.1299,-4.1427,-4.1464,-4.1519,-4.1537,-4.1574,-4.1629,-4.1721,-4.1996,-4.2216,-4.2234,-4.2271,-4.2436,-4.2601,-4.2601,-4.2619,-4.2711,-4.2803,-4.2986,-4.3188,-4.3371,-4.3444,-4.3591,-4.3756,-4.3995,-4.4233,-4.4471,-4.4728,-4.4838,-4.5058,-4.5352,-4.5645,-4.5663,-4.5663,-4.5608,-4.5498,-4.5388,-4.537,-4.537,-4.5611,-4.5945,-4.7193,-4.8716,-4.9839,-5.1025,-5.2688,-5.4363,-5.4711,-5.5146,-5.5926,-5.6312,-5.6116,-5.6072,-3.2222,-3.2134,-3.2813,-3.3477,-3.3762,-3.3886,-3.3886,-3.3886,-3.449,-3.4784,-3.4784,-3.4784,-3.4922,-3.5065,-3.513,-3.5436,-3.5664,-3.5741,-3.5871,-3.6182,-3.6109,-3.6164,-3.6182,-3.6201,-3.6201,-3.6201,-3.6201,-3.6201,-3.6201,-3.6201,-3.6201,-3.6201,-3.6292,-3.6457,-3.6714,-3.6932,-3.7356,-3.7668,-3.7686,-3.7686,-3.7723,-3.7869,-3.8071,-3.8126,-3.8346,-3.8603,-3.8603,-3.8542,-3.8579,-3.8597,-3.875,-3.8835,-3.9483,-3.9923,-4.0327,-4.0602,-4.084,-4.095,-4.1079,-4.1152,-4.1299,-4.1464,-4.1666,-4.1739,-4.1721,-4.1812,-4.1831,-4.1977,-4.2051,-4.2252,-4.2509,-4.2582,-4.2601,-4.2729,-4.2894,-4.2931,-4.2894,-4.2968,-4.3114,-4.3188,-4.3224,-4.3426,-4.3463,-4.3554,-4.3756,-4.3976,-4.4343,-4.4655,-4.4875,-4.515,-4.5297,-4.5388,-4.5572,-4.5755,-4.5755,-4.5737,-4.5737,-4.5627,-4.5462,-4.5352,-4.5333,-4.576,-4.6317,-4.8337,-5.0388,-5.1569,-5.2824,-5.4105,-5.5054,-5.5557,-5.6061,-5.6788,-5.6924,-5.6662,-5.664,-3.2348,-3.2832,-3.3379,-3.3721,-3.3798,-3.3817,-3.3817,-3.3817,-3.3955,-3.4094,-3.4094,-3.4131,-3.4334,-3.4793,-3.5055,-3.5427,-3.5723,-3.5962,-3.6091,-3.6182,-3.6201,-3.6256,-3.6219,-3.6237,-3.6219,-3.6201,-3.6201,-3.6201,-3.6201,-3.6201,-3.6219,-3.6256,-3.6439,-3.6732,-3.6934,-3.7283,-3.7796,-3.8089,-3.8199,-3.8199,-3.8255,-3.8346,-3.8511,-3.8493,-3.864,-3.864,-3.864,-3.8658,-3.8762,-3.8926,-3.908,-3.9483,-4.0143,-4.0382,-4.062,-4.0859,-4.1024,-4.1097,-4.1134,-4.128,-4.1464,-4.1409,-4.1519,-4.1684,-4.1831,-4.2032,-4.2197,-4.2362,-4.2546,-4.2747,-4.2931,-4.2931,-4.2968,-4.3169,-4.3316,-4.3243,-4.3151,-4.3316,-4.3481,-4.3481,-4.3481,-4.3536,-4.3573,-4.3719,-4.3921,-4.4306,-4.482,-4.515,-4.526,-4.5462,-4.559,-4.5682,-4.5737,-4.5847,-4.5828,-4.5792,-4.5755,-4.5645,-4.548,-4.5388,-4.5426,-4.6966,-4.8429,-5.0358,-5.2132,-5.294,-5.3694,-5.4643,-5.5436,-5.5941,-5.6465,-5.6902,-5.723,-5.7099,-5.7164,-3.2023,-3.267,-3.3279,-3.3651,-3.3798,-3.3817,-3.3817,-3.3817,-3.3817,-3.3817,-3.3853,-3.4,-3.4293,-3.4697,-3.5119,-3.5485,-3.5834,-3.6091,-3.6164,-3.6201,-3.6256,-3.6366,-3.6347,-3.6311,-3.6421,-3.6402,-3.6256,-3.6201,-3.6201,-3.6201,-3.6219,-3.6292,-3.6622,-3.6952,-3.7136,-3.7704,-3.8126,-3.831,-3.8548,-3.8621,-3.864,-3.864,-3.864,-3.864,-3.856,-3.8658,-3.8731,-3.8768,-3.8945,-3.9355,-3.9557,-3.9887,-4.0382,-4.0639,-4.0924,-4.1042,-4.1189,-4.1262,-4.1262,-4.139,-4.1629,-4.1592,-4.1519,-4.1739,-4.2582,-4.2766,-4.2564,-4.2692,-4.2674,-4.2858,-4.3169,-4.3243,-4.3261,-4.3371,-4.3426,-4.3371,-4.3353,-4.3408,-4.3481,-4.3481,-4.3536,-4.3646,-4.3719,-4.3884,-4.416,-4.4728,-4.5223,-4.5425,-4.5572,-4.5645,-4.581,-4.5883,-4.5883,-4.5883,-4.5865,-4.581,-4.5737,-4.5608,-4.561,-4.6225,-4.6932,-4.8875,-5.0752,-5.2083,-5.3093,-5.3765,-5.4561,-5.5067,-5.5308,-5.5635,-5.6247,-5.6858,-5.7142,-5.7383,-5.7426,-3.1818,-3.2239,-3.301,-3.3505,-3.378,-3.3817,-3.3817,-3.3817,-3.3817,-3.3853,-3.3982,-3.433,-3.4697,-3.5045,-3.5449,-3.5834,-3.6091,-3.6164,-3.6201,-3.6237,-3.6311,-3.6494,-3.6549,-3.6512,-3.6531,-3.6476,-3.6329,-3.6237,-3.6201,-3.6201,-3.6256,-3.6347,-3.6696,-3.7099,-3.7503,-3.7888,-3.8273,-3.8475,-3.864,-3.864,-3.864,-3.864,-3.864,-3.856,-3.8615,-3.8634,-3.8841,-3.9043,-3.9263,-3.9667,-4.0107,-4.04,-4.062,-4.0859,-4.1042,-4.1225,-4.1317,-4.1317,-4.1335,-4.15,-4.1739,-4.1867,-4.1757,-4.2106,-4.2913,-4.3004,-4.2784,-4.2968,-4.2949,-4.3041,-4.3353,-4.3481,-4.3481,-4.3481,-4.3481,-4.3481,-4.3481,-4.3499,-4.3518,-4.3536,-4.3664,-4.3793,-4.3995,-4.4141,-4.4545,-4.5113,-4.5425,-4.5608,-4.5755,-4.5773,-4.5847,-4.5883,-4.5883,-4.5883,-4.5883,-4.5847,-4.5773,-4.6055,-4.6187,-4.7232,-4.8517,-5.0337,-5.1833,-5.293,-5.3916,-5.4385,-5.4673,-5.4936,-5.5155,-5.546,-5.5985,-5.6618,-5.6968,-5.7208,-5.7448,-3.2606,-3.3046,-3.3505,-3.3743,-3.3817,-3.3817,-3.3817,-3.3817,-3.3817,-3.3982,-3.4293,-3.4678,-3.499,-3.5064,-3.5449,-3.5834,-3.6146,-3.6201,-3.6201,-3.6219,-3.6494,-3.6714,-3.6769,-3.6677,-3.6531,-3.6402,-3.6274,-3.6237,-3.6237,-3.6237,-3.6402,-3.6677,-3.7099,-3.7503,-3.7888,-3.8236,-3.8511,-3.864,-3.8658,-3.8658,-3.8676,-3.8676,-3.864,-3.867,-3.8871,-3.9061,-3.9226,-3.952,-3.9868,-4.0272,-4.0602,-4.0822,-4.095,-4.1042,-4.1244,-4.139,-4.1482,-4.1464,-4.1519,-4.161,-4.1794,-4.1555,-4.1555,-4.1941,-4.2417,-4.2454,-4.2619,-4.3334,-4.3371,-4.3371,-4.3536,-4.3499,-4.3481,-4.3481,-4.3481,-4.3481,-4.3481,-4.3573,-4.3628,-4.3793,-4.3976,-4.4215,-4.449,-4.4691,-4.4966,-4.5407,-4.5627,-4.5773,-4.5828,-4.5865,-4.5883,-4.5883,-4.5883,-4.5883,-4.5883,-4.5883,-4.5941,-4.6241,-4.7252,-4.897,-5.0486,-5.1602,-5.293,-5.4037,-5.4356,-5.4738,-5.4871,-5.5133,-5.5198,-5.5504,-5.5854,-5.6312,-5.6706,-5.7121,-5.7405]},{"header":{"parameterUnit":"m.s-1","parameterCategory":1,"la1":31.0,"la2":29.5877,"lo1":-88.7671,"lo2":-86.6584,"dy":0.0162,"dx":0.0185,"nx":115,"ny":88,"refTime":"2025-01-16T06:00:00:Z","depth":0,"parameterNumber":3,"parameterNumberName":"V-component_of_WINDS"},"data":[0.0,0.0,0.0,0.0,0.0,0.0,0.0,0.0,0.0,0.0,0.0,0.0,0.0,0.0,0.0,0.0,0.0,0.0,0.0,0.0,0.0,0.0,0.0,0.0,0.0,0.0,0.0,0.0,0.0,0.0,0.0,0.0,0.0,0.0,0.0,0.0,0.0,0.0,0.0,0.0,0.0,0.0,0.0,0.0,0.0,0.0,0.0,0.0,0.0,0.0,0.0,0.0,0.0,0.0,0.0,0.0,0.0,0.0,0.0,0.0,0.0,0.0,0.0,0.0,0.0,0.0,0.0,0.0,0.0,0.0,0.0,0.0,0.0,0.0,0.0,0.0,0.0,0.0,0.0,0.0,0.0,0.0,0.0,0.0,0.0,0.0,0.0,0.0,0.0,0.0,0.0,0.0,0.0,0.0,0.0,0.0,0.0,0.0,0.0,0.0,0.0,0.0,0.0,0.0,0.0,0.0,0.0,0.0,0.0,0.0,0.0,0.0,0.0,0.0,0.0,0.0,0.0,0.0,0.0,0.0,0.0,0.0,0.0,0.0,0.0,0.0,0.0,0.0,0.0,0.0,0.0,0.0,0.0,0.0,0.0,0.0,0.0,0.0,0.0,0.0,0.0,0.0,0.0,0.0,0.0,0.0,0.0,0.0,0.0,0.0,0.0,0.0,0.0,0.0,0.0,0.0,0.0,0.0,0.0,0.0,0.0,0.0,0.0,0.0,0.0,0.0,0.0,0.0,0.0,0.0,0.0,0.0,0.0,0.0,0.0,0.0,0.0,0.0,0.0,0.0,0.0,0.0,0.0,0.0,0.0,0.0,0.0,0.0,0.0,0.0,0.0,0.0,0.0,0.0,0.0,0.0,0.0,0.0,0.0,0.0,0.0,0.0,0.0,0.0,0.0,0.0,0.0,0.0,0.0,0.0,0.0,0.0,0.0,0.0,0.0,0.0,0.0,0.0,0.0,0.0,0.0,0.0,0.0,0.0,0.0,0.0,0.0,0.0,0.0,0.0,0.0,0.0,0.0,0.0,0.0,0.0,0.0,0.0,0.0,0.0,0.0,0.0,0.0,0.0,0.0,0.0,0.0,0.0,0.0,0.0,0.0,0.0,0.0,0.0,0.0,0.0,0.0,0.0,0.0,0.0,0.0,0.0,0.0,0.0,0.0,0.0,0.0,0.0,0.0,0.0,0.0,0.0,0.0,0.0,0.0,0.0,0.0,0.0,0.0,0.0,0.0,0.0,0.0,0.0,0.0,0.0,0.0,0.0,0.0,0.0,0.0,0.0,0.0,0.0,0.0,0.0,0.0,0.0,0.0,0.0,0.0,0.0,0.0,0.0,0.0,0.0,0.0,0.0,0.0,0.0,0.0,0.0,0.0,0.0,0.0,0.0,0.0,0.0,0.0,0.0,0.0,0.0,0.0,0.0,0.0,0.0,0.0,0.0,0.0,0.0,0.0,0.0,0.0,0.0,0.0,0.0,0.0,0.0,0.0,0.0,0.0,0.0,0.0,0.0,0.0,0.0,0.0,0.0,0.0,0.0,0.0,0.0,0.0,0.0,0.0,0.0,0.0,0.0,0.0,0.0,0.0,0.0,0.0,0.0,0.0,0.0,0.0,0.0,0.0,0.0,0.0,0.0,0.0,0.0,0.0,0.0,0.0,0.0,0.0,0.0,0.0,0.0,0.0,0.0,0.0,0.0,0.0,0.0,0.0,0.0,0.0,0.0,0.0,0.0,0.0,0.0,0.0,0.0,0.0,0.0,0.0,0.0,0.0,0.0,0.0,0.0,0.0,0.0,0.0,0.0,0.0,0.0,0.0,0.0,0.0,0.0,0.0,0.0,0.0,0.0,0.0,0.0,0.0,0.0,0.0,0.0,0.0,0.0,0.0,0.0,0.0,0.0,0.0,0.0,0.0,0.0,0.0,0.0,0.0,0.0,0.0,0.0,0.0,0.0,0.0,0.0,0.0,0.0,0.0,0.0,0.0,0.0,0.0,0.0,0.0,0.0,0.0,0.0,0.0,0.0,0.0,0.0,0.0,0.0,0.0,0.0,0.0,0.0,0.0,0.0,0.0,0.0,0.0,0.0,0.0,0.0,0.0,0.0,0.0,0.0,0.0,0.0,0.0,0.0,0.0,0.0,0.0,0.0,0.0,0.0,0.0,0.0,0.0,0.0,0.0,0.0,0.0,0.0,0.0,0.0,0.0,0.0,0.0,0.0,0.0,0.0,0.0,0.0,0.0,0.0,0.0,0.0,0.0,0.0,0.0,0.0,0.0,0.0,0.0,0.0,0.0,0.0,0.0,0.0,0.0,0.0,0.0,0.0,0.0,0.0,0.0,0.0,0.0,0.0,0.0,0.0,0.0,0.0,0.0,0.0,0.0,0.0,0.0,0.0,0.0,0.0,0.0,0.0,0.0,0.0,0.0,0.0,0.0,0.0,0.0,0.0,0.0,0.0,0.0,0.0,0.0,0.0,0.0,0.0,0.0,0.0,0.0,0.0,0.0,0.0,0.0,0.0,0.0,0.0,0.0,0.0,0.0,0.0,0.0,0.0,0.0,0.0,0.0,0.0,0.0,0.0,0.0,0.0,0.0,0.0,0.0,0.0,0.0,0.0,0.0,0.0,0.0,0.0,0.0,0.0,0.0,0.0,0.0,0.0,0.0,0.0,0.0,0.0,0.0,0.0,0.0,0.0,0.0,0.0,0.0,0.0,0.0,0.0,0.0,0.0,0.0,0.0,0.0,0.0,0.0,0.0,0.0,0.0,0.0,0.0,0.0,0.0,0.0,0.0,0.0,0.0,0.0,0.0,0.0,0.0,0.0,0.0,0.0,0.0,0.0,0.0,0.0,0.0,0.0,0.0,0.0,0.0,0.0,0.0,0.0,0.0,0.0,0.0,0.0,0.0,0.0,0.0,0.0,0.0,0.0,0.0,0.0,0.0,0.0,0.0,0.0,0.0,0.0,0.0,0.0,0.0,0.0,0.0,0.0,0.0,0.0,0.0,0.0,0.0,0.0,0.0,0.0,0.0,0.0,0.0,0.0,0.0,0.0,0.0,0.0,0.0,0.0,0.0,0.0,0.0,0.0,0.0,0.0,0.0,0.0,0.0,0.0,0.0,0.0,0.0,0.0,0.0,0.0,0.0,0.0,0.0,0.0,0.0,0.0,0.0,0.0,0.0,0.0,0.0,0.0,0.0,0.0,0.0,0.0,0.0,0.0,0.0,0.0,0.0,0.0,0.0,0.0,0.0,0.0,0.0,0.0,0.0,0.0,0.0,0.0,0.0,0.0,0.0,0.0,0.0,0.0,0.0,0.0,0.0,0.0,0.0,0.0,0.0,0.0,0.0,0.0,0.0,0.0,0.0,0.0,0.0,0.0,0.0,0.0,0.0,0.0,0.0,0.0,0.0,0.0,0.0,0.0,0.0,0.0,0.0,0.0,0.0,0.0,0.0,0.0,0.0,0.0,0.0,0.0,0.0,0.0,0.0,0.0,0.0,0.0,0.0,0.0,0.0,0.0,0.0,0.0,0.0,0.0,0.0,0.0,0.0,0.0,0.0,0.0,0.0,0.0,0.0,0.0,0.0,0.0,0.0,0.0,0.0,0.0,0.0,0.0,0.0,0.0,0.0,0.0,0.0,0.0,0.0,0.0,0.0,0.0,0.0,0.0,0.0,0.0,0.0,0.0,0.0,0.0,0.0,0.0,0.0,0.0,0.0,0.0,0.0,0.0,0.0,0.0,0.0,0.0,0.0,0.0,0.0,0.0,0.0,0.0,0.0,0.0,0.0,0.0,0.0,0.0,0.0,0.0,0.0,0.0,0.0,0.0,0.0,0.0,0.0,0.0,0.0,0.0,0.0,0.0,0.0,0.0,0.0,0.0,0.0,0.0,0.0,0.0,0.0,0.0,0.0,0.0,0.0,0.0,0.0,0.0,0.0,0.0,0.0,0.0,0.0,0.0,0.0,0.0,0.0,0.0,0.0,0.0,0.0,0.0,0.0,0.0,0.0,0.0,0.0,0.0,0.0,0.0,0.0,0.0,0.0,0.0,0.0,0.0,0.0,0.0,0.0,0.0,0.0,0.0,0.0,0.0,0.0,0.0,0.0,0.0,0.0,0.0,0.0,0.0,0.0,0.0,0.0,0.0,0.0,0.0,0.0,0.0,0.0,0.0,0.0,0.0,0.0,0.0,0.0,0.0,0.0,0.0,0.0,0.0,0.0,0.0,0.0,0.0,0.0,0.0,0.0,0.0,0.0,-2.5312,0.0,0.0,0.0,0.0,0.0,0.0,0.0,0.0,0.0,0.0,0.0,0.0,0.0,0.0,0.0,0.0,0.0,0.0,0.0,0.0,0.0,0.0,0.0,0.0,0.0,0.0,0.0,0.0,0.0,0.0,0.0,0.0,0.0,0.0,0.0,0.0,0.0,0.0,0.0,0.0,0.0,0.0,0.0,0.0,0.0,0.0,0.0,0.0,0.0,0.0,0.0,0.0,0.0,0.0,0.0,0.0,0.0,0.0,0.0,0.0,0.0,0.0,0.0,0.0,0.0,0.0,0.0,0.0,0.0,0.0,0.0,0.0,0.0,0.0,0.0,0.0,0.0,0.0,0.0,0.0,0.0,0.0,0.0,0.0,0.0,0.0,0.0,0.0,0.0,0.0,0.0,0.0,0.0,0.0,0.0,0.0,0.0,0.0,0.0,0.0,0.0,0.0,0.0,0.0,0.0,0.0,0.0,0.0,0.0,0.0,-2.8258,-2.795,-2.6849,-2.6173,-2.5887,0.0,0.0,0.0,0.0,0.0,0.0,0.0,0.0,0.0,0.0,0.0,0.0,0.0,0.0,0.0,0.0,0.0,0.0,0.0,0.0,0.0,0.0,0.0,0.0,0.0,0.0,0.0,0.0,0.0,0.0,0.0,0.0,0.0,0.0,0.0,0.0,0.0,0.0,0.0,0.0,0.0,0.0,0.0,0.0,0.0,0.0,0.0,0.0,0.0,0.0,0.0,0.0,0.0,0.0,0.0,0.0,0.0,0.0,0.0,0.0,0.0,0.0,0.0,0.0,0.0,0.0,0.0,0.0,0.0,0.0,0.0,0.0,0.0,0.0,0.0,0.0,0.0,0.0,0.0,0.0,0.0,0.0,0.0,0.0,0.0,0.0,0.0,0.0,0.0,0.0,0.0,0.0,0.0,0.0,0.0,0.0,0.0,0.0,0.0,0.0,0.0,0.0,0.0,0.0,0.0,0.0,0.0,0.0,0.0,0.0,0.0,0.0,-2.7403,-2.6634,-2.6349,0.0,0.0,0.0,0.0,0.0,0.0,0.0,0.0,0.0,0.0,0.0,0.0,0.0,0.0,0.0,0.0,0.0,0.0,0.0,0.0,0.0,0.0,0.0,0.0,0.0,0.0,0.0,0.0,0.0,0.0,0.0,0.0,0.0,0.0,0.0,0.0,0.0,0.0,0.0,0.0,0.0,0.0,0.0,0.0,0.0,0.0,0.0,0.0,0.0,0.0,0.0,0.0,0.0,0.0,0.0,0.0,0.0,0.0,0.0,0.0,0.0,0.0,0.0,0.0,0.0,0.0,0.0,0.0,0.0,0.0,0.0,0.0,0.0,0.0,0.0,0.0,0.0,0.0,0.0,0.0,0.0,0.0,0.0,0.0,0.0,0.0,0.0,0.0,0.0,0.0,0.0,0.0,0.0,0.0,0.0,0.0,0.0,0.0,0.0,0.0,0.0,0.0,0.0,0.0,0.0,0.0,0.0,0.0,0.0,0.0,-2.8688,-2.9304,-2.8596,0.0,-2.6419,0.0,0.0,0.0,0.0,0.0,0.0,0.0,0.0,0.0,0.0,0.0,0.0,0.0,0.0,0.0,0.0,0.0,0.0,0.0,0.0,0.0,0.0,0.0,0.0,0.0,0.0,0.0,0.0,0.0,0.0,0.0,0.0,0.0,0.0,0.0,0.0,0.0,0.0,0.0,0.0,0.0,0.0,0.0,0.0,0.0,0.0,0.0,0.0,0.0,0.0,0.0,0.0,0.0,0.0,0.0,0.0,0.0,0.0,0.0,0.0,0.0,0.0,0.0,0.0,0.0,0.0,0.0,0.0,0.0,0.0,0.0,0.0,0.0,0.0,0.0,0.0,0.0,0.0,0.0,0.0,0.0,0.0,0.0,0.0,0.0,0.0,0.0,0.0,0.0,0.0,0.0,0.0,0.0,0.0,0.0,0.0,0.0,0.0,0.0,0.0,0.0,0.0,0.0,0.0,0.0,0.0,0.0,0.0,0.0,0.0,-2.9119,-2.9371,-2.8381,-2.7149,0.0,0.0,0.0,0.0,0.0,0.0,0.0,0.0,0.0,0.0,0.0,0.0,0.0,0.0,0.0,0.0,0.0,0.0,0.0,0.0,0.0,0.0,0.0,0.0,0.0,0.0,0.0,0.0,0.0,0.0,0.0,0.0,0.0,0.0,0.0,0.0,0.0,0.0,0.0,0.0,0.0,0.0,0.0,0.0,0.0,0.0,0.0,0.0,0.0,0.0,0.0,0.0,0.0,0.0,0.0,0.0,0.0,0.0,0.0,0.0,0.0,0.0,0.0,0.0,0.0,0.0,0.0,0.0,0.0,0.0,0.0,0.0,0.0,0.0,0.0,0.0,0.0,0.0,0.0,0.0,0.0,0.0,0.0,0.0,0.0,0.0,0.0,0.0,0.0,0.0,0.0,0.0,0.0,0.0,0.0,0.0,0.0,0.0,0.0,0.0,0.0,0.0,0.0,0.0,0.0,0.0,0.0,0.0,0.0,0.0,-2.9125,-2.9402,-2.9341,-2.8473,-2.7119,-2.5373,0.0,0.0,0.0,0.0,0.0,0.0,0.0,0.0,0.0,0.0,0.0,0.0,0.0,0.0,0.0,0.0,0.0,0.0,0.0,0.0,0.0,0.0,0.0,0.0,0.0,0.0,0.0,0.0,0.0,0.0,0.0,0.0,0.0,0.0,0.0,0.0,0.0,0.0,0.0,0.0,0.0,0.0,0.0,0.0,0.0,0.0,0.0,0.0,0.0,0.0,0.0,0.0,0.0,0.0,0.0,0.0,0.0,0.0,0.0,0.0,0.0,0.0,0.0,0.0,0.0,0.0,0.0,0.0,0.0,0.0,0.0,0.0,0.0,0.0,0.0,0.0,0.0,0.0,0.0,0.0,0.0,0.0,0.0,0.0,0.0,0.0,0.0,0.0,0.0,0.0,0.0,0.0,0.0,0.0,0.0,0.0,0.0,0.0,0.0,0.0,0.0,0.0,0.0,0.0,0.0,0.0,0.0,0.0,0.0,-2.9341,-2.9402,-2.9433,-2.931,-2.8049,0.0,0.0,0.0,0.0,0.0,0.0,0.0,0.0,0.0,0.0,0.0,0.0,0.0,0.0,0.0,0.0,0.0,0.0,0.0,0.0,0.0,0.0,0.0,0.0,0.0,0.0,0.0,0.0,0.0,0.0,0.0,0.0,0.0,0.0,0.0,0.0,0.0,0.0,0.0,0.0,0.0,0.0,0.0,0.0,0.0,0.0,0.0,0.0,0.0,0.0,0.0,0.0,0.0,0.0,0.0,0.0,0.0,0.0,0.0,0.0,0.0,0.0,0.0,0.0,0.0,0.0,0.0,0.0,0.0,0.0,0.0,0.0,0.0,0.0,0.0,0.0,0.0,0.0,0.0,0.0,0.0,0.0,0.0,0.0,0.0,0.0,0.0,0.0,0.0,0.0,0.0,0.0,0.0,0.0,0.0,0.0,0.0,0.0,0.0,0.0,0.0,0.0,0.0,0.0,0.0,0.0,0.0,0.0,0.0,-2.7488,-2.8319,-2.9396,-3.0566,-2.8596,-2.6995,0.0,0.0,0.0,0.0,0.0,0.0,0.0,0.0,0.0,0.0,0.0,0.0,0.0,0.0,0.0,0.0,0.0,0.0,0.0,0.0,0.0,0.0,0.0,0.0,0.0,0.0,0.0,0.0,0.0,0.0,0.0,0.0,0.0,0.0,0.0,0.0,0.0,0.0,0.0,0.0,0.0,0.0,0.0,0.0,0.0,0.0,0.0,0.0,0.0,0.0,0.0,0.0,0.0,0.0,0.0,0.0,0.0,0.0,0.0,0.0,0.0,0.0,0.0,0.0,0.0,0.0,0.0,0.0,0.0,0.0,0.0,0.0,0.0,0.0,0.0,0.0,0.0,0.0,0.0,0.0,0.0,0.0,0.0,0.0,0.0,0.0,0.0,0.0,0.0,0.0,0.0,0.0,0.0,0.0,0.0,0.0,0.0,0.0,0.0,0.0,0.0,0.0,0.0,0.0,0.0,0.0,0.0,0.0,0.0,-2.7573,0.0,-2.952,0.0,-2.8227,-2.6411,0.0,0.0,0.0,0.0,0.0,0.0,0.0,0.0,0.0,0.0,0.0,0.0,0.0,0.0,0.0,0.0,0.0,0.0,0.0,0.0,0.0,0.0,0.0,0.0,0.0,0.0,0.0,0.0,0.0,0.0,0.0,0.0,0.0,0.0,0.0,0.0,0.0,0.0,0.0,0.0,0.0,0.0,0.0,0.0,0.0,0.0,0.0,0.0,0.0,0.0,0.0,0.0,0.0,0.0,0.0,0.0,0.0,0.0,0.0,0.0,0.0,0.0,0.0,0.0,0.0,0.0,0.0,0.0,0.0,0.0,0.0,0.0,0.0,0.0,0.0,0.0,0.0,0.0,0.0,0.0,0.0,0.0,0.0,0.0,0.0,0.0,0.0,0.0,0.0,0.0,0.0,0.0,0.0,0.0,0.0,0.0,0.0,0.0,0.0,0.0,0.0,0.0,0.0,0.0,0.0,0.0,0.0,0.0,-2.8329,-2.9847,-3.0154,-2.974,-2.8535,-2.8381,-2.6472,0.0,0.0,0.0,0.0,0.0,0.0,0.0,0.0,0.0,0.0,0.0,0.0,0.0,0.0,0.0,0.0,0.0,0.0,0.0,0.0,0.0,0.0,0.0,0.0,0.0,0.0,0.0,0.0,0.0,0.0,0.0,0.0,0.0,0.0,0.0,0.0,0.0,0.0,0.0,0.0,0.0,0.0,0.0,0.0,0.0,0.0,0.0,0.0,0.0,0.0,0.0,0.0,0.0,0.0,0.0,0.0,0.0,0.0,0.0,0.0,0.0,0.0,0.0,0.0,0.0,0.0,0.0,0.0,0.0,0.0,0.0,0.0,0.0,0.0,0.0,0.0,0.0,0.0,0.0,0.0,0.0,0.0,0.0,0.0,0.0,0.0,0.0,0.0,0.0,0.0,0.0,0.0,0.0,0.0,0.0,0.0,0.0,0.0,0.0,0.0,0.0,0.0,0.0,0.0,0.0,0.0,0.0,0.0,0.0,-2.8225,-2.8762,-2.9704,-3.0966,-2.798,-2.6349,0.0,0.0,0.0,0.0,0.0,0.0,0.0,0.0,0.0,0.0,0.0,0.0,0.0,0.0,0.0,0.0,0.0,0.0,0.0,0.0,0.0,0.0,0.0,0.0,0.0,0.0,0.0,0.0,0.0,0.0,0.0,0.0,0.0,0.0,0.0,0.0,0.0,0.0,0.0,0.0,0.0,0.0,0.0,0.0,0.0,0.0,0.0,0.0,0.0,0.0,0.0,0.0,0.0,0.0,0.0,0.0,0.0,0.0,0.0,0.0,0.0,0.0,0.0,0.0,0.0,0.0,0.0,0.0,0.0,0.0,0.0,0.0,0.0,0.0,0.0,0.0,0.0,0.0,0.0,0.0,0.0,0.0,0.0,0.0,0.0,0.0,0.0,0.0,0.0,0.0,0.0,0.0,0.0,0.0,0.0,0.0,0.0,0.0,0.0,0.0,0.0,0.0,0.0,0.0,0.0,0.0,0.0,0.0,0.0,-2.9937,-3.0418,-3.1089,-3.1982,-2.8879,-2.7065,-2.6811,0.0,0.0,0.0,0.0,0.0,0.0,0.0,0.0,0.0,0.0,0.0,0.0,0.0,0.0,0.0,0.0,0.0,0.0,0.0,0.0,0.0,0.0,0.0,0.0,0.0,0.0,0.0,0.0,0.0,0.0,0.0,0.0,0.0,0.0,0.0,0.0,0.0,0.0,0.0,0.0,0.0,0.0,0.0,0.0,0.0,0.0,0.0,0.0,0.0,0.0,0.0,0.0,0.0,0.0,0.0,0.0,0.0,0.0,0.0,0.0,0.0,0.0,0.0,0.0,0.0,0.0,0.0,0.0,0.0,0.0,0.0,0.0,0.0,0.0,0.0,0.0,0.0,0.0,0.0,0.0,0.0,0.0,0.0,0.0,0.0,0.0,0.0,0.0,0.0,0.0,0.0,0.0,0.0,0.0,0.0,0.0,0.0,0.0,0.0,0.0,0.0,0.0,0.0,0.0,0.0,0.0,0.0,0.0,-3.4293,-3.4579,-3.3827,-3.1948,-3.0909,-2.8633,0.0,0.0,0.0,0.0,0.0,0.0,0.0,0.0,0.0,0.0,0.0,0.0,0.0,0.0,0.0,0.0,0.0,0.0,0.0,0.0,0.0,0.0,0.0,0.0,0.0,0.0,0.0,0.0,0.0,0.0,0.0,0.0,0.0,0.0,0.0,0.0,0.0,0.0,0.0,0.0,0.0,0.0,0.0,0.0,0.0,0.0,0.0,0.0,0.0,0.0,0.0,0.0,0.0,0.0,0.0,0.0,0.0,0.0,0.0,0.0,0.0,0.0,0.0,0.0,0.0,0.0,0.0,0.0,0.0,0.0,0.0,0.0,0.0,0.0,0.0,0.0,0.0,0.0,0.0,0.0,0.0,0.0,0.0,0.0,0.0,0.0,0.0,0.0,0.0,0.0,0.0,0.0,0.0,0.0,0.0,0.0,0.0,0.0,0.0,0.0,0.0,0.0,0.0,0.0,0.0,0.0,0.0,0.0,0.0,-3.5657,-3.6878,-3.7184,-3.6569,-3.2977,-3.0501,0.0,0.0,0.0,0.0,0.0,0.0,0.0,0.0,0.0,0.0,0.0,0.0,0.0,0.0,0.0,0.0,0.0,0.0,0.0,0.0,0.0,0.0,0.0,0.0,0.0,0.0,0.0,0.0,0.0,0.0,0.0,0.0,0.0,0.0,0.0,0.0,0.0,0.0,0.0,0.0,0.0,0.0,0.0,0.0,0.0,0.0,0.0,0.0,0.0,0.0,0.0,0.0,0.0,0.0,0.0,0.0,0.0,0.0,0.0,0.0,0.0,0.0,0.0,0.0,0.0,0.0,0.0,0.0,0.0,0.0,0.0,0.0,0.0,0.0,0.0,0.0,0.0,0.0,0.0,0.0,0.0,0.0,0.0,0.0,0.0,0.0,0.0,0.0,0.0,0.0,0.0,0.0,0.0,0.0,0.0,0.0,0.0,0.0,0.0,0.0,0.0,0.0,0.0,0.0,0.0,0.0,0.0,0.0,-3.4561,-3.7928,-3.9173,-3.9955,-4.0232,-3.5523,-3.2305,0.0,0.0,0.0,0.0,0.0,0.0,0.0,0.0,0.0,0.0,0.0,0.0,0.0,0.0,0.0,0.0,0.0,0.0,0.0,0.0,0.0,0.0,0.0,0.0,0.0,0.0,0.0,0.0,0.0,0.0,0.0,0.0,0.0,0.0,0.0,0.0,0.0,0.0,0.0,0.0,0.0,0.0,0.0,0.0,0.0,0.0,0.0,0.0,0.0,0.0,0.0,0.0,0.0,0.0,0.0,0.0,0.0,0.0,0.0,0.0,0.0,0.0,0.0,0.0,0.0,0.0,0.0,0.0,0.0,0.0,0.0,0.0,0.0,0.0,0.0,0.0,0.0,0.0,0.0,0.0,0.0,0.0,0.0,0.0,0.0,0.0,0.0,0.0,0.0,0.0,0.0,0.0,0.0,0.0,0.0,0.0,0.0,0.0,0.0,0.0,0.0,0.0,0.0,0.0,0.0,0.0,0.0,0.0,-3.6416,-4.032,-4.1186,-4.1894,-4.2355,-3.8015,-3.3986,0.0,0.0,0.0,0.0,0.0,0.0,0.0,0.0,0.0,0.0,0.0,0.0,0.0,0.0,0.0,0.0,0.0,0.0,0.0,0.0,0.0,0.0,0.0,0.0,0.0,0.0,0.0,0.0,0.0,0.0,0.0,0.0,0.0,0.0,0.0,0.0,0.0,0.0,0.0,0.0,0.0,0.0,0.0,0.0,0.0,0.0,0.0,0.0,0.0,0.0,0.0,0.0,0.0,0.0,0.0,0.0,0.0,0.0,0.0,0.0,0.0,0.0,0.0,0.0,0.0,0.0,0.0,0.0,0.0,0.0,0.0,0.0,0.0,0.0,0.0,0.0,0.0,0.0,0.0,0.0,0.0,0.0,0.0,0.0,0.0,0.0,0.0,0.0,0.0,0.0,0.0,0.0,0.0,0.0,0.0,0.0,0.0,0.0,0.0,0.0,0.0,0.0,0.0,0.0,0.0,0.0,0.0,0.0,-3.8448,-4.1011,-4.1403,-4.1678,-4.1801,-3.8135,-3.5003,0.0,0.0,0.0,0.0,0.0,0.0,0.0,0.0,0.0,0.0,0.0,0.0,0.0,0.0,0.0,0.0,0.0,0.0,0.0,0.0,0.0,0.0,0.0,0.0,0.0,0.0,0.0,0.0,0.0,0.0,0.0,0.0,0.0,0.0,0.0,0.0,0.0,0.0,0.0,0.0,0.0,0.0,0.0,0.0,0.0,0.0,0.0,0.0,-3.6124,0.0,0.0,0.0,0.0,0.0,0.0,0.0,0.0,0.0,0.0,0.0,0.0,0.0,0.0,0.0,0.0,0.0,0.0,0.0,0.0,0.0,0.0,0.0,0.0,0.0,0.0,0.0,0.0,0.0,0.0,0.0,0.0,0.0,0.0,0.0,0.0,0.0,0.0,0.0,0.0,0.0,0.0,0.0,0.0,0.0,0.0,0.0,0.0,0.0,0.0,0.0,0.0,0.0,0.0,0.0,0.0,0.0,0.0,0.0,-3.9624,-4.1794,-4.1595,-4.1751,-4.2241,-3.9048,-3.6073,0.0,0.0,0.0,0.0,0.0,0.0,0.0,0.0,0.0,0.0,0.0,0.0,0.0,0.0,0.0,0.0,0.0,0.0,0.0,0.0,0.0,0.0,0.0,0.0,0.0,0.0,0.0,0.0,0.0,0.0,0.0,0.0,0.0,0.0,0.0,0.0,0.0,0.0,0.0,0.0,0.0,0.0,0.0,0.0,0.0,0.0,0.0,0.0,0.0,0.0,0.0,0.0,0.0,0.0,0.0,0.0,0.0,0.0,0.0,0.0,0.0,0.0,0.0,0.0,0.0,0.0,0.0,0.0,0.0,0.0,0.0,0.0,0.0,0.0,0.0,0.0,0.0,0.0,0.0,0.0,0.0,0.0,0.0,0.0,0.0,0.0,0.0,0.0,0.0,0.0,0.0,0.0,0.0,0.0,0.0,0.0,0.0,0.0,0.0,0.0,0.0,0.0,0.0,0.0,0.0,0.0,0.0,-3.7294,-4.0261,-4.273,-4.2088,-4.2199,-4.3271,-4.0235,-3.7203,-3.4364,0.0,0.0,0.0,0.0,0.0,0.0,0.0,0.0,0.0,0.0,0.0,0.0,0.0,0.0,0.0,0.0,0.0,0.0,0.0,0.0,0.0,0.0,0.0,0.0,0.0,0.0,0.0,0.0,0.0,0.0,0.0,0.0,0.0,0.0,0.0,0.0,0.0,0.0,-3.3871,-3.558,0.0,0.0,0.0,0.0,0.0,0.0,0.0,0.0,-3.7715,0.0,0.0,0.0,0.0,0.0,0.0,0.0,0.0,0.0,0.0,0.0,0.0,0.0,0.0,0.0,0.0,0.0,0.0,0.0,0.0,0.0,0.0,0.0,0.0,0.0,0.0,0.0,0.0,0.0,0.0,0.0,0.0,0.0,0.0,0.0,0.0,0.0,0.0,0.0,0.0,0.0,0.0,0.0,0.0,0.0,0.0,0.0,0.0,0.0,0.0,0.0,0.0,0.0,0.0,0.0,0.0,-3.8241,-3.8398,-4.0346,-4.4148,-4.3587,-4.334,-4.3457,-4.1335,-3.8496,-3.5095,0.0,0.0,0.0,0.0,0.0,0.0,0.0,0.0,0.0,0.0,0.0,0.0,0.0,0.0,0.0,0.0,0.0,0.0,0.0,0.0,0.0,0.0,0.0,0.0,0.0,0.0,0.0,0.0,0.0,0.0,0.0,0.0,0.0,0.0,0.0,0.0,0.0,0.0,0.0,-3.953,-3.9897,0.0,0.0,0.0,0.0,0.0,0.0,0.0,0.0,-3.977,0.0,0.0,0.0,0.0,0.0,0.0,0.0,0.0,0.0,0.0,0.0,0.0,0.0,0.0,0.0,0.0,0.0,0.0,0.0,0.0,0.0,0.0,0.0,0.0,0.0,0.0,0.0,0.0,0.0,0.0,0.0,0.0,0.0,0.0,0.0,0.0,0.0,0.0,0.0,0.0,0.0,0.0,0.0,0.0,0.0,0.0,0.0,0.0,0.0,0.0,0.0,0.0,0.0,0.0,0.0,-3.761,-3.9881,-4.2153,-4.4456,-4.385,-4.3591,-4.3867,-4.0953,-3.8088,0.0,0.0,0.0,0.0,0.0,0.0,0.0,0.0,0.0,0.0,0.0,0.0,0.0,0.0,0.0,0.0,0.0,0.0,0.0,0.0,0.0,0.0,0.0,0.0,0.0,0.0,0.0,0.0,0.0,0.0,0.0,0.0,0.0,0.0,0.0,0.0,0.0,0.0,0.0,0.0,-4.1753,-4.2409,-4.4006,0.0,0.0,0.0,0.0,0.0,0.0,-4.1385,-4.1062,0.0,0.0,0.0,0.0,0.0,0.0,0.0,0.0,0.0,0.0,0.0,0.0,0.0,0.0,0.0,0.0,0.0,0.0,0.0,0.0,0.0,0.0,0.0,0.0,0.0,0.0,0.0,0.0,0.0,0.0,0.0,0.0,0.0,0.0,0.0,0.0,0.0,0.0,0.0,0.0,0.0,0.0,0.0,0.0,0.0,0.0,0.0,0.0,0.0,0.0,0.0,0.0,0.0,0.0,0.0,-3.6714,-4.0924,-4.3702,-4.4713,-4.3973,-4.3867,-4.4479,-4.0878,-3.7977,0.0,0.0,0.0,0.0,0.0,0.0,0.0,0.0,0.0,0.0,0.0,0.0,0.0,0.0,0.0,0.0,0.0,0.0,0.0,0.0,0.0,0.0,0.0,0.0,0.0,0.0,0.0,0.0,0.0,0.0,0.0,0.0,0.0,0.0,0.0,0.0,0.0,0.0,0.0,0.0,0.0,-4.4587,-4.6481,-4.4993,0.0,0.0,0.0,0.0,-4.2375,-4.3339,0.0,0.0,0.0,0.0,0.0,0.0,0.0,0.0,0.0,0.0,0.0,0.0,0.0,0.0,0.0,0.0,0.0,0.0,0.0,0.0,0.0,0.0,0.0,0.0,0.0,0.0,0.0,0.0,0.0,0.0,0.0,0.0,0.0,0.0,0.0,0.0,0.0,0.0,0.0,0.0,0.0,0.0,0.0,0.0,0.0,0.0,0.0,0.0,0.0,0.0,0.0,0.0,0.0,0.0,0.0,0.0,-3.7971,-4.0545,-4.3042,-4.5394,-4.4856,-4.4818,-4.5483,-4.2616,-3.9784,0.0,0.0,0.0,0.0,0.0,0.0,0.0,0.0,0.0,0.0,0.0,0.0,0.0,0.0,0.0,0.0,0.0,0.0,0.0,0.0,0.0,0.0,0.0,0.0,0.0,0.0,0.0,0.0,0.0,0.0,0.0,0.0,0.0,0.0,0.0,0.0,0.0,0.0,0.0,0.0,0.0,-4.5771,-4.6684,-4.5432,-4.4649,0.0,0.0,-4.6418,-4.9434,-5.0071,0.0,0.0,0.0,0.0,0.0,0.0,0.0,0.0,0.0,0.0,0.0,0.0,0.0,0.0,0.0,0.0,0.0,0.0,0.0,0.0,0.0,0.0,0.0,0.0,0.0,0.0,0.0,0.0,0.0,0.0,0.0,0.0,0.0,0.0,0.0,0.0,0.0,0.0,0.0,0.0,0.0,0.0,0.0,0.0,0.0,0.0,0.0,0.0,0.0,0.0,0.0,0.0,0.0,0.0,0.0,-3.5596,-3.8116,-4.1517,-4.3853,-4.5005,-4.4761,-4.4761,-4.5067,-4.1541,-3.8622,0.0,0.0,0.0,0.0,0.0,0.0,0.0,0.0,0.0,0.0,0.0,0.0,0.0,0.0,0.0,0.0,0.0,0.0,0.0,0.0,0.0,0.0,0.0,0.0,0.0,0.0,0.0,0.0,0.0,0.0,0.0,0.0,0.0,0.0,0.0,0.0,0.0,0.0,0.0,0.0,0.0,0.0,-4.8578,-4.8105,0.0,0.0,0.0,-4.8308,-4.8646,0.0,0.0,0.0,0.0,0.0,0.0,0.0,0.0,0.0,0.0,0.0,0.0,0.0,0.0,0.0,0.0,0.0,0.0,0.0,0.0,0.0,0.0,0.0,0.0,0.0,0.0,0.0,0.0,0.0,0.0,0.0,0.0,0.0,0.0,0.0,0.0,0.0,0.0,0.0,0.0,0.0,0.0,0.0,0.0,0.0,0.0,0.0,0.0,0.0,0.0,0.0,0.0,0.0,0.0,0.0,0.0,0.0,-3.8516,-4.3055,-4.5405,-4.5405,-4.5253,-4.5253,-4.5348,-4.1817,0.0,0.0,0.0,0.0,0.0,0.0,0.0,0.0,0.0,0.0,0.0,0.0,0.0,0.0,0.0,0.0,0.0,0.0,0.0,0.0,0.0,0.0,0.0,0.0,0.0,0.0,0.0,-2.6962,0.0,0.0,0.0,0.0,0.0,0.0,0.0,0.0,0.0,0.0,0.0,0.0,0.0,0.0,-4.9526,-5.027,-5.0541,-5.0913,0.0,0.0,-5.0338,-4.9458,-5.2097,-5.2232,0.0,0.0,0.0,0.0,0.0,0.0,0.0,0.0,0.0,0.0,0.0,0.0,0.0,0.0,0.0,0.0,0.0,0.0,0.0,0.0,0.0,0.0,0.0,0.0,0.0,0.0,0.0,0.0,0.0,0.0,0.0,0.0,0.0,0.0,0.0,0.0,0.0,0.0,0.0,0.0,0.0,0.0,0.0,0.0,0.0,0.0,0.0,0.0,0.0,0.0,0.0,0.0,0.0,0.0,0.0,-4.0044,-4.5045,-4.7638,-4.7638,-4.7001,-4.6967,-4.7605,-4.5395,-4.2195,0.0,0.0,0.0,0.0,0.0,0.0,0.0,0.0,0.0,0.0,0.0,0.0,0.0,0.0,0.0,0.0,0.0,0.0,0.0,0.0,0.0,0.0,0.0,0.0,0.0,0.0,0.0,0.0,0.0,0.0,0.0,0.0,0.0,0.0,0.0,0.0,0.0,0.0,0.0,0.0,0.0,-5.0304,-5.1048,-5.1758,-5.3247,0.0,0.0,-5.3078,-5.5683,-5.7983,-5.6867,-4.8984,0.0,0.0,0.0,0.0,0.0,0.0,0.0,0.0,0.0,0.0,0.0,0.0,0.0,0.0,0.0,0.0,0.0,0.0,0.0,0.0,0.0,0.0,0.0,0.0,0.0,0.0,0.0,0.0,0.0,0.0,0.0,0.0,0.0,0.0,0.0,0.0,0.0,0.0,0.0,0.0,0.0,0.0,0.0,0.0,0.0,0.0,0.0,0.0,0.0,0.0,0.0,0.0,0.0,-3.7944,-3.9441,-4.4549,-4.7204,-4.7204,-4.6965,-4.6932,-4.7237,-4.507,-4.196,0.0,0.0,0.0,0.0,0.0,0.0,0.0,0.0,0.0,0.0,0.0,0.0,0.0,0.0,0.0,0.0,0.0,0.0,0.0,0.0,0.0,0.0,0.0,0.0,0.0,0.0,0.0,0.0,-3.2577,-3.3423,-3.3647,0.0,0.0,0.0,0.0,0.0,0.0,0.0,0.0,0.0,0.0,-5.1555,-5.3687,-5.4634,0.0,0.0,-5.6494,-5.5649,-5.548,-5.6156,-5.4566,-4.824,-4.6041,0.0,0.0,0.0,0.0,0.0,0.0,0.0,0.0,0.0,0.0,0.0,0.0,0.0,0.0,0.0,0.0,0.0,0.0,0.0,0.0,0.0,0.0,0.0,0.0,0.0,0.0,0.0,0.0,0.0,0.0,0.0,0.0,0.0,0.0,0.0,0.0,0.0,0.0,0.0,0.0,0.0,0.0,0.0,0.0,0.0,0.0,0.0,0.0,0.0,0.0,0.0,0.0,-3.81,-3.9987,-4.4904,-4.7571,-4.7768,-4.7571,-4.7472,-4.7406,-4.5483,-4.2746,0.0,0.0,0.0,0.0,0.0,0.0,0.0,0.0,0.0,0.0,0.0,0.0,0.0,0.0,0.0,0.0,0.0,0.0,0.0,0.0,0.0,0.0,0.0,0.0,0.0,0.0,0.0,0.0,-3.5204,-3.5509,-3.402,0.0,0.0,0.0,0.0,0.0,0.0,0.0,0.0,0.0,0.0,-5.3247,-5.5141,-5.6021,-5.6731,-5.7476,-5.6799,-5.5818,-5.4735,-5.46,-5.3044,-4.8511,0.0,0.0,0.0,0.0,0.0,0.0,0.0,0.0,0.0,0.0,0.0,0.0,0.0,0.0,0.0,0.0,0.0,0.0,0.0,0.0,0.0,0.0,0.0,0.0,0.0,0.0,0.0,0.0,0.0,0.0,-2.6691,0.0,0.0,0.0,0.0,0.0,0.0,0.0,0.0,0.0,0.0,0.0,0.0,0.0,0.0,0.0,0.0,0.0,0.0,0.0,0.0,0.0,0.0,-3.9285,-4.2192,-4.6596,-4.926,-4.9936,-4.9294,-4.8923,-4.8889,-4.75,-4.5269,-4.2192,0.0,0.0,0.0,0.0,0.0,0.0,0.0,0.0,0.0,0.0,0.0,0.0,0.0,0.0,0.0,0.0,0.0,0.0,0.0,0.0,0.0,0.0,0.0,0.0,0.0,0.0,-3.2462,-3.366,-3.3986,0.0,0.0,0.0,0.0,0.0,0.0,0.0,0.0,0.0,0.0,-5.1388,-5.5344,-5.4702,-5.5277,-5.6089,-5.6799,-5.4431,-5.301,-5.4397,-5.4532,-5.3551,0.0,0.0,0.0,0.0,0.0,0.0,0.0,0.0,0.0,0.0,0.0,0.0,0.0,0.0,0.0,0.0,0.0,0.0,0.0,0.0,0.0,0.0,0.0,0.0,0.0,0.0,0.0,-2.9329,-2.9091,0.0,0.0,0.0,0.0,0.0,0.0,0.0,0.0,0.0,0.0,0.0,-3.6434,-3.7415,0.0,0.0,0.0,0.0,0.0,0.0,0.0,0.0,0.0,0.0,0.0,0.0,-3.9343,-4.232,-4.6718,-4.9357,-5.0098,-4.939,-4.9018,-4.8984,-4.8071,-4.5404,-4.0915,0.0,0.0,0.0,0.0,0.0,0.0,0.0,0.0,0.0,0.0,0.0,0.0,0.0,0.0,0.0,0.0,0.0,0.0,0.0,0.0,0.0,0.0,0.0,0.0,0.0,-3.3783,0.0,0.0,0.0,0.0,0.0,0.0,0.0,0.0,0.0,0.0,0.0,-4.5196,-4.8883,-5.1319,-5.3179,-5.4397,-5.5649,-5.6867,0.0,0.0,0.0,0.0,0.0,0.0,0.0,0.0,0.0,0.0,0.0,0.0,0.0,0.0,-5.3408,-4.7183,-4.6413,-4.7124,-4.8345,0.0,0.0,0.0,0.0,0.0,0.0,0.0,0.0,0.0,0.0,0.0,0.0,0.0,0.0,-3.2169,0.0,-3.1596,0.0,0.0,0.0,0.0,0.0,0.0,0.0,0.0,-3.8261,-3.9986,-4.029,-4.123,-4.1162,0.0,-3.9445,-3.6941,0.0,0.0,0.0,0.0,0.0,0.0,0.0,0.0,-3.9851,-4.3125,-4.6989,-4.9357,-5.0033,-4.939,-4.9018,-4.8984,-4.8277,-4.5911,-4.1726,-3.8728,-3.5656,0.0,0.0,0.0,0.0,0.0,0.0,0.0,0.0,0.0,0.0,0.0,0.0,0.0,0.0,0.0,0.0,0.0,0.0,0.0,0.0,0.0,0.0,0.0,-3.5385,0.0,0.0,0.0,0.0,0.0,0.0,0.0,0.0,0.0,-4.3775,-4.5635,-4.824,-5.1894,-5.3044,-5.3619,-5.3754,0.0,0.0,0.0,0.0,0.0,0.0,0.0,-5.1244,-5.1817,-5.1611,-5.1951,-5.3854,-5.6302,-5.794,-5.7667,0.0,0.0,-5.2934,-5.2019,-5.2733,-5.3922,-5.45,-5.5008,-5.5754,-5.6667,-5.7245,0.0,0.0,0.0,0.0,0.0,0.0,0.0,0.0,-3.5081,-3.5554,0.0,-3.4607,0.0,0.0,0.0,0.0,0.0,-3.6163,0.0,0.0,-4.3538,-4.5331,-4.4682,-4.4716,-4.4716,-4.4649,-4.3876,-4.2361,-4.013,-3.6637,0.0,0.0,0.0,0.0,0.0,0.0,-4.0899,-4.4615,-4.753,-4.9357,-5.0033,-4.939,-4.9018,-4.8984,-4.8277,-4.6887,-4.4784,-4.3166,-4.0688,-3.7066,-3.4121,0.0,0.0,0.0,0.0,0.0,0.0,0.0,0.0,0.0,0.0,0.0,0.0,0.0,0.0,0.0,0.0,0.0,0.0,0.0,0.0,-3.5949,0.0,0.0,0.0,0.0,0.0,0.0,0.0,0.0,0.0,0.0,-4.7052,-4.939,-5.1995,-5.416,0.0,0.0,0.0,0.0,-5.5819,-5.3077,-5.1961,-5.2162,-5.382,-5.4533,-5.5485,-5.7192,0.0,0.0,-6.0134,-5.9963,-5.9931,-5.9143,-6.2121,-6.3696,-6.1471,-5.9758,-5.9142,-5.9826,-5.9884,-5.9979,-6.0656,-6.1796,-6.2555,-4.0655,0.0,0.0,0.0,0.0,-3.7566,-3.843,-3.9614,-3.9952,-3.9436,-3.8362,-3.8261,0.0,0.0,0.0,0.0,0.0,0.0,-3.9918,-4.2192,-4.4621,-4.6143,-4.6955,-4.7496,-4.7462,-4.6955,-4.6688,-4.6007,-4.4857,-4.3267,-3.9309,-3.3186,0.0,0.0,0.0,0.0,-4.2422,-4.6007,-4.8037,-4.9357,-5.0101,-4.939,-4.9018,-4.9018,-4.8277,-4.7601,-4.6989,-4.5534,-4.3234,-4.0054,-3.8091,0.0,0.0,0.0,0.0,0.0,0.0,0.0,0.0,0.0,0.0,0.0,0.0,0.0,0.0,0.0,0.0,0.0,0.0,0.0,-3.5949,-3.7009,-3.7449,0.0,0.0,0.0,0.0,0.0,0.0,0.0,0.0,0.0,-5.2452,-5.1344,-5.108,0.0,0.0,-5.2189,-5.1228,-5.4156,-5.6508,-5.6678,-5.702,0.0,-5.9342,-5.7978,-5.7466,-5.9484,-6.232,-6.4337,-6.4439,-6.5446,-6.6387,-6.6661,-6.7776,-6.8412,-6.7753,-6.6215,-6.5265,-6.5875,-6.5966,-6.624,-6.6991,-6.7297,-6.7411,-4.4817,-4.1942,-4.034,-4.0098,-4.0795,-4.11,-4.2049,-4.3403,-4.3295,-4.2929,-4.2455,-4.1719,-4.04,-3.8642,-3.7459,0.0,0.0,0.0,-4.2354,-4.5201,-4.6177,-4.7192,-4.8342,-4.8781,-4.8781,-4.8345,-4.8311,-4.824,-4.8101,-4.6752,-4.3504,-3.8396,0.0,0.0,-3.8328,-4.1102,-4.3972,-4.6718,-4.824,-4.9221,-4.9627,-4.9221,-4.9018,-4.8984,-4.8548,-4.8311,-4.8342,-4.7225,-4.5602,-4.3504,-4.1441,-3.8125,0.0,0.0,0.0,0.0,0.0,0.0,0.0,0.0,0.0,0.0,0.0,-3.1833,-2.8755,0.0,0.0,0.0,-3.5216,-3.7313,-3.9242,-3.9655,0.0,0.0,0.0,0.0,0.0,0.0,0.0,-4.8899,-5.1665,-5.4053,-5.5723,-5.402,-5.3376,-5.5553,-5.4838,-5.3984,-5.3774,0.0,-5.8731,-5.9312,-5.9826,-6.0684,-6.2158,-6.1236,-6.1033,-6.3336,-6.5431,-6.6936,-6.745,-6.8635,-6.9708,-7.0437,-7.076,-7.0912,-7.1222,-7.0368,-6.9406,-6.9372,-6.9495,-6.9856,-7.0652,-7.0858,-7.0915,-4.8041,-4.7906,-4.5099,-4.4282,-4.4852,-4.4919,-4.5698,-4.6752,-4.5529,-4.6007,-4.7567,-4.4964,-4.3713,-4.3504,-4.0832,0.0,-4.3747,-4.3747,-4.5297,-4.7973,-4.8003,-4.8342,-4.8984,-4.9018,-4.9018,-4.9018,-4.9052,-4.939,-4.9864,-4.8003,-4.665,-4.5838,-4.3775,-4.2625,-4.2455,-4.3938,-4.5427,-4.6853,-4.8206,-4.8951,-4.8984,-4.9018,-4.8984,-4.8917,-4.8984,-4.8951,-4.8815,-4.8308,-4.7631,-4.6752,-4.4079,-4.1238,-3.8261,0.0,0.0,0.0,0.0,0.0,0.0,0.0,0.0,0.0,0.0,0.0,0.0,0.0,0.0,0.0,-4.0087,0.0,-4.3612,-4.3294,0.0,0.0,0.0,-4.5323,-4.751,-5.0393,-5.2646,-5.3883,0.0,0.0,-5.7603,-5.7158,-5.7877,-6.0784,-6.0271,-5.9312,-5.8697,-6.0513,-6.1882,-6.1268,-6.1336,-6.199,-6.3683,-6.4271,-6.5306,-6.7423,-6.8808,-6.9187,-6.9428,-6.9946,-7.0705,-7.1463,-7.1601,-7.1774,-7.2533,-7.2567,-7.2326,-7.0946,-7.109,-7.161,-7.2331,-7.2809,-7.3171,-4.9424,-5.0304,-4.9052,-4.797,-4.7162,-4.7733,-4.7834,-4.7665,-4.7868,-4.7631,-4.7056,-4.6921,-4.6515,-4.594,-4.5229,-4.5635,-4.6824,-4.6824,-4.75,-4.8714,-4.8748,-4.8849,-4.9018,-4.9018,-4.9018,-4.9052,-4.956,-4.9627,-4.9289,-4.9289,-4.8646,-4.7428,-4.6853,-4.5432,-4.3274,-4.4654,-4.6177,-4.7631,-4.7973,-4.8443,-4.8984,-4.9018,-4.8748,-4.8176,-4.8714,-4.8477,-4.7394,-4.824,-4.8139,-4.6853,-4.5568,-4.3538,-4.0561,-3.5622,0.0,0.0,0.0,0.0,0.0,0.0,0.0,0.0,0.0,-3.5757,-3.0751,0.0,-3.871,0.0,-4.1474,-4.4621,-4.6616,-4.635,0.0,0.0,-4.8924,-4.9859,-5.3766,-5.496,-5.5644,-5.6021,-5.781,-5.9354,-6.0251,-6.0592,-6.176,-6.4209,-6.1384,-5.9183,-5.9735,-6.2249,-6.4005,-6.3936,-6.5141,-6.6484,-6.6764,-6.7074,-6.763,-6.8808,-6.9187,-6.9635,-7.0774,-7.1118,-7.1463,-7.2222,-7.2395,-7.2506,-7.2713,-7.3119,-7.3437,-7.305,-7.3076,-7.3413,-7.4093,-7.4228,-7.4223,-5.0168,-5.1151,-5.0777,-4.9932,-4.8917,-4.9323,-4.9255,-4.8883,-4.8582,-4.824,-4.78,-4.8206,-4.8173,-4.7767,-4.7428,-4.7699,-4.8342,-4.8041,-4.8277,-4.8984,-4.9018,-4.9018,-4.9018,-4.9018,-4.9018,-4.9018,-4.9424,-4.956,-4.9492,-4.956,-4.9357,-4.8883,-4.8545,-4.7365,-4.5505,-4.594,-4.6616,-4.7394,-4.7736,-4.8274,-4.8951,-4.868,-4.8173,-4.7462,-4.7496,-4.6989,-4.5867,-4.6616,-4.665,-4.5838,-4.5094,-4.3775,-4.1745,-3.7719,-3.4742,0.0,0.0,0.0,0.0,0.0,0.0,0.0,0.0,0.0,0.0,0.0,-4.1534,-4.1477,-4.502,-4.8073,-4.9943,-5.0264,-5.1346,-5.3979,-5.3969,-5.5027,-5.8187,-5.8909,-5.9357,-5.9666,-6.1077,-6.2215,-6.2772,-6.3422,-6.4453,-6.6152,-6.4111,-6.2664,-6.322,-6.4738,-6.5807,-6.6221,-6.729,-6.8083,-6.8083,-6.8394,-6.8773,-6.9222,-6.9842,-7.0567,-7.136,-7.1808,-7.2153,-7.2609,-7.2671,-7.2851,-7.3161,-7.3844,-7.4545,-7.5248,-7.5678,-7.577,-7.55,-7.5333,-7.5234,-5.0439,-5.1151,-5.1116,-5.0744,-5.0236,-5.0135,-4.9999,-4.9729,-4.8376,-4.8173,-4.8883,-4.8951,-4.9018,-4.8951,-4.8342,-4.8409,-4.8951,-4.8311,-4.8409,-4.8984,-4.9018,-4.9018,-4.9018,-4.9018,-4.9018,-4.9018,-4.9086,-4.9424,-4.9932,-4.939,-4.9357,-4.9763,-4.9187,-4.8511,-4.7767,-4.7124,-4.6786,-4.6819,-4.753,-4.8206,-4.8815,-4.8139,-4.7361,-4.6549,-4.5974,-4.5263,-4.4378,-4.4513,-4.4581,-4.4445,-4.3809,-4.3234,-4.2692,-3.9851,-3.7662,0.0,-3.4382,0.0,0.0,0.0,0.0,0.0,0.0,0.0,0.0,-4.3362,-4.5077,-4.6669,-4.9509,-5.189,-5.3329,-5.4381,-5.5852,-5.7912,-5.8909,-5.9943,-6.1176,-6.218,-6.294,-6.3408,-6.4281,-6.4876,-6.4979,-6.56,-6.629,-6.698,-6.6945,-6.6704,-6.7014,-6.7014,-6.729,-6.8014,-6.8083,-6.8152,-6.8463,-6.8911,-6.9325,-6.9635,-7.0567,-7.1498,-7.1636,-7.2188,-7.2671,-7.2713,-7.2942,-7.3303,-7.3883,-7.4717,-7.58,-7.6918,-7.7641,-7.7782,-7.6934,-7.6574,-7.6518,-4.9999,-5.1117,-5.0541,-5.0574,-5.0947,-5.0338,-4.9424,-4.8274,-4.7361,-4.7428,-4.8142,-4.8748,-4.9018,-4.8984,-4.8849,-4.8883,-4.8984,-4.8849,-4.8883,-4.9018,-4.9018,-4.9018,-4.9018,-4.9018,-4.9018,-4.9052,-4.9593,-4.9661,-4.9221,-4.9661,-4.9357,-4.8342,-4.8142,-4.7733,-4.7022,0.0,0.0,0.0,-4.753,-4.7973,-4.8075,-4.7394,-4.638,-4.5089,-4.5466,0.0,-4.2895,-4.3938,-4.4282,-4.3673,-4.3504,0.0,0.0,0.0,0.0,0.0,0.0,0.0,0.0,0.0,0.0,0.0,-4.608,-4.5432,-4.4209,-4.7645,-5.0447,-5.152,-5.3261,-5.4935,-5.6406,-5.7947,-5.9286,-6.0317,-6.1251,-6.2186,-6.3046,-6.377,-6.4358,-6.4459,-6.5186,-6.5876,-6.6428,-6.6704,-6.7049,-6.7704,-6.7876,-6.7911,-6.7842,-6.7842,-6.7911,-6.8083,-6.8118,-6.8601,-6.9773,-6.9566,-6.9808,-7.0739,-7.1222,-7.1781,-7.2375,-7.2617,-7.2713,-7.2831,-7.378,-7.4652,-7.4897,-7.593,-7.697,-7.724,-7.746,-7.7787,-7.8756,-7.8506,-7.7992,-5.0202,0.0,-5.0405,-5.0101,0.0,-4.9695,-4.8714,-4.7394,-4.7733,-4.8105,-4.8477,-4.8849,-4.9018,-4.8984,-4.8612,-4.8477,-4.8443,-4.8071,-4.8308,-4.8984,-4.9018,-4.939,-5.0101,-5.0101,-5.0069,-5.0101,-5.0473,-5.0473,-5.0135,-5.0473,-5.027,-4.9494,-4.9187,-4.8815,-4.8443,-4.8071,-4.7699,-4.7361,-4.7703,-4.8105,-4.8409,-4.7733,-4.6819,-4.5766,-4.5669,0.0,0.0,0.0,0.0,0.0,0.0,0.0,0.0,0.0,0.0,-4.4418,-4.3809,-4.391,-4.4993,-4.6413,-4.8075,-4.9965,-5.189,-5.1719,-4.8799,-5.1809,-5.4392,-5.5719,-5.6951,-5.8256,-5.9767,-6.0698,-6.1456,-6.2249,-6.277,-6.3324,-6.4014,-6.4462,-6.4841,-6.529,-6.5979,-6.66,-6.6945,-6.7359,-6.7635,-6.8014,-6.8083,-6.8083,-6.8083,-6.8083,-6.8083,-6.8118,-6.8842,-6.9325,-6.9773,-7.0291,-7.0532,-7.1401,-7.211,-7.2736,-7.316,-7.3592,-7.394,-7.4365,-7.5105,-7.572,-7.6207,-7.7147,-7.8027,-7.8457,-7.8806,-7.9214,-8.0068,-7.9009,-7.7815,-5.027,-5.0777,-5.0168,-4.9627,-4.9187,-4.9187,-4.8578,-4.7631,0.0,0.0,0.0,-4.8951,-4.9086,-4.9154,-4.8578,-4.8345,-4.8413,-4.7868,-4.824,-4.939,-4.939,-5.0033,-5.1151,-5.1217,-5.1217,-5.1217,-5.1217,-5.1217,-5.1217,-5.1217,-5.1217,-5.115,-5.0608,-5.027,-5.0236,-4.9695,-4.912,-4.848,-4.8075,-4.8206,-4.8781,-4.8105,-4.7361,-4.6616,-4.6143,-4.5534,-4.4823,-4.4818,-4.4784,-4.4818,-4.479,-4.5196,-4.6041,-4.6346,-4.6853,-4.7733,-4.8612,-4.9357,-4.9965,-5.1386,-5.257,-5.345,-5.6572,-5.7085,-5.3917,-5.5928,-5.7878,-5.9149,-6.0081,-6.1116,-6.2358,-6.2599,-6.2979,-6.3703,-6.3772,-6.4083,-6.4807,-6.5048,-6.5428,-6.6014,-6.6738,-6.7187,-6.7221,-6.7704,-6.8083,-6.8083,-6.8083,-6.8187,-6.8256,-6.8221,-6.829,-6.8877,-6.9532,-6.998,-7.0187,-7.067,-7.1539,-7.1959,-7.3013,-7.3764,-7.4072,-7.4567,-7.5259,-7.5863,-7.6371,-7.6936,-7.7646,-7.8458,-7.92,-7.977,-8.018,-8.0513,-8.0292,-7.8764,-7.7367,-4.9221,-4.9289,-4.9187,-4.9458,-4.9932,-4.9932,-5.0202,-5.0439,-4.8815,-4.8071,-4.8105,-4.8714,-4.9357,-4.9932,-4.983,-5.0135,-5.0712,-5.0642,-5.071,-5.0913,-5.0881,-5.0982,-5.1217,-5.1217,-5.1217,-5.1217,-5.1217,-5.1217,-5.1217,-5.1219,-5.1217,-5.1217,-5.1116,-5.1016,-5.1048,-5.0914,-5.0813,-5.0678,-4.8852,-4.7939,-4.8007,-4.7327,-4.6616,-4.594,-4.6413,-4.6278,-4.5602,-4.5602,-4.5534,-4.5568,-4.5534,-4.6177,-4.75,-4.8815,-5.0067,-5.1454,-5.2841,-5.3687,-5.3822,-5.5175,-5.6667,-5.8135,-5.8996,-5.897,-5.8118,-6.0074,-6.1244,-6.1045,-6.1668,-6.222,-6.2496,-6.3048,-6.3738,-6.4393,-6.4565,-6.4876,-6.5635,-6.6221,-6.6635,-6.6807,-6.7497,-6.7911,-6.7876,-6.8014,-6.8083,-6.8083,-6.8187,-6.8359,-6.8911,-6.8497,-6.898,-7.0325,-7.0084,-7.0325,-7.1429,-7.167,-7.2057,-7.3312,-7.3576,-7.4111,-7.4642,-7.5046,-7.5585,-7.6156,-7.7415,-7.8457,-7.9252,-8.0045,-8.0443,-8.0587,-7.9954,-7.917,-7.913,-7.8039,-7.7411,-5.0202,-5.0202,-5.0202,-5.0371,-5.071,-5.071,-5.0879,-5.1116,-5.0137,-4.9695,-4.9697,-5.0067,-5.0405,-5.0642,-5.027,-5.027,-5.0574,-5.0202,-5.0407,-5.1151,-5.1217,-5.1657,-5.2401,-5.2469,-5.2469,-5.2469,-5.2469,-5.2469,-5.2435,-5.2469,-5.2469,-5.2435,-5.2029,-5.1589,-5.1251,-5.1217,-5.1217,-5.1183,-5.0236,-4.9664,-4.9697,-4.9357,-4.9052,-4.8683,-4.9052,-4.9052,-4.8714,-4.8683,-4.868,-4.8714,-4.868,-4.939,-5.0879,-5.1589,-5.2604,-5.4059,-5.5175,-5.5784,-5.5784,-5.7279,-5.8713,-5.995,-6.0647,-6.0966,-6.0802,-6.1659,-6.2142,-6.2013,-6.2634,-6.3082,-6.3117,-6.3772,-6.4358,-6.4669,-6.5083,-6.5635,-6.6359,-6.6738,-6.7152,-6.7532,-6.7876,-6.8083,-6.8083,-6.8083,-6.8083,-6.8118,-6.8428,-6.9153,-7.0256,-6.9842,-6.967,-7.067,-7.0981,-7.1325,-7.1981,-7.2153,-7.2465,-7.3113,-7.3952,-7.4529,-7.5083,-7.587,-7.7178,-7.8005,-7.9111,-7.9912,-8.0364,-8.0621,-8.0875,-8.084,-8.0439,-7.9724,-7.921,-7.8167,-7.7411,-5.1217,-5.1217,-5.1217,-5.1319,-5.1488,-5.1657,-5.1725,-5.1692,-5.1725,-5.1725,-5.1691,-5.1386,-5.1319,-5.1386,-5.0845,-5.071,-5.0777,-5.027,-5.0642,-5.1657,-5.1725,-5.2367,-5.3416,-5.3518,-5.3518,-5.3518,-5.3518,-5.3518,-5.3518,-5.3518,-5.3518,-5.345,-5.2875,-5.2266,-5.1726,-5.1725,-5.1725,-5.1725,-5.1725,-5.1523,-5.1219,-5.1217,-5.1217,-5.1217,-5.1352,-5.1454,-5.1422,-5.1454,-5.1422,-5.1488,-5.1623,-5.2266,-5.3416,-5.3991,-5.4769,-5.5886,-5.6799,-5.741,-5.7683,-5.8885,-6.0091,-6.0953,-6.1789,-6.2385,-6.2667,-6.2593,-6.2591,-6.2806,-6.322,-6.3634,-6.3841,-6.4324,-6.4807,-6.5186,-6.5738,-6.6428,-6.7118,-6.7221,-6.7428,-6.798,-6.8083,-6.8083,-6.8083,-6.8083,-6.8187,-6.8463,-6.9049,-7.0049,-7.1118,-7.1084,-7.0946,-7.1084,-7.1808,-7.2153,-7.1808,-7.2257,-7.2776,-7.306,-7.4149,-7.5044,-7.5693,-7.7341,-7.8666,-7.9438,-8.0337,-8.0762,-8.087,-8.0911,-8.0804,-8.0659,-8.0218,-7.9913,-7.9009,-7.8082,-7.7268,-5.1219,-5.1217,-5.1252,-5.1589,-5.2266,-5.2942,-5.3247,-5.3247,-5.3281,-5.3281,-5.3078,-5.1826,-5.1623,-5.2131,-5.2131,-5.2469,-5.3078,-5.3112,-5.3112,-5.3213,-5.3281,-5.3382,-5.3518,-5.3518,-5.3518,-5.3518,-5.3518,-5.3518,-5.3518,-5.3518,-5.3518,-5.3518,-5.3416,-5.3315,-5.3281,-5.3247,-5.3281,-5.3281,-5.3315,-5.2638,-5.1286,-5.1217,-5.1217,-5.1217,-5.1894,-5.2198,-5.23,-5.2198,-5.2232,-5.2266,-5.2942,-5.3348,-5.3721,-5.5378,-5.6562,-5.6765,-5.8017,-5.9174,-6.0038,-6.0577,-6.1172,-6.1963,-6.2282,-6.2806,-6.3393,-6.3496,-6.3496,-6.3496,-6.3565,-6.391,-6.4496,-6.4703,-6.5324,-6.6462,-6.6773,-6.7187,-6.7773,-6.798,-6.8014,-6.8049,-6.8083,-6.8083,-6.8083,-6.8152,-6.8463,-6.9222,-6.9842,-7.0601,-7.1463,-7.1981,-7.2264,-7.2222,-7.2119,-7.1981,-7.2326,-7.2602,-7.3183,-7.4302,-7.4863,-7.555,-7.6585,-7.7704,-7.8803,-7.9415,-8.0339,-8.0776,-8.0834,-8.0875,-8.0587,-8.0066,-7.9448,-7.8587,-7.7728,-7.7357,-7.7223,-5.257,-5.257,-5.257,-5.2739,-5.3044,-5.3382,-5.3518,-5.3518,-5.3518,-5.3518,-5.345,-5.2841,-5.2739,-5.3044,-5.345,-5.3619,-5.3551,-5.3957,-5.389,-5.3551,-5.3518,-5.3518,-5.3518,-5.3518,-5.3518,-5.3518,-5.3518,-5.3518,-5.3518,-5.3518,-5.3518,-5.3518,-5.3518,-5.3518,-5.3518,-5.3518,-5.3518,-5.3518,-5.3518,-5.3382,-5.3213,-5.2773,-5.2773,-5.3179,-5.3518,-5.389,-5.4262,-5.4329,-5.4329,-5.4329,-5.4634,-5.5006,-5.5446,-5.6325,-5.7205,-5.8051,-5.9066,-6.0088,-6.1061,-6.1357,-6.1921,-6.2787,-6.3041,-6.3289,-6.3565,-6.3979,-6.4255,-6.4255,-6.4255,-6.4393,-6.4738,-6.5497,-6.6324,-6.6945,-6.7359,-6.7773,-6.8049,-6.8083,-6.8083,-6.8083,-6.8083,-6.8083,-6.8152,-6.8497,-6.9291,-7.0291,-7.0877,-7.1291,-7.205,-7.2464,-7.2636,-7.2636,-7.236,-7.2326,-7.2644,-7.2671,-7.3223,-7.4139,-7.5144,-7.6122,-7.6661,-7.8234,-7.9273,-7.9142,-7.9829,-8.0334,-8.0146,-8.018,-8.003,-7.9487,-7.9084,-7.8378,-7.7996,-7.7544,-7.7268,-5.3518,-5.3518,-5.3518,-5.3518,-5.3518,-5.3518,-5.3518,-5.3518,-5.3518,-5.3518,-5.3518,-5.3518,-5.3518,-5.3585,-5.4059,-5.3991,-5.3619,-5.4059,-5.4025,-5.3551,-5.3518,-5.3518,-5.3518,-5.3518,-5.3518,-5.3518,-5.3518,-5.3518,-5.3518,-5.3518,-5.3518,-5.3518,-5.3518,-5.3518,-5.3518,-5.3518,-5.3518,-5.3518,-5.3687,-5.4059,-5.4465,-5.4296,-5.4363,-5.4837,-5.4905,-5.5141,-5.5683,-5.5681,-5.5681,-5.5681,-5.5886,-5.6258,-5.6765,-5.7171,-5.8084,-5.9471,-6.0152,-6.0947,-6.1919,-6.2176,-6.2569,-6.3308,-6.3664,-6.391,-6.4014,-6.4565,-6.4979,-6.5048,-6.5186,-6.5359,-6.5462,-6.6324,-6.7014,-6.729,-6.7807,-6.8083,-6.8083,-6.8083,-6.8083,-6.8083,-6.8083,-6.8187,-6.8463,-6.9158,-7.0049,-7.1118,-7.1463,-7.1774,-7.2464,-7.2713,-7.2671,-7.2671,-7.2713,-7.2762,-7.2929,-7.306,-7.3426,-7.4653,-7.5978,-7.6661,-7.6984,-7.8925,-7.9968,-7.9937,-7.9966,-7.9804,-7.9801,-7.9685,-7.9289,-7.9004,-7.8657,-7.8299,-7.7937,-7.7683,-7.752,-5.3518,-5.3518,-5.3518,-5.3518,-5.3518,-5.3518,-5.3518,-5.3518,-5.3518,-5.3518,-5.3518,-5.3518,-5.3518,-5.3518,-5.3653,-5.3585,-5.3518,-5.3619,-5.3619,-5.3518,-5.3518,-5.3518,-5.3518,-5.3518,-5.3551,-5.3687,-5.3721,-5.3653,-5.3619,-5.3585,-5.3518,-5.3551,-5.3653,-5.3585,-5.3619,-5.3653,-5.3551,-5.3721,-5.4262,-5.46,-5.4735,-5.5277,-5.5581,-5.5681,-5.5683,-5.5716,-5.5784,-5.575,-5.575,-5.575,-5.6393,-5.6799,-5.6934,-5.8152,-5.9607,-6.0964,-6.1389,-6.1919,-6.2761,-6.3083,-6.334,-6.3701,-6.4289,-6.4634,-6.4703,-6.5393,-6.5807,-6.588,-6.6428,-6.6807,-6.6807,-6.698,-6.7325,-6.7876,-6.8014,-6.8083,-6.8083,-6.8083,-6.8083,-6.8083,-6.8152,-6.8566,-6.9227,-6.9877,-7.0636,-7.1325,-7.1532,-7.1808,-7.2464,-7.2671,-7.2671,-7.2713,-7.2797,-7.297,-7.3597,-7.3772,-7.48,-7.6087,-7.6983,-7.7802,-7.9128,-8.0242,-8.0539,-8.0655,-8.0515,-8.018,-7.9685,-7.913,-7.8504,-7.8178,-7.8258,-7.8009,-7.7935,-7.8162,-7.8085,-5.3923,-5.3518,-5.3518,-5.3518,-5.3518,-5.3518,-5.3518,-5.3518,-5.3518,-5.3518,-5.3518,-5.3518,-5.3518,-5.3551,-5.3991,-5.3923,-5.3585,-5.3957,-5.3957,-5.3551,-5.3518,-5.3754,-5.416,-5.4194,-5.4499,-5.4871,-5.4938,-5.4938,-5.487,-5.4905,-5.487,-5.4905,-5.4905,-5.4905,-5.4905,-5.4938,-5.4905,-5.4938,-5.5209,-5.5513,-5.5953,-5.6258,-5.663,-5.707,-5.663,-5.663,-5.7103,-5.7103,-5.7103,-5.7103,-5.7374,-5.7712,-5.8287,-5.9641,-6.0766,-6.1422,-6.2008,-6.2574,-6.3152,-6.3711,-6.4099,-6.4321,-6.5014,-6.5462,-6.5566,-6.6152,-6.66,-6.6704,-6.7256,-6.7669,-6.7704,-6.7704,-6.7807,-6.8014,-6.8083,-6.8083,-6.8083,-6.8083,-6.8083,-6.8152,-6.8532,-6.9325,-7.0325,-7.0912,-7.1394,-7.2084,-7.2299,-7.2402,-7.2609,-7.2713,-7.2755,-7.2804,-7.3101,-7.3852,-7.52,-7.4886,-7.5292,-7.6877,-7.805,-7.8774,-7.989,-8.0539,-8.087,-8.0551,-8.0477,-8.0255,-7.9647,-7.9084,-7.8294,-7.8186,-7.8215,-7.8017,-7.7948,-7.8327,-7.8568,-5.3957,-5.3551,-5.3518,-5.3518,-5.3518,-5.3518,-5.3518,-5.3518,-5.3518,-5.3518,-5.3551,-5.3754,-5.3856,-5.3991,-5.4634,-5.4702,-5.4296,-5.4735,-5.4702,-5.4262,-5.4228,-5.4465,-5.4871,-5.4938,-5.5209,-5.5649,-5.5681,-5.5681,-5.5681,-5.5681,-5.5681,-5.5683,-5.5681,-5.5681,-5.5681,-5.5681,-5.5681,-5.575,-5.5919,-5.6325,-5.6799,-5.7036,-5.7374,-5.7746,-5.7408,-5.7374,-5.7848,-5.7881,-5.7881,-5.7881,-5.7881,-5.8321,-5.9336,-6.0664,-6.1554,-6.1979,-6.2498,-6.306,-6.3604,-6.416,-6.458,-6.5045,-6.5773,-6.6221,-6.629,-6.6911,-6.729,-6.7463,-6.7738,-6.8083,-6.8083,-6.8083,-6.8083,-6.8083,-6.8083,-6.8083,-6.8083,-6.8083,-6.8221,-6.8601,-6.9428,-7.0429,-7.1291,-7.167,-7.2216,-7.2942,-7.2887,-7.2804,-7.3305,-7.3183,-7.3183,-7.3467,-7.4159,-7.5134,-7.6336,-7.6656,-7.7232,-7.8698,-7.922,-7.9917,-8.043,-8.0939,-8.1053,-8.0586,-8.0254,-8.0028,-7.9565,-7.9004,-7.8705,-7.8574,-7.8311,-7.812,-7.8292,-7.8603,-7.8948,-5.3518,-5.3518,-5.3518,-5.3518,-5.3518,-5.3518,-5.3518,-5.3585,-5.3585,-5.3653,-5.3856,-5.4329,-5.46,-5.4735,-5.5378,-5.5716,-5.5649,-5.575,-5.5683,-5.5513,-5.5512,-5.5581,-5.5716,-5.5716,-5.5784,-5.5953,-5.5818,-5.5783,-5.5919,-5.5953,-5.5919,-5.5818,-5.5919,-5.5987,-5.5818,-5.5953,-5.5852,-5.6021,-5.6528,-5.6833,-5.69,-5.7476,-5.7814,-5.7881,-5.7814,-5.7814,-5.7881,-5.7881,-5.7915,-5.7949,-5.7949,-5.8626,-6.0017,-6.1117,-6.1945,-6.2561,-6.2885,-6.349,-6.4225,-6.4504,-6.5099,-6.5803,-6.66,-6.698,-6.7083,-6.7601,-6.798,-6.798,-6.8014,-6.8083,-6.8083,-6.8083,-6.8083,-6.8083,-6.8083,-6.8083,-6.8083,-6.8118,-6.8468,-6.9405,-7.0545,-7.1401,-7.1753,-7.2292,-7.2996,-7.3482,-7.3392,-7.3426,-7.4376,-7.4255,-7.4296,-7.4855,-7.5615,-7.6589,-7.7665,-7.8698,-7.9728,-8.0678,-8.0744,-8.1073,-8.1373,-8.1815,-8.1782,-8.1441,-8.1451,-8.1165,-8.0496,-7.991,-7.9364,-7.9094,-7.871,-7.8545,-7.8948,-7.9327,-7.9569,-5.3518,-5.3518,-5.3518,-5.3518,-5.3518,-5.3518,-5.3754,-5.4228,-5.4228,-5.4532,-5.5006,-5.5277,-5.5378,-5.5513,-5.6122,-5.6461,-5.6494,-5.6934,-5.6697,-5.5886,-5.575,-5.6021,-5.6393,-5.6461,-5.6731,-5.7137,-5.7205,-5.7205,-5.7171,-5.7171,-5.7205,-5.7205,-5.7171,-5.7205,-5.7137,-5.7205,-5.7205,-5.7239,-5.7408,-5.7543,-5.7577,-5.7746,-5.7881,-5.7881,-5.7881,-5.7881,-5.7881,-5.7881,-5.8152,-5.8592,-5.866,-5.937,-6.0761,-6.183,-6.2532,-6.2958,-6.3627,-6.4126,-6.4659,-6.5593,-6.6247,-6.6738,-6.7325,-6.7704,-6.7738,-6.7945,-6.8083,-6.8083,-6.8083,-6.8083,-6.8083,-6.8083,-6.8118,-6.8083,-6.8083,-6.8192,-6.8369,-6.8675,-6.9748,-7.122,-7.1596,-7.2169,-7.3308,-7.3803,-7.3677,-7.4378,-7.4338,-7.4563,-7.4898,-7.5437,-7.5463,-7.5867,-7.6912,-7.806,-7.8916,-7.9767,-8.0649,-8.1322,-8.1497,-8.1599,-8.1966,-8.2186,-8.2186,-8.2138,-8.2192,-8.1958,-8.1341,-8.0759,-8.017,-7.9823,-7.951,-7.9602,-7.9856,-8.0051,-8.0155,-5.3518,-5.3518,-5.3788,-5.3923,-5.3957,-5.4194,-5.4566,-5.4972,-5.5006,-5.5277,-5.5683,-5.6021,-5.6122,-5.6258,-5.6867,-5.7205,-5.7273,-5.7712,-5.7408,-5.663,-5.6528,-5.6799,-5.7171,-5.7205,-5.7408,-5.778,-5.7881,-5.7881,-5.7881,-5.7881,-5.7881,-5.7881,-5.7881,-5.7848,-5.7881,-5.7881,-5.7881,-5.7881,-5.7848,-5.7881,-5.7881,-5.7881,-5.8017,-5.8254,-5.8321,-5.8423,-5.866,-5.8693,-5.8795,-5.9099,-5.9505,-6.0389,-6.138,-6.2285,-6.2987,-6.3559,-6.416,-6.4797,-6.5531,-6.6428,-6.7152,-6.7428,-6.7842,-6.8083,-6.8083,-6.8083,-6.8083,-6.8083,-6.8083,-6.8083,-6.8083,-6.8083,-6.8221,-6.8532,-6.8852,-6.9072,-6.935,-7.0084,-7.0972,-7.2193,-7.2204,-7.2908,-7.3854,-7.3952,-7.3913,-7.4715,-7.5002,-7.5621,-7.6016,-7.6803,-7.702,-7.7522,-7.8695,-7.9548,-8.0126,-8.0835,-8.1534,-8.1823,-8.2039,-8.2003,-8.215,-8.2186,-8.219,-8.1986,-8.1996,-8.1885,-8.1344,-8.115,-8.0732,-8.0491,-8.0195,-8.0051,-8.0051,-8.0362,-8.0569,-5.3653,-5.3721,-5.4363,-5.4634,-5.4735,-5.531,-5.5615,-5.5784,-5.575,-5.5852,-5.6055,-5.6596,-5.6867,-5.7002,-5.7509,-5.7746,-5.7881,-5.7848,-5.7848,-5.7712,-5.7679,-5.7712,-5.7746,-5.7746,-5.7814,-5.7881,-5.7881,-5.7881,-5.7881,-5.8017,-5.7949,-5.8051,-5.8152,-5.8017,-5.8118,-5.7983,-5.8118,-5.8084,-5.8084,-5.8152,-5.8152,-5.8118,-5.8389,-5.9032,-5.9066,-5.9336,-5.9776,-5.9979,-5.981,-5.9471,-6.0626,-6.1452,-6.1847,-6.2582,-6.3559,-6.426,-6.4659,-6.5562,-6.66,-6.7049,-6.7394,-6.7911,-6.8014,-6.8083,-6.8083,-6.8083,-6.8083,-6.8083,-6.8083,-6.8118,-6.8187,-6.8256,-6.864,-6.9456,-6.9958,-7.0441,-7.1441,-7.1991,-7.2376,-7.2656,-7.2812,-7.3101,-7.3991,-7.3622,-7.3931,-7.4851,-7.5385,-7.6299,-7.7374,-7.7981,-7.8797,-7.9335,-7.963,-8.0203,-8.0504,-8.0857,-8.1492,-8.2011,-8.2132,-8.1968,-8.1934,-8.19,-8.2077,-8.1924,-8.1804,-8.1702,-8.1657,-8.1549,-8.1321,-8.1005,-8.0661,-8.0259,-8.0362,-8.0776,-8.0948,-5.5141,-5.5175,-5.5344,-5.5412,-5.5446,-5.5649,-5.6055,-5.6494,-5.6528,-5.6799,-5.7239,-5.7509,-5.7543,-5.7645,-5.778,-5.7881,-5.7881,-5.7881,-5.7881,-5.7881,-5.7881,-5.7881,-5.7881,-5.7881,-5.7915,-5.7915,-5.8017,-5.7881,-5.7949,-5.849,-5.8693,-5.8761,-5.9167,-5.9167,-5.8863,-5.9201,-5.9201,-5.8896,-5.9268,-5.9471,-5.9438,-5.9438,-5.9573,-5.9776,-5.981,-5.9945,-6.0182,-6.0689,-6.1003,-6.1019,-6.18,-6.2421,-6.2685,-6.349,-6.4153,-6.4645,-6.5658,-6.6497,-6.6945,-6.7497,-6.7876,-6.8049,-6.8083,-6.8083,-6.8083,-6.8083,-6.8083,-6.8083,-6.8083,-6.8359,-6.8808,-6.902,-6.9812,-7.1299,-7.1002,-7.0804,-7.1503,-7.1694,-7.2209,-7.3177,-7.3037,-7.3747,-7.4815,-7.5021,-7.5031,-7.623,-7.6767,-7.7005,-7.8133,-7.8779,-7.9427,-7.9106,-7.9357,-8.0118,-8.0694,-8.0944,-8.1368,-8.1992,-8.2009,-8.167,-8.1455,-8.1236,-8.1599,-8.1851,-8.1977,-8.1946,-8.2107,-8.2172,-8.1837,-8.1377,-8.1171,-8.0879,-8.1155,-8.15,-8.1397,-5.5681,-5.575,-5.6055,-5.6156,-5.6224,-5.6494,-5.6867,-5.7205,-5.7273,-5.7476,-5.7848,-5.7881,-5.7881,-5.7881,-5.7881,-5.7881,-5.7881,-5.7881,-5.8051,-5.8423,-5.8727,-5.849,-5.8152,-5.8152,-5.8355,-5.8423,-5.866,-5.8829,-5.893,-5.9302,-5.9438,-5.9505,-5.9877,-5.9877,-5.9539,-5.981,-5.9911,-5.9607,-5.9911,-6.008,-6.008,-6.008,-6.0317,-6.0486,-6.0622,-6.0689,-6.1061,-6.1612,-6.1965,-6.211,-6.2489,-6.2945,-6.3593,-6.4084,-6.4714,-6.5374,-6.6493,-6.7083,-6.7463,-6.7876,-6.8049,-6.8083,-6.8083,-6.8083,-6.8083,-6.8083,-6.8083,-6.8083,-6.8394,-6.8808,-6.9256,-6.9808,-7.0776,-7.1717,-7.1688,-7.1663,-7.2371,-7.2528,-7.3037,-7.3802,-7.4082,-7.4417,-7.641,-7.6178,-7.6655,-7.7523,-7.817,-7.8531,-7.9066,-7.9504,-7.9828,-7.968,-7.9825,-8.0659,-8.1088,-8.1302,-8.1093,-8.1628,-8.1274,-8.1042,-8.1243,-8.0927,-8.1283,-8.1707,-8.1986,-8.218,-8.2216,-8.2217,-8.1967,-8.1666,-8.1582,-8.1397,-8.1431,-8.1638,-8.1603,-5.5918,-5.6021,-5.663,-5.69,-5.7002,-5.7577,-5.7746,-5.7848,-5.7814,-5.7848,-5.7881,-5.7881,-5.7881,-5.7881,-5.7881,-5.7949,-5.8051,-5.8118,-5.8558,-5.9066,-5.9505,-5.937,-5.8524,-5.8896,-5.9099,-5.9201,-5.981,-5.9911,-5.9911,-6.008,-6.0216,-6.0317,-6.0351,-6.0317,-6.0317,-6.0385,-6.0317,-6.0283,-6.0486,-6.0622,-6.0622,-6.0622,-6.0892,-6.1298,-6.1438,-6.1714,-6.2193,-6.2649,-6.2833,-6.2906,-6.2867,-6.344,-6.4294,-6.4507,-6.5374,-6.6592,-6.7187,-6.7669,-6.798,-6.8152,-6.8187,-6.8152,-6.8083,-6.8187,-6.8256,-6.8359,-6.8428,-6.8601,-6.9015,-6.9428,-6.9842,-7.0808,-7.1608,-7.2147,-7.2471,-7.3088,-7.3687,-7.3817,-7.4102,-7.4833,-7.4973,-7.5803,-7.6698,-7.7362,-7.751,-7.7953,-7.8637,-7.8994,-7.9467,-8.0009,-8.0442,-8.0802,-8.1017,-8.1407,-8.1619,-8.1729,-8.131,-8.1089,-8.0388,-8.0217,-8.1018,-8.1049,-8.1223,-8.1498,-8.1865,-8.1972,-8.1933,-8.1849,-8.1823,-8.1754,-8.1603,-8.119,-8.0914,-8.1293,-8.1431,-5.7408,-5.7442,-5.7577,-5.7645,-5.7679,-5.7814,-5.7881,-5.7881,-5.7881,-5.7881,-5.7881,-5.7881,-5.7881,-5.7915,-5.7983,-5.8186,-5.8727,-5.8829,-5.9167,-5.981,-5.9979,-5.9979,-5.9641,-5.9877,-5.9877,-5.9945,-6.0013,-6.0148,-6.025,-6.0791,-6.1028,-6.1095,-6.1434,-6.1603,-6.1163,-6.1467,-6.1569,-6.1264,-6.1535,-6.1772,-6.1738,-6.1738,-6.1873,-6.2149,-6.23,-6.2445,-6.2756,-6.3392,-6.3854,-6.4004,-6.4076,-6.4362,-6.4862,-6.5799,-6.6562,-6.7152,-6.8152,-6.8566,-6.829,-6.8532,-6.8739,-6.8221,-6.8221,-6.8359,-6.898,-6.9015,-6.9325,-6.9704,-7.0049,-7.036,-7.0946,-7.1808,-7.2533,-7.3015,-7.336,-7.386,-7.441,-7.4183,-7.426,-7.4737,-7.5065,-7.5345,-7.6308,-7.6731,-7.7279,-7.825,-7.8796,-7.9209,-7.9699,-8.0331,-8.0622,-8.0912,-8.0765,-8.0982,-8.1525,-8.1486,-8.1066,-8.0638,-7.9893,-7.974,-8.0526,-8.0761,-8.0767,-8.12,-8.177,-8.1782,-8.1707,-8.1776,-8.1823,-8.1707,-8.1638,-8.1466,-8.1328,-8.1397,-8.1535,-5.7881,-5.7881,-5.7881,-5.7881,-5.7881,-5.7881,-5.7881,-5.7881,-5.7881,-5.7881,-5.7881,-5.7881,-5.8084,-5.8423,-5.8457,-5.8829,-5.9505,-5.9945,-6.0283,-6.0723,-6.096,-6.1197,-6.1163,-6.1129,-6.1028,-6.0791,-6.1061,-6.1129,-6.1332,-6.1535,-6.1806,-6.1806,-6.2212,-6.211,-6.1873,-6.2178,-6.2144,-6.1941,-6.2178,-6.2415,-6.2415,-6.2415,-6.2459,-6.2673,-6.3037,-6.3358,-6.3426,-6.4303,-6.48,-6.5053,-6.537,-6.5658,-6.5872,-6.6842,-6.7428,-6.7738,-6.8532,-6.8842,-6.8463,-6.8463,-6.8704,-6.867,-6.8635,-6.9084,-6.9566,-6.9808,-6.9946,-7.036,-7.0739,-7.1222,-7.1981,-7.2705,-7.3395,-7.3705,-7.4119,-7.4636,-7.5154,-7.4809,-7.4602,-7.531,-7.5871,-7.6496,-7.6943,-7.6996,-7.7731,-7.8966,-7.9117,-7.9423,-7.9536,-8.0028,-8.0238,-8.0378,-8.0135,-8.0301,-8.1061,-8.115,-8.0729,-8.0246,-7.9678,-7.9813,-8.042,-8.0374,-8.0144,-8.0836,-8.1574,-8.1585,-8.1569,-8.1672,-8.1776,-8.1776,-8.1776,-8.1776,-8.1914,-8.2052,-8.2224,-5.7881,-5.7881,-5.7881,-5.7881,-5.7881,-5.7881,-5.7881,-5.7881,-5.7881,-5.7881,-5.7915,-5.7983,-5.8457,-5.8896,-5.9133,-5.9607,-6.0317,-6.1028,-6.14,-6.1501,-6.1907,-6.211,-6.2144,-6.211,-6.1941,-6.1603,-6.1907,-6.2212,-6.2245,-6.2381,-6.2245,-6.2347,-6.2381,-6.2347,-6.2381,-6.2381,-6.2347,-6.2313,-6.2347,-6.2415,-6.2454,-6.2454,-6.2537,-6.2833,-6.3572,-6.3995,-6.4273,-6.5079,-6.5852,-6.5886,-6.6695,-6.7083,-6.7325,-6.7669,-6.8083,-6.8118,-6.8842,-6.8808,-6.8394,-6.8463,-6.8877,-6.9325,-6.9428,-6.9808,-7.036,-7.0601,-7.0739,-7.0981,-7.1394,-7.2015,-7.2774,-7.3291,-7.3809,-7.4257,-7.4809,-7.5386,-7.5947,-7.5627,-7.5775,-7.6095,-7.653,-7.7058,-7.7642,-7.7964,-7.8857,-7.9487,-7.9526,-7.9601,-7.9711,-7.9929,-8.0246,-8.0514,-8.0445,-8.0204,-8.0801,-8.102,-8.064,-7.9975,-7.9411,-7.9612,-7.9982,-7.9649,-7.9626,-8.0754,-8.1375,-8.1431,-8.15,-8.1603,-8.1707,-8.181,-8.2086,-8.2293,-8.25,-8.2707,-8.2949,-5.7881,-5.7881,-5.7881,-5.7881,-5.7881,-5.7881,-5.7881,-5.7881,-5.7881,-5.7881,-5.7983,-5.8558,-5.8863,-5.9201,-5.9708,-6.0351,-6.1129,-6.1772,-6.211,-6.211,-6.2347,-6.2381,-6.2415,-6.2381,-6.2279,-6.2279,-6.2381,-6.2381,-6.2415,-6.2415,-6.2415,-6.2415,-6.2415,-6.2415,-6.2415,-6.2415,-6.2415,-6.2381,-6.242,-6.242,-6.2459,-6.2576,-6.2799,-6.3132,-6.4008,-6.4461,-6.4847,-6.5895,-6.6768,-6.6837,-6.7532,-6.7807,-6.7876,-6.8014,-6.8083,-6.8256,-6.8842,-6.8911,-6.8359,-6.9222,-6.9532,-6.9641,-6.9883,-7.0532,-7.1084,-7.1325,-7.1532,-7.2015,-7.2326,-7.2774,-7.3498,-7.3878,-7.4499,-7.5257,-7.5809,-7.6189,-7.6696,-7.6765,-7.6671,-7.6888,-7.7135,-7.7301,-7.7667,-7.7988,-7.8252,-7.8552,-7.8676,-7.924,-7.9762,-8.0172,-8.0612,-8.0912,-8.1089,-8.0806,-8.0684,-8.0754,-8.0536,-7.9796,-7.9234,-7.8957,-7.912,-7.8775,-7.912,-8.0258,-8.1086,-8.1397,-8.1466,-8.1672,-8.2121,-8.2569,-8.2742,-8.2949,-8.3362,-8.3776,-8.388,-5.7881,-5.7881,-5.7881,-5.7881,-5.7881,-5.7881,-5.7881,-5.7881,-5.7881,-5.8118,-5.849,-5.8896,-5.9505,-6.0114,-6.052,-6.1129,-6.1806,-6.2178,-6.2381,-6.2415,-6.2415,-6.2415,-6.2415,-6.2415,-6.2415,-6.2381,-6.2381,-6.2415,-6.2415,-6.2415,-6.2415,-6.2415,-6.2415,-6.2415,-6.2415,-6.2415,-6.2381,-6.242,-6.2498,-6.2571,-6.261,-6.2842,-6.3209,-6.3837,-6.4645,-6.531,-6.5968,-6.6798,-6.7532,-6.7635,-6.7911,-6.8049,-6.8083,-6.8083,-6.8083,-6.8221,-6.8808,-6.8911,-6.8394,-6.9222,-6.967,-6.998,-7.0532,-7.1291,-7.1877,-7.2153,-7.2291,-7.2636,-7.3153,-7.3395,-7.374,-7.4464,-7.5326,-7.5947,-7.643,-7.6809,-7.712,-7.7223,-7.7223,-7.7223,-7.7244,-7.7254,-7.7244,-7.7411,-7.75,-7.7632,-7.7815,-7.8656,-7.9677,-8.0007,-8.038,-8.104,-8.1226,-8.115,-8.0847,-8.065,-8.0431,-7.9707,-7.912,-7.8844,-7.881,-7.8775,-7.9051,-7.9776,-8.0465,-8.1466,-8.2017,-8.2397,-8.288,-8.3328,-8.3742,-8.4121,-8.4535,-8.4846,-8.488,-5.7881,-5.7881,-5.7881,-5.7881,-5.7881,-5.7881,-5.7881,-5.7915,-5.8084,-5.8457,-5.8998,-5.9404,-6.0216,-6.1061,-6.1467,-6.1839,-6.2381,-6.2381,-6.2381,-6.2415,-6.2415,-6.2415,-6.2415,-6.2415,-6.2415,-6.2415,-6.2415,-6.2415,-6.2415,-6.2415,-6.2415,-6.2415,-6.2415,-6.2415,-6.2415,-6.2493,-6.242,-6.2498,-6.2654,-6.2765,-6.309,-6.3524,-6.4027,-6.4717,-6.5593,-6.6359,-6.6807,-6.7566,-6.7945,-6.8014,-6.8049,-6.8083,-6.8083,-6.8083,-6.8083,-6.8187,-6.8739,-6.8635,-6.8773,-6.9153,-6.998,-7.0532,-7.1291,-7.1981,-7.2506,-7.2747,-7.2946,-7.3058,-7.3567,-7.4154,-7.4568,-7.5361,-7.6016,-7.643,-7.6878,-7.7223,-7.7223,-7.7223,-7.7223,-7.7223,-7.7223,-7.7223,-7.7223,-7.7223,-7.7357,-7.7357,-7.7579,-7.8262,-7.9137,-7.9247,-7.9734,-8.0801,-8.1285,-8.132,-8.1086,-8.0754,-8.0362,-7.9672,-7.9155,-7.881,-7.8948,-7.9086,-7.9569,-8.0224,-8.0983,-8.1948,-8.2535,-8.3121,-8.3569,-8.4087,-8.4777,-8.519,-8.5397,-8.5604,-8.5708,-5.7881,-5.7881,-5.7881,-5.7881,-5.7881,-5.7881,-5.7881,-5.7949,-5.8558,-5.893,-5.9201,-6.0351,-6.1028,-6.1434,-6.1975,-6.2279,-6.2381,-6.2415,-6.2415,-6.2415,-6.2415,-6.2415,-6.2415,-6.2415,-6.2415,-6.2454,-6.242,-6.2415,-6.2454,-6.2454,-6.2415,-6.2415,-6.2415,-6.2415,-6.2459,-6.2571,-6.2688,-6.2693,-6.2881,-6.338,-6.4183,-6.4877,-6.5374,-6.5868,-6.6531,-6.7049,-6.7325,-6.7911,-6.8187,-6.8083,-6.8083,-6.8083,-6.8083,-6.8083,-6.8083,-6.8083,-6.8256,-6.8497,-6.9049,-6.9808,-7.0498,-7.1187,-7.1981,-7.2506,-7.2885,-7.3299,-7.3567,-7.3671,-7.4326,-7.4981,-7.543,-7.5947,-7.6464,-7.6775,-7.712,-7.7223,-7.7223,-7.7223,-7.7223,-7.7223,-7.7223,-7.7223,-7.7223,-7.7223,-7.7223,-7.7223,-7.7396,-7.812,-7.8913,-7.9293,-7.9534,-8.0638,-8.1086,-8.1121,-8.0948,-8.0638,-8.0465,-7.9741,-7.9431,-7.9086,-7.95,-7.9948,-8.0603,-8.1259,-8.1948,-8.2466,-8.2949,-8.3535,-8.4156,-8.4742,-8.5328,-8.5742,-8.6087,-8.626,-8.6294,-5.7881,-5.7881,-5.7881,-5.7881,-5.7881,-5.7881,-5.7881,-5.8051,-5.8693,-5.9268,-5.9776,-6.0757,-6.1501,-6.1907,-6.2313,-6.2381,-6.2415,-6.2415,-6.2415,-6.2415,-6.2415,-6.2415,-6.2415,-6.2415,-6.2415,-6.242,-6.2498,-6.261,-6.2571,-6.2493,-6.2415,-6.2454,-6.2454,-6.2459,-6.2707,-6.2722,-6.277,-6.2987,-6.3486,-6.4294,-6.5203,-6.6002,-6.6661,-6.7152,-6.7876,-6.8152,-6.829,-6.8532,-6.8497,-6.8256,-6.8083,-6.8083,-6.8221,-6.8463,-6.8773,-6.8808,-6.9222,-6.9394,-6.9428,-7.0394,-7.105,-7.1532,-7.2222,-7.2851,-7.3265,-7.3636,-7.4085,-7.443,-7.5154,-7.574,-7.6154,-7.6455,-7.6844,-7.712,-7.7223,-7.7223,-7.7223,-7.7223,-7.7223,-7.7223,-7.7223,-7.7223,-7.7223,-7.7223,-7.7223,-7.7223,-7.743,-7.7982,-7.9189,-8.0362,-8.05,-8.0741,-8.0879,-8.081,-8.0534,-8.0293,-8.0638,-8.0258,-8.0293,-8.012,-8.0431,-8.0948,-8.1603,-8.2259,-8.2914,-8.3293,-8.3535,-8.4121,-8.488,-8.5397,-8.5846,-8.6053,-8.626,-8.621,-8.6093,-5.7881,-5.7881,-5.7881,-5.7881,-5.7881,-5.7881,-5.7881,-5.7983,-5.8896,-5.9607,-6.025,-6.1129,-6.1907,-6.2279,-6.2381,-6.2415,-6.2415,-6.2415,-6.2415,-6.2415,-6.2415,-6.2415,-6.2415,-6.2415,-6.242,-6.2493,-6.2882,-6.3067,-6.314,-6.3164,-6.326,-6.2882,-6.3328,-6.3333,-6.3383,-6.3601,-6.3786,-6.4012,-6.4744,-6.5585,-6.6458,-6.7256,-6.7945,-6.8532,-6.9049,-6.9291,-6.9256,-6.8946,-6.8532,-6.8256,-6.8083,-6.8083,-6.8187,-6.8739,-6.9118,-6.936,-6.9946,-7.036,-7.036,-7.0877,-7.1498,-7.1946,-7.2464,-7.3222,-7.3671,-7.4016,-7.4533,-7.5179,-7.5869,-7.6292,-7.6499,-7.6868,-7.7041,-7.7189,-7.7223,-7.7223,-7.7223,-7.7223,-7.7223,-7.7223,-7.7223,-7.7223,-7.7223,-7.7223,-7.7223,-7.7223,-7.7499,-7.7948,-7.912,-8.0569,-8.081,-8.0707,-8.0741,-8.0776,-8.0879,-8.0672,-8.081,-8.0914,-8.0948,-8.119,-8.1569,-8.1983,-8.2569,-8.3225,-8.3914,-8.4432,-8.4811,-8.5225,-8.5604,-8.588,-8.6087,-8.6191,-8.6294,-8.6144,-8.5652,-5.7881,-5.7881,-5.7881,-5.7881,-5.7881,-5.7881,-5.7881,-5.8118,-5.9404,-6.008,-6.052,-6.1535,-6.2245,-6.2381,-6.2415,-6.2415,-6.2415,-6.2415,-6.2415,-6.2415,-6.2415,-6.2415,-6.2415,-6.2488,-6.2634,-6.2853,-6.3485,-6.3908,-6.4157,-6.4674,-6.4464,-6.4157,-6.4459,-6.4874,-6.5026,-6.4864,-6.5156,-6.5447,-6.6109,-6.6941,-6.7807,-6.8601,-6.9325,-6.9773,-6.9601,-6.9291,-6.9222,-6.8739,-6.8325,-6.8118,-6.8083,-6.8221,-6.8428,-6.9049,-6.9463,-6.9877,-7.0774,-7.1222,-7.1394,-7.1463,-7.1877,-7.2567,-7.3188,-7.3705,-7.4188,-7.5292,-7.5844,-7.6016,-7.6558,-7.6903,-7.7051,-7.7189,-7.7223,-7.7223,-7.7223,-7.7223,-7.7223,-7.7223,-7.7223,-7.7223,-7.7223,-7.7223,-7.7223,-7.7223,-7.7223,-7.7223,-7.7603,-7.8051,-7.8706,-7.9879,-8.0293,-8.0465,-8.0603,-8.0914,-8.15,-8.15,-8.1328,-8.1707,-8.2017,-8.2362,-8.2776,-8.3225,-8.3638,-8.4328,-8.5018,-8.5535,-8.5915,-8.5915,-8.5984,-8.6191,-8.6294,-8.6194,-8.5703,-8.5239,-8.4679,-5.7881,-5.7881,-5.7881,-5.7881,-5.7881,-5.7881,-5.8152,-5.8693,-5.9641,-6.0689,-6.1501,-6.211,-6.2415,-6.2415,-6.2415,-6.2415,-6.2415,-6.2415,-6.2415,-6.2415,-6.2415,-6.2415,-6.2522,-6.2978,-6.3328,-6.3582,-6.4357,-6.4928,-6.5108,-6.5911,-6.6127,-6.595,-6.5657,-6.5378,-6.549,-6.5852,-6.6144,-6.6527,-6.6945,-6.7532,-6.8808,-6.9532,-7.0118,-7.0291,-7.0808,-7.0049,-6.9428,-6.9049,-6.8566,-6.8256,-6.8152,-6.8394,-6.8877,-6.9566,-7.0084,-7.0532,-7.1567,-7.205,-7.2188,-7.2264,-7.2567,-7.3188,-7.3671,-7.4154,-7.4912,-7.5844,-7.6361,-7.6706,-7.7016,-7.7178,-7.7223,-7.7223,-7.7223,-7.7223,-7.7223,-7.7223,-7.7223,-7.7223,-7.7223,-7.7223,-7.7223,-7.7223,-7.7223,-7.7223,-7.7223,-7.7258,-7.7706,-7.8189,-7.8879,-7.9431,-7.9982,-8.05,-8.0707,-8.1155,-8.1741,-8.181,-8.181,-8.2466,-8.3087,-8.35,-8.3949,-8.4294,-8.4777,-8.5466,-8.5811,-8.5984,-8.6156,-8.626,-8.6294,-8.6294,-8.6194,-8.6043,-8.5343,-8.4412,-8.3708,-5.7881,-5.7881,-5.7881,-5.7881,-5.7915,-5.8118,-5.8524,-5.9133,-6.0047,-6.1163,-6.2381,-6.2415,-6.2415,-6.2415,-6.2415,-6.2415,-6.2415,-6.2415,-6.2415,-6.2482,-6.2618,-6.2725,-6.3108,-6.36,-6.4234,-6.4522,-6.5304,-6.5911,-6.6062,-6.6941,-6.7148,-6.7001,-6.6608,-6.6431,-6.6441,-6.6488,-6.6807,-6.7187,-6.7428,-6.7911,-6.9262,-6.9745,-7.0222,-7.0256,-7.0532,-7.0187,-6.936,-6.8946,-6.8739,-6.8566,-6.8601,-6.8911,-6.9566,-7.0291,-7.0912,-7.1532,-7.2153,-7.2671,-7.274,-7.2981,-7.3222,-7.3636,-7.4395,-7.5085,-7.5809,-7.6292,-7.6775,-7.7006,-7.7178,-7.7223,-7.7223,-7.7223,-7.7223,-7.7223,-7.7223,-7.7223,-7.7223,-7.7223,-7.7223,-7.7223,-7.7223,-7.7258,-7.743,-7.7534,-7.781,-7.781,-7.7948,-7.8499,-7.912,-7.9672,-8.0051,-8.0534,-8.0914,-8.1431,-8.1983,-8.2466,-8.2983,-8.3638,-8.4259,-8.4673,-8.5052,-8.5363,-8.5535,-8.588,-8.6122,-8.626,-8.6294,-8.6294,-8.6294,-8.6294,-8.5941,-8.5446,-8.4305,-8.3321,-8.2704,-5.7881,-5.7881,-5.7915,-5.7915,-5.8051,-5.8693,-5.9032,-5.9438,-6.0655,-6.167,-6.2347,-6.2415,-6.2415,-6.2415,-6.2415,-6.242,-6.242,-6.242,-6.2527,-6.2769,-6.3142,-6.3521,-6.4013,-6.4506,-6.5181,-6.5661,-6.6294,-6.6824,-6.6941,-6.7566,-6.7911,-6.7945,-6.7625,-6.7625,-6.798,-6.8014,-6.8014,-6.8049,-6.798,-6.8497,-6.9158,-6.9469,-6.9814,-6.998,-6.9877,-6.9572,-6.9291,-6.8842,-6.8808,-6.9187,-6.9222,-6.9635,-7.0325,-7.0946,-7.1394,-7.167,-7.236,-7.274,-7.2809,-7.3429,-7.3912,-7.4223,-7.5085,-7.5878,-7.6223,-7.6671,-7.7051,-7.7223,-7.7223,-7.7223,-7.7223,-7.7223,-7.7223,-7.7223,-7.7223,-7.7223,-7.7223,-7.7223,-7.7223,-7.7327,-7.7292,-7.7292,-7.7568,-7.7879,-7.8327,-7.8465,-7.8396,-7.881,-7.9534,-7.9948,-8.0362,-8.1121,-8.1603,-8.2328,-8.2983,-8.3569,-8.4156,-8.4811,-8.5259,-8.5535,-8.5742,-8.5915,-8.6122,-8.6294,-8.6294,-8.6294,-8.6294,-8.6278,-8.5941,-8.5549,-8.5048,-8.4412,-8.321,-8.2338,-8.1876,-5.7881,-5.7915,-5.8423,-5.8626,-5.8693,-5.8896,-5.9573,-6.0588,-6.1535,-6.2144,-6.2347,-6.2415,-6.2415,-6.2415,-6.2454,-6.2493,-6.261,-6.261,-6.2751,-6.3558,-6.3893,-6.4278,-6.4834,-6.5568,-6.6171,-6.6495,-6.7128,-6.7591,-6.7738,-6.8014,-6.8049,-6.8083,-6.8083,-6.8083,-6.8049,-6.8083,-6.8083,-6.8083,-6.8152,-6.8463,-6.9187,-6.9331,-6.9469,-6.9704,-6.9428,-6.936,-6.936,-6.898,-6.9291,-6.9911,-7.0015,-7.0394,-7.0981,-7.1532,-7.1774,-7.2257,-7.3015,-7.3671,-7.4154,-7.4843,-7.5292,-7.5533,-7.574,-7.6395,-7.6765,-7.6972,-7.7144,-7.7223,-7.7223,-7.7223,-7.7223,-7.7223,-7.7223,-7.7223,-7.7223,-7.7223,-7.7223,-7.7223,-7.7258,-7.7465,-7.7499,-7.8223,-7.8637,-7.881,-7.9155,-7.9465,-7.95,-7.9638,-8.0224,-8.0465,-8.0845,-8.1879,-8.2604,-8.3328,-8.4018,-8.4466,-8.4949,-8.5501,-8.5846,-8.6018,-8.6225,-8.6191,-8.6191,-8.6156,-8.6225,-8.6294,-8.6043,-8.5703,-8.51,-8.4626,-8.4081,-8.3609,-8.2647,-8.1876,-8.1381,-5.7918,-5.8058,-5.8804,-5.9315,-5.9553,-5.9712,-6.0554,-6.1637,-6.2178,-6.2415,-6.2415,-6.2415,-6.2415,-6.2454,-6.2493,-6.2809,-6.3033,-6.3178,-6.3665,-6.4469,-6.4845,-6.5294,-6.5926,-6.6627,-6.7049,-6.7335,-6.766,-6.8049,-6.8014,-6.8049,-6.8083,-6.8083,-6.8083,-6.8083,-6.8083,-6.8083,-6.8083,-6.8083,-6.8152,-6.829,-6.8773,-6.9049,-6.9291,-6.9469,-6.9538,-6.9704,-6.967,-6.9773,-7.0015,-7.0532,-7.0877,-7.1118,-7.1636,-7.1981,-7.2291,-7.3015,-7.3774,-7.4499,-7.5257,-7.5637,-7.6016,-7.643,-7.6464,-7.6706,-7.7075,-7.7144,-7.7178,-7.7223,-7.7258,-7.7292,-7.7327,-7.7327,-7.7499,-7.7534,-7.7775,-7.781,-7.7465,-7.7465,-7.7879,-7.8017,-7.8292,-7.9051,-7.9707,-7.9913,-8.0086,-8.0362,-8.0638,-8.081,-8.0948,-8.1224,-8.1569,-8.25,-8.3466,-8.4156,-8.4777,-8.5259,-8.5742,-8.6225,-8.6191,-8.6053,-8.5915,-8.5708,-8.5846,-8.6018,-8.6106,-8.6059,-8.5549,-8.5082,-8.4278,-8.3677,-8.3143,-8.2609,-8.2,-8.1623,-8.122,-5.8061,-5.8307,-5.9023,-5.9913,-6.0703,-6.1117,-6.1782,-6.2386,-6.242,-6.2454,-6.242,-6.2493,-6.2498,-6.2532,-6.2683,-6.3174,-6.3796,-6.402,-6.4679,-6.5373,-6.5891,-6.6382,-6.6798,-6.7393,-6.7684,-6.7901,-6.8083,-6.8083,-6.8083,-6.8083,-6.8083,-6.8083,-6.8083,-6.8083,-6.8083,-6.8256,-6.829,-6.8359,-6.8394,-6.8566,-6.8946,-6.9187,-6.9463,-6.9676,-6.9911,-7.0222,-7.036,-7.0463,-7.0877,-7.1256,-7.1567,-7.1981,-7.2402,-7.2713,-7.3196,-7.3843,-7.4671,-7.5326,-7.5937,-7.6292,-7.6533,-7.6913,-7.7085,-7.7189,-7.7223,-7.7213,-7.7282,-7.7361,-7.7396,-7.743,-7.7465,-7.7775,-7.8051,-7.8361,-7.8775,-7.8499,-7.7982,-7.812,-7.8637,-7.8948,-7.9224,-7.981,-8.0465,-8.0776,-8.081,-8.1155,-8.1397,-8.1672,-8.1845,-8.2155,-8.2569,-8.3225,-8.4121,-8.4915,-8.5432,-8.5708,-8.5673,-8.588,-8.5639,-8.5501,-8.5363,-8.5466,-8.5777,-8.5968,-8.6022,-8.5737,-8.4961,-8.4149,-8.3304,-8.2757,-8.2851,-8.2595,-8.2313,-8.1999,-8.1673,-5.8475,-5.9057,-5.9916,-6.0811,-6.1596,-6.2237,-6.2676,-6.2847,-6.2847,-6.2847,-6.2808,-6.2847,-6.2808,-6.2881,-6.3431,-6.3854,-6.4341,-6.4903,-6.571,-6.6333,-6.6745,-6.7202,-6.7551,-6.7861,-6.8078,-6.8044,-6.8083,-6.8083,-6.8083,-6.8083,-6.8083,-6.8083,-6.8083,-6.8083,-6.8325,-6.8635,-6.8842,-6.898,-6.898,-6.9153,-6.9463,-6.9911,-7.0049,-7.0187,-7.0394,-7.0774,-7.1084,-7.1187,-7.1601,-7.2161,-7.2291,-7.2533,-7.2602,-7.323,-7.3912,-7.5292,-7.5775,-7.6085,-7.674,-7.6913,-7.7016,-7.7223,-7.7292,-7.7223,-7.7223,-7.7351,-7.7523,-7.7637,-7.7741,-7.7844,-7.8189,-7.8568,-7.8741,-7.8948,-7.9327,-7.9327,-7.8879,-7.9051,-7.9534,-7.9741,-8.0051,-8.05,-8.1121,-8.1328,-8.1397,-8.181,-8.2155,-8.2431,-8.2776,-8.3087,-8.3431,-8.4087,-8.4673,-8.5432,-8.557,-8.5777,-8.557,-8.5432,-8.5294,-8.5225,-8.5294,-8.5501,-8.5811,-8.5767,-8.5447,-8.4909,-8.4164,-8.342,-8.2797,-8.3133,-8.3132,-8.2877,-8.2612,-8.2418,-8.2288,-5.8622,-5.924,-6.0339,-6.1473,-6.2541,-6.3021,-6.3265,-6.3227,-6.3076,-6.3,-6.3,-6.3,-6.3136,-6.3512,-6.3999,-6.4594,-6.5392,-6.592,-6.6587,-6.7177,-6.7394,-6.7704,-6.798,-6.8083,-6.8083,-6.8083,-6.8083,-6.8083,-6.8083,-6.8083,-6.8083,-6.8083,-6.8083,-6.8325,-6.8635,-6.9049,-6.9635,-6.9842,-6.998,-7.0084,-7.0325,-7.0705,-7.0808,-7.0877,-7.1015,-7.1498,-7.1843,-7.1912,-7.2257,-7.2644,-7.2671,-7.2885,-7.3222,-7.4085,-7.4843,-7.6016,-7.643,-7.6671,-7.7085,-7.7189,-7.7396,-7.7603,-7.7672,-7.7913,-7.7982,-7.8085,-7.812,-7.8189,-7.8292,-7.8465,-7.8982,-7.9396,-7.9431,-7.95,-7.981,-8.012,-8.012,-8.0155,-8.0327,-8.05,-8.0845,-8.1224,-8.1569,-8.1707,-8.1983,-8.2293,-8.2742,-8.319,-8.3638,-8.4121,-8.4328,-8.4742,-8.5294,-8.5846,-8.588,-8.588,-8.5777,-8.557,-8.5363,-8.5328,-8.5328,-8.5333,-8.5508,-8.5139,-8.4592,-8.3981,-8.3265,-8.3103,-8.272,-8.3052,-8.3514,-8.3699,-8.3486,-8.3195,-8.313,-5.8734,-5.9183,-6.0592,-6.2142,-6.3496,-6.3563,-6.3563,-6.3563,-6.3193,-6.3076,-6.3076,-6.3076,-6.349,-6.408,-6.4534,-6.5435,-6.62,-6.6867,-6.7286,-6.8049,-6.7911,-6.8014,-6.8049,-6.8083,-6.8083,-6.8083,-6.8083,-6.8083,-6.8083,-6.8083,-6.8083,-6.8083,-6.8256,-6.8566,-6.9049,-6.9641,-7.0256,-7.0843,-7.0877,-7.0877,-7.0946,-7.1222,-7.1601,-7.1705,-7.2119,-7.2602,-7.2602,-7.2678,-7.2747,-7.2782,-7.2877,-7.323,-7.4257,-7.5085,-7.5844,-7.6361,-7.6809,-7.7016,-7.7258,-7.7396,-7.7672,-7.7982,-7.8361,-7.8499,-7.8465,-7.8637,-7.8672,-7.8948,-7.9086,-7.9465,-7.9948,-8.0086,-8.012,-8.0362,-8.0672,-8.0741,-8.0672,-8.081,-8.1086,-8.1224,-8.1293,-8.1672,-8.1741,-8.1914,-8.2293,-8.2707,-8.3397,-8.3983,-8.4397,-8.4915,-8.519,-8.5363,-8.5708,-8.6053,-8.6053,-8.6018,-8.6018,-8.5811,-8.5501,-8.5294,-8.5259,-8.5164,-8.5085,-8.4359,-8.3653,-8.293,-8.2322,-8.2328,-8.259,-8.3147,-8.3703,-8.439,-8.4393,-8.4005,-8.3972,-5.9422,-6.0626,-6.2284,-6.3253,-6.3565,-6.36,-6.36,-6.36,-6.3526,-6.3452,-6.3452,-6.352,-6.3899,-6.4584,-6.5241,-6.6105,-6.6833,-6.7458,-6.7876,-6.8049,-6.8083,-6.8187,-6.8118,-6.8152,-6.8118,-6.8083,-6.8083,-6.8083,-6.8083,-6.8083,-6.8118,-6.8187,-6.8532,-6.9084,-6.9463,-7.0118,-7.1084,-7.1636,-7.1843,-7.1843,-7.1946,-7.2119,-7.2429,-7.2395,-7.2671,-7.2671,-7.2671,-7.2705,-7.3092,-7.3403,-7.3498,-7.4257,-7.5499,-7.5947,-7.6395,-7.6844,-7.7154,-7.7292,-7.7361,-7.7637,-7.7982,-7.7879,-7.8085,-7.8396,-7.8672,-7.9051,-7.9362,-7.9672,-8.0017,-8.0396,-8.0741,-8.0741,-8.081,-8.119,-8.1466,-8.1328,-8.1155,-8.1466,-8.1776,-8.1776,-8.1776,-8.1879,-8.1948,-8.2224,-8.2604,-8.3328,-8.4294,-8.4915,-8.5121,-8.5501,-8.5742,-8.5915,-8.6018,-8.6225,-8.6191,-8.6122,-8.6053,-8.5846,-8.5535,-8.5363,-8.521,-8.4729,-8.4306,-8.3397,-8.2623,-8.2108,-8.1897,-8.1972,-8.2381,-8.2936,-8.3713,-8.4361,-8.4847,-8.4652,-8.4749,-5.9598,-6.0802,-6.2425,-6.3289,-6.3565,-6.36,-6.36,-6.36,-6.36,-6.36,-6.3669,-6.3945,-6.4496,-6.5255,-6.6048,-6.6738,-6.7394,-6.7876,-6.8014,-6.8083,-6.8187,-6.8394,-6.8359,-6.829,-6.8497,-6.8463,-6.8187,-6.8083,-6.8083,-6.8083,-6.8118,-6.8256,-6.8877,-6.9497,-6.9842,-7.0912,-7.1705,-7.205,-7.2498,-7.2636,-7.2671,-7.2671,-7.2671,-7.2671,-7.2713,-7.2705,-7.2843,-7.2912,-7.3437,-7.4016,-7.4395,-7.5016,-7.5947,-7.643,-7.6765,-7.7189,-7.7465,-7.7603,-7.7603,-7.7844,-7.8292,-7.8223,-7.8085,-7.8499,-8.0086,-8.0431,-8.0051,-8.0293,-8.0258,-8.0603,-8.119,-8.1328,-8.1362,-8.1569,-8.1672,-8.1569,-8.1535,-8.1638,-8.1776,-8.1776,-8.1879,-8.2086,-8.2224,-8.2535,-8.3052,-8.4121,-8.5052,-8.5432,-8.5708,-8.5846,-8.6156,-8.6294,-8.6294,-8.6294,-8.626,-8.6156,-8.6018,-8.5777,-8.5555,-8.5357,-8.5105,-8.4229,-8.3432,-8.2746,-8.2148,-8.1617,-8.1463,-8.1641,-8.1997,-8.2483,-8.3389,-8.4296,-8.4717,-8.5073,-8.5138,-5.984,-6.0634,-6.2082,-6.3013,-6.3531,-6.36,-6.36,-6.36,-6.36,-6.3669,-6.391,-6.4565,-6.5255,-6.5911,-6.6669,-6.7394,-6.7876,-6.8014,-6.8083,-6.8152,-6.829,-6.8635,-6.8739,-6.867,-6.8704,-6.8601,-6.8325,-6.8152,-6.8083,-6.8083,-6.8187,-6.8359,-6.9015,-6.9773,-7.0532,-7.1256,-7.1981,-7.236,-7.2671,-7.2671,-7.2671,-7.2671,-7.2671,-7.2713,-7.2816,-7.2851,-7.305,-7.3429,-7.3843,-7.4602,-7.543,-7.5982,-7.6395,-7.6844,-7.7189,-7.7534,-7.7706,-7.7706,-7.7741,-7.8051,-7.8499,-7.8741,-7.8534,-7.9189,-8.0707,-8.0879,-8.0465,-8.081,-8.0776,-8.0948,-8.1535,-8.1776,-8.1776,-8.1776,-8.1776,-8.1776,-8.1776,-8.181,-8.1845,-8.1879,-8.2121,-8.2362,-8.2742,-8.3018,-8.3776,-8.4846,-8.5432,-8.5777,-8.6053,-8.6087,-8.6225,-8.6294,-8.6294,-8.6294,-8.6294,-8.6225,-8.6087,-8.5937,-8.5733,-8.5429,-8.4887,-8.3775,-8.295,-8.2486,-8.1845,-8.1393,-8.1247,-8.1446,-8.177,-8.2223,-8.3001,-8.394,-8.4458,-8.4814,-8.517,-6.1323,-6.2151,-6.3013,-6.3462,-6.36,-6.36,-6.36,-6.36,-6.36,-6.391,-6.4496,-6.5221,-6.5807,-6.5945,-6.6669,-6.7394,-6.798,-6.8083,-6.8083,-6.8118,-6.8635,-6.9049,-6.9153,-6.898,-6.8704,-6.8463,-6.8221,-6.8152,-6.8152,-6.8152,-6.8463,-6.898,-6.9773,-7.0532,-7.1256,-7.1912,-7.2429,-7.2671,-7.2705,-7.2705,-7.274,-7.274,-7.2671,-7.292,-7.3299,-7.3464,-7.3774,-7.4326,-7.4981,-7.574,-7.6361,-7.6775,-7.7016,-7.7189,-7.7568,-7.7844,-7.8017,-7.7982,-7.8085,-7.8258,-7.8603,-7.8154,-7.8154,-7.8879,-7.9776,-7.9844,-8.0155,-8.15,-8.1569,-8.1569,-8.1879,-8.181,-8.1776,-8.1776,-8.1776,-8.1776,-8.1776,-8.1948,-8.2052,-8.2362,-8.2707,-8.3156,-8.3673,-8.4052,-8.457,-8.5397,-8.5811,-8.6087,-8.6191,-8.626,-8.6294,-8.6294,-8.6294,-8.6294,-8.6294,-8.6294,-8.6175,-8.6059,-8.5686,-8.5032,-8.4231,-8.3185,-8.2486,-8.242,-8.1928,-8.1344,-8.1349,-8.1738,-8.1835,-8.2288,-8.2806,-8.3486,-8.4069,-8.4685,-8.5106]}]]